[[{"header":{"parameterUnit":"m.s-1","parameterCategory":1,"la1":30.6,"la2":29.2853,"lo1":-89.7004,"lo2":-87.6739,"dy":0.0162,"dx":0.0183,"nx":112,"ny":82,"refTime":"2024-08-15T06:00:00:Z","depth":0,"parameterNumber":2,"parameterNumberName":"U-component_of_WINDS"},"data":[0.0,0.0,0.0,0.0,0.0,0.0,0.0,0.0,0.0,0.0,0.0,0.0,0.0,0.0,0.0,0.0,0.0,0.0,0.0,0.0,0.0,0.0,0.0,0.0,0.0,0.0,0.0,0.0,0.0,0.0,0.0,0.0,0.0,0.0,0.0,0.0,0.0,0.0,0.0,0.0,0.0,0.0,0.0,0.0,0.0,0.0,0.0,0.0,0.0,0.0,0.0,0.0,0.0,0.0,0.0,0.0,0.0,0.0,0.0,0.0,0.0,0.0,0.0,0.0,0.0,0.0,0.0,0.0,0.0,0.0,0.0,0.0,0.0,0.0,0.0,0.0,0.0,0.0,0.0,0.0,0.0,0.0,0.0,0.0,0.0,0.0,0.0,0.0,0.0,0.0,0.0,2.5755,2.8668,3.0744,3.1609,3.0021,2.7613,2.4398,0.0,0.0,0.0,0.0,0.0,0.0,0.0,0.0,0.0,0.0,0.0,0.0,0.0,0.0,0.0,0.0,0.0,0.0,0.0,0.0,0.0,0.0,0.0,0.0,0.0,0.0,0.0,0.0,0.0,0.0,0.0,0.0,0.0,0.0,0.0,0.0,0.0,0.0,0.0,0.0,0.0,0.0,0.0,0.0,0.0,0.0,0.0,0.0,0.0,0.0,0.0,0.0,0.0,0.0,0.0,0.0,0.0,0.0,0.0,0.0,0.0,0.0,0.0,0.0,0.0,0.0,0.0,0.0,0.0,0.0,0.0,0.0,0.0,0.0,0.0,0.0,0.0,0.0,0.0,0.0,0.0,0.0,0.0,0.0,0.0,0.0,0.0,0.0,0.0,0.0,0.0,0.0,0.0,0.0,0.0,0.0,0.0,0.0,0.0,0.0,0.0,0.0,0.0,0.0,2.284,2.8967,3.004,3.0662,3.1546,2.9402,2.716,2.5141,0.0,0.0,0.0,0.0,0.0,0.0,0.0,0.0,0.0,0.0,0.0,0.0,0.0,0.0,0.0,0.0,0.0,0.0,0.0,0.0,0.0,0.0,0.0,0.0,0.0,0.0,0.0,0.0,0.0,0.0,0.0,0.0,0.0,0.0,0.0,0.0,0.0,0.0,0.0,0.0,0.0,0.0,0.0,0.0,0.0,0.0,0.0,0.0,0.0,0.0,0.0,0.0,0.0,0.0,0.0,0.0,0.0,0.0,0.0,0.0,0.0,0.0,0.0,0.0,0.0,0.0,0.0,0.0,0.0,0.0,0.0,0.0,0.0,0.0,0.0,0.0,0.0,0.0,0.0,0.0,0.0,0.0,0.0,0.0,0.0,0.0,0.0,0.0,0.0,0.0,0.0,0.0,0.0,0.0,0.0,0.0,0.0,0.0,0.0,0.0,0.0,0.0,0.0,2.2293,2.5091,3.0525,3.0648,3.0694,3.1527,2.9267,2.6872,2.4681,2.0617,0.0,0.0,0.0,0.0,0.0,0.0,0.0,0.0,0.0,0.0,0.0,0.0,0.0,0.0,0.0,0.0,0.0,0.0,0.0,0.0,0.0,0.0,0.0,0.0,0.0,0.0,0.0,0.0,0.0,0.0,0.0,0.0,0.0,0.0,0.0,0.0,0.0,0.0,0.0,0.0,0.0,0.0,0.0,0.0,0.0,0.0,0.0,0.0,0.0,0.0,0.0,0.0,0.0,0.0,0.0,0.0,0.0,0.0,0.0,0.0,0.0,0.0,0.0,0.0,0.0,0.0,0.0,0.0,0.0,0.0,0.0,0.0,0.0,0.0,0.0,0.0,0.0,0.0,0.0,0.0,0.0,0.0,0.0,0.0,0.0,0.0,0.0,0.0,0.0,0.0,0.0,0.0,0.0,0.0,0.0,0.0,0.0,0.0,0.0,0.0,0.0,0.0,2.5409,2.7332,3.1006,3.0782,3.0636,3.1239,2.8768,2.6269,2.4136,1.9654,0.0,0.0,0.0,0.0,0.0,0.0,0.0,0.0,0.0,0.0,0.0,0.0,0.0,0.0,0.0,0.0,0.0,0.0,0.0,0.0,0.0,0.0,0.0,0.0,0.0,0.0,0.0,0.0,0.0,0.0,0.0,0.0,0.0,0.0,0.0,0.0,0.0,0.0,0.0,0.0,0.0,0.0,0.0,0.0,0.0,0.0,0.0,0.0,0.0,0.0,0.0,0.0,0.0,0.0,0.0,0.0,0.0,0.0,0.0,0.0,0.0,0.0,0.0,0.0,0.0,0.0,0.0,0.0,0.0,0.0,0.0,0.0,0.0,0.0,0.0,0.0,0.0,0.0,0.0,0.0,0.0,0.0,0.0,0.0,0.0,0.0,0.0,0.0,0.0,0.0,0.0,0.0,0.0,0.0,0.0,0.0,0.0,0.0,0.0,0.0,0.0,0.0,2.5755,2.8429,3.0294,3.0386,3.0323,3.0381,2.7313,2.4979,2.406,1.8508,0.0,0.0,0.0,0.0,0.0,0.0,0.0,0.0,0.0,0.0,0.0,0.0,0.0,0.0,0.0,0.0,0.0,0.0,0.0,0.0,0.0,0.0,0.0,0.0,0.0,0.0,0.0,0.0,0.0,0.0,0.0,0.0,0.0,0.0,0.0,0.0,0.0,0.0,0.0,0.0,0.0,0.0,0.0,0.0,0.0,0.0,0.0,0.0,0.0,0.0,0.0,0.0,0.0,0.0,0.0,0.0,0.0,0.0,0.0,0.0,0.0,0.0,0.0,0.0,0.0,0.0,0.0,0.0,0.0,0.0,0.0,0.0,0.0,0.0,0.0,0.0,0.0,0.0,0.0,0.0,0.0,0.0,0.0,0.0,0.0,0.0,0.0,0.0,0.0,0.0,0.0,0.0,0.0,0.0,0.0,0.0,0.0,0.0,0.0,0.0,0.0,0.0,2.4832,2.7351,0.0,3.0348,3.0292,3.0299,2.8114,2.5723,2.3271,0.0,0.0,0.0,0.0,0.0,0.0,0.0,0.0,0.0,0.0,0.0,0.0,0.0,0.0,0.0,0.0,0.0,0.0,0.0,0.0,0.0,0.0,0.0,0.0,0.0,0.0,0.0,0.0,0.0,0.0,0.0,0.0,0.0,0.0,0.0,0.0,0.0,0.0,0.0,0.0,0.0,0.0,0.0,0.0,0.0,0.0,0.0,0.0,0.0,0.0,0.0,0.0,0.0,0.0,0.0,0.0,0.0,0.0,0.0,0.0,0.0,0.0,0.0,0.0,0.0,0.0,0.0,0.0,0.0,0.0,0.0,0.0,0.0,0.0,0.0,0.0,0.0,0.0,0.0,0.0,0.0,0.0,0.0,0.0,0.0,0.0,0.0,0.0,0.0,0.0,0.0,0.0,0.0,0.0,0.0,0.0,0.0,0.0,0.0,0.0,0.0,0.0,2.2216,2.4755,2.7225,0.0,3.0336,3.0292,3.0292,2.8217,2.5685,2.2812,0.0,0.0,0.0,0.0,0.0,0.0,0.0,0.0,0.0,0.0,0.0,0.0,0.0,0.0,0.0,0.0,0.0,0.0,0.0,0.0,0.0,0.0,0.0,0.0,0.0,0.0,0.0,0.0,0.0,0.0,0.0,0.0,0.0,0.0,0.0,0.0,0.0,0.0,0.0,0.0,0.0,0.0,0.0,0.0,0.0,0.0,0.0,0.0,0.0,0.0,0.0,0.0,0.0,0.0,0.0,0.0,0.0,0.0,0.0,0.0,0.0,0.0,0.0,0.0,0.0,0.0,0.0,0.0,0.0,0.0,0.0,0.0,0.0,0.0,0.0,0.0,0.0,0.0,0.0,0.0,0.0,0.0,0.0,0.0,0.0,0.0,0.0,0.0,0.0,0.0,0.0,0.0,0.0,0.0,0.0,0.0,0.0,0.0,0.0,0.0,0.0,0.0,2.235,2.5793,2.8514,3.0143,3.0304,3.0292,3.0292,2.7175,2.45,0.0,0.0,0.0,0.0,0.0,0.0,0.0,0.0,0.0,0.0,0.0,0.0,0.0,0.0,0.0,0.0,0.0,0.0,0.0,0.0,0.0,0.0,0.0,0.0,0.0,0.0,0.0,0.0,0.0,0.0,0.0,0.0,0.0,0.0,0.0,0.0,0.0,0.0,0.0,0.0,0.0,0.0,0.0,0.0,0.0,0.0,0.0,0.0,0.0,0.0,0.0,0.0,0.0,0.0,0.0,0.0,0.0,0.0,0.0,0.0,0.0,0.0,0.0,0.0,0.0,0.0,0.0,0.0,0.0,0.0,0.0,0.0,0.0,0.0,0.0,0.0,0.0,0.0,0.0,0.0,0.0,0.0,0.0,0.0,0.0,0.0,0.0,0.0,0.0,0.0,0.0,0.0,0.0,0.0,0.0,0.0,0.0,0.0,0.0,0.0,0.0,0.0,0.0,2.235,2.5793,2.8514,3.0143,3.0299,3.0273,3.0234,2.8218,2.5719,2.2812,0.0,0.0,0.0,0.0,0.0,0.0,0.0,0.0,0.0,0.0,0.0,0.0,0.0,0.0,0.0,0.0,0.0,0.0,0.0,0.0,0.0,0.0,0.0,0.0,0.0,0.0,0.0,0.0,0.0,0.0,0.0,0.0,0.0,0.0,0.0,0.0,0.0,0.0,0.0,0.0,0.0,0.0,0.0,0.0,0.0,0.0,0.0,0.0,0.0,0.0,0.0,0.0,0.0,0.0,0.0,0.0,0.0,0.0,0.0,0.0,0.0,0.0,0.0,0.0,0.0,0.0,0.0,0.0,0.0,0.0,0.0,0.0,0.0,0.0,0.0,0.0,0.0,0.0,0.0,0.0,0.0,0.0,0.0,0.0,0.0,0.0,0.0,0.0,0.0,0.0,0.0,0.0,0.0,0.0,0.0,0.0,0.0,0.0,0.0,0.0,0.0,0.0,2.235,2.5764,2.8491,3.0138,3.0273,3.0234,3.0194,2.867,2.6536,2.3804,0.0,0.0,0.0,0.0,0.0,0.0,0.0,0.0,0.0,0.0,0.0,0.0,0.0,0.0,0.0,0.0,0.0,0.0,0.0,0.0,0.0,0.0,0.0,0.0,0.0,0.0,0.0,0.0,0.0,0.0,0.0,0.0,0.0,0.0,0.0,0.0,0.0,0.0,0.0,0.0,0.0,0.0,0.0,0.0,0.0,0.0,0.0,0.0,0.0,0.0,0.0,0.0,0.0,0.0,0.0,0.0,0.0,0.0,0.0,0.0,0.0,0.0,0.0,0.0,0.0,0.0,0.0,0.0,0.0,0.0,0.0,0.0,0.0,0.0,0.0,0.0,0.0,0.0,0.0,0.0,0.0,0.0,0.0,0.0,0.0,0.0,0.0,0.0,0.0,0.0,0.0,0.0,0.0,0.0,0.0,0.0,0.0,0.0,0.0,0.0,0.0,0.0,2.2466,2.5763,2.8437,3.012,3.0234,3.0194,3.0185,2.8733,2.7052,2.5306,0.0,0.0,0.0,0.0,0.0,0.0,0.0,0.0,0.0,0.0,0.0,0.0,0.0,0.0,0.0,0.0,0.0,0.0,0.0,0.0,0.0,0.0,0.0,0.0,0.0,0.0,0.0,0.0,0.0,0.0,0.0,0.0,0.0,0.0,0.0,0.0,0.0,0.0,0.0,0.0,0.0,0.0,0.0,0.0,0.0,0.0,0.0,0.0,0.0,0.0,0.0,0.0,0.0,0.0,0.0,0.0,0.0,0.0,0.0,0.0,2.4024,0.0,0.0,0.0,0.0,0.0,0.0,0.0,0.0,0.0,0.0,0.0,0.0,0.0,0.0,0.0,0.0,0.0,0.0,0.0,0.0,0.0,0.0,0.0,0.0,0.0,0.0,0.0,0.0,0.0,0.0,0.0,0.0,0.0,0.0,0.0,0.0,0.0,0.0,0.0,0.0,0.0,2.3217,2.6118,2.8437,3.012,3.0234,3.0194,3.0185,2.9249,2.7663,2.5344,0.0,0.0,0.0,0.0,0.0,0.0,0.0,0.0,0.0,0.0,0.0,0.0,0.0,0.0,0.0,0.0,0.0,0.0,0.0,0.0,0.0,0.0,0.0,0.0,0.0,0.0,0.0,0.0,0.0,0.0,0.0,0.0,0.0,0.0,0.0,0.0,0.0,0.0,0.0,0.0,0.0,0.0,0.0,0.0,0.0,0.0,0.0,0.0,0.0,0.0,0.0,0.0,0.0,0.0,0.0,0.0,0.0,0.0,0.0,0.0,0.0,2.7044,0.0,0.0,0.0,0.0,0.0,0.0,0.0,0.0,0.0,0.0,0.0,0.0,0.0,0.0,0.0,0.0,0.0,0.0,0.0,0.0,0.0,0.0,0.0,0.0,0.0,0.0,0.0,0.0,0.0,0.0,0.0,0.0,0.0,0.0,0.0,0.0,0.0,0.0,0.0,0.0,2.412,2.6814,2.8861,3.0132,3.0207,3.0199,3.0204,2.9402,2.8338,2.7052,2.4626,0.0,0.0,0.0,0.0,0.0,0.0,0.0,0.0,0.0,0.0,0.0,0.0,0.0,0.0,0.0,0.0,0.0,0.0,0.0,0.0,0.0,0.0,0.0,0.0,0.0,0.0,0.0,0.0,0.0,0.0,0.0,0.0,0.0,0.0,0.0,0.0,0.0,0.0,0.0,0.0,0.0,0.0,0.0,0.0,0.0,0.0,0.0,0.0,0.0,0.0,0.0,0.0,0.0,3.4255,3.5193,3.6396,3.6549,3.706,3.7629,3.485,3.3551,3.3064,0.0,0.0,0.0,0.0,0.0,0.0,0.0,0.0,0.0,0.0,0.0,0.0,0.0,0.0,0.0,0.0,0.0,0.0,0.0,0.0,0.0,0.0,0.0,0.0,0.0,3.1179,2.991,0.0,0.0,0.0,0.0,0.0,0.0,0.0,0.0,0.0,0.0,0.0,0.0,2.5271,2.7757,2.9532,3.0341,3.0428,3.0357,3.0204,2.9535,2.9063,2.8911,2.6294,2.4263,0.0,0.0,0.0,0.0,0.0,0.0,0.0,0.0,0.0,0.0,0.0,0.0,0.0,0.0,0.0,0.0,0.0,0.0,0.0,0.0,0.0,0.0,0.0,0.0,0.0,0.0,0.0,0.0,0.0,0.0,0.0,0.0,2.1541,2.1991,0.0,0.0,0.0,0.0,0.0,0.0,0.0,0.0,0.0,0.0,0.0,0.0,0.0,3.2781,3.4442,3.6728,3.7608,3.7182,4.0095,4.1225,4.0801,4.1548,4.197,4.2064,4.1623,0.0,3.5051,3.3678,0.0,0.0,0.0,0.0,0.0,0.0,0.0,0.0,0.0,0.0,0.0,0.0,0.0,0.0,0.0,0.0,0.0,0.0,0.0,0.0,0.0,0.0,3.4152,3.3795,3.4276,3.441,0.0,2.914,2.5543,2.3629,2.1466,0.0,0.0,0.0,0.0,0.0,0.0,0.0,2.6952,2.8938,3.036,3.1235,3.1341,3.1026,3.0261,3.0089,2.9707,2.8949,2.849,2.7224,2.4943,2.3193,0.0,0.0,0.0,0.0,0.0,0.0,0.0,0.0,0.0,0.0,0.0,0.0,0.0,0.0,0.0,0.0,0.0,0.0,0.0,0.0,0.0,0.0,0.0,0.0,0.0,0.0,0.0,0.0,0.0,2.1378,2.461,2.4162,2.5662,2.5497,0.0,0.0,0.0,0.0,0.0,0.0,0.0,0.0,0.0,3.5452,3.6028,3.7097,3.8778,4.0348,4.1189,4.1303,4.2776,4.3541,4.3694,4.4058,4.4269,4.4308,4.4269,4.2775,4.0216,3.7862,3.5767,3.3832,0.0,0.0,0.0,0.0,3.1352,3.1314,3.443,3.4564,0.0,3.3372,0.0,0.0,0.0,0.0,0.0,0.0,0.0,0.0,0.0,0.0,0.0,3.681,3.6988,3.693,3.7046,3.4545,3.1371,0.0,2.6736,2.5091,2.2333,0.0,0.0,0.0,0.0,0.0,2.9461,3.0863,3.1747,3.2129,3.1732,3.1293,3.0968,3.0472,3.0032,2.965,2.9159,2.8414,2.7319,2.5199,2.3129,0.0,0.0,0.0,0.0,0.0,0.0,0.0,0.0,0.0,0.0,0.0,0.0,0.0,0.0,0.0,0.0,0.0,0.0,0.0,0.0,0.0,0.0,0.0,0.0,0.0,0.0,0.0,0.0,2.4052,2.7071,2.623,2.8733,2.8943,0.0,0.0,0.0,0.0,0.0,0.0,3.4235,3.5133,3.6757,3.9221,3.9947,4.0941,4.2331,4.2999,4.3566,4.4091,4.4091,4.4478,4.5173,4.5173,4.5256,4.5359,4.5317,4.4975,4.425,4.1299,3.9493,3.8412,3.6968,3.5902,3.5353,3.6815,3.6699,3.6276,3.9662,3.9585,3.8046,3.8277,0.0,3.4141,3.2025,0.0,0.0,0.0,0.0,3.3526,3.5872,3.6469,3.7007,3.9104,3.9104,3.8815,3.9469,3.843,3.6295,0.0,3.1494,3.004,2.6869,0.0,0.0,0.0,0.0,2.9434,3.1551,3.2516,3.3032,3.3032,3.2458,3.1904,3.1522,3.0911,3.0433,3.0204,2.9593,2.9121,2.8911,2.6937,2.5072,2.3458,0.0,0.0,0.0,0.0,0.0,0.0,0.0,0.0,0.0,0.0,0.0,0.0,0.0,0.0,0.0,0.0,0.0,0.0,0.0,0.0,0.0,0.0,0.0,0.0,0.0,0.0,0.0,0.0,0.0,2.8815,3.2382,0.0,0.0,0.0,0.0,3.2386,3.4716,3.691,3.8591,3.9508,4.1132,4.3615,4.373,4.4045,4.4635,4.4668,4.4607,4.4382,4.4382,4.4535,4.4843,4.4843,4.5,4.5297,4.5297,4.5277,4.5107,4.3408,4.1775,4.0271,3.9435,3.8565,3.7911,3.8834,3.9604,4.0315,4.1373,4.1662,4.1681,4.2508,4.1046,3.8796,3.7834,3.6449,0.0,0.0,3.5872,3.6873,3.8642,3.9104,3.9335,4.0219,4.0412,4.0392,4.0431,3.9758,3.8623,0.0,3.4441,3.2705,3.2409,0.0,2.9985,2.995,3.0729,3.1628,3.2516,3.3394,3.3929,3.3929,3.3891,3.3223,3.1637,3.1465,3.1083,3.0242,3.0166,2.9765,2.893,2.8064,2.6784,2.5107,2.2633,0.0,0.0,0.0,0.0,0.0,0.0,0.0,0.0,0.0,0.0,0.0,0.0,0.0,0.0,0.0,0.0,0.0,0.0,0.0,0.0,0.0,0.0,0.0,0.0,0.0,0.0,0.0,0.0,3.2936,3.6241,0.0,3.3757,3.5725,3.7082,3.6776,3.8591,4.0444,4.2144,4.2526,4.3348,4.4781,4.4838,4.493,4.5109,4.5109,4.5087,4.4976,4.4976,4.5042,4.5109,4.491,4.4981,4.5297,4.5068,4.5109,4.526,4.4728,4.4174,4.3618,4.3347,4.2748,4.2168,4.3028,4.3181,4.3066,4.3932,4.3874,4.3374,4.3162,4.2489,4.1681,4.1373,4.0854,4.0392,4.0392,4.0604,4.0969,4.1585,4.1335,4.0989,4.1277,4.0912,4.0489,4.0489,4.0258,3.9892,3.9265,3.7506,3.5763,3.4606,3.3906,3.3321,3.2718,3.2909,3.341,3.4216,3.4579,3.477,3.477,3.4312,3.3757,3.3165,3.2076,3.1083,3.0242,2.9669,2.9,2.816,2.7319,2.6615,2.611,2.4177,2.196,0.0,0.0,0.0,0.0,0.0,0.0,0.0,0.0,0.0,0.0,0.0,0.0,0.0,0.0,0.0,0.0,0.0,0.0,0.0,0.0,0.0,0.0,0.0,0.0,0.0,0.0,3.5439,3.5974,3.9069,4.0043,3.7196,3.9202,4.0692,4.0692,4.1991,4.3271,4.438,4.4437,4.4643,4.5132,4.5132,4.5042,4.4857,4.4857,4.4789,4.4695,4.4808,4.4905,4.4976,4.4843,4.4981,4.5297,4.5087,4.5087,4.5297,4.5338,4.5378,4.5359,4.54,4.5093,4.4747,4.5339,4.5203,4.4799,4.5393,4.522,4.4643,4.4124,4.3932,4.3893,4.3585,4.3508,4.3451,4.3181,4.3104,4.3104,4.3104,4.2662,4.2239,4.2239,4.1566,4.0931,4.0931,4.0719,4.0495,4.0502,3.9314,3.7939,3.6779,3.6326,3.5911,3.5337,3.5245,3.5343,3.5611,3.5649,3.5534,3.5229,3.4713,3.4292,3.4006,3.2669,3.1503,3.0682,2.9582,2.8696,2.816,2.7044,2.6477,2.6564,2.4945,2.3345,2.1775,0.0,0.0,0.0,0.0,0.0,0.0,0.0,0.0,0.0,0.0,0.0,0.0,0.0,0.0,0.0,0.0,0.0,0.0,0.0,0.0,0.0,0.0,0.0,3.1675,3.5229,3.7846,3.7884,4.0845,4.224,4.0616,4.2641,4.4055,4.4055,4.4819,4.5297,4.5335,4.5335,4.5189,4.4895,4.487,4.4595,4.411,4.4079,4.3902,4.3587,4.3934,4.4226,4.4486,4.4751,4.5033,4.5373,4.5354,4.5335,4.5335,4.5297,4.5297,4.5317,4.5361,4.54,4.54,4.5457,4.5495,4.5513,4.5568,4.5586,4.5586,4.5586,4.5586,4.5432,4.4605,4.4335,4.4182,4.3393,4.3181,4.3181,4.3181,4.3162,4.3143,4.3143,4.247,4.1854,4.1854,4.1168,4.054,4.054,3.9778,3.9133,3.9138,3.8359,3.7731,3.7731,3.7712,0.0,3.6642,3.6547,3.6203,3.5343,3.5248,3.4923,3.4117,3.3223,3.2344,3.1518,2.9896,2.8936,2.8917,2.7374,2.651,2.6549,2.4983,2.4244,2.4374,0.0,0.0,0.0,0.0,0.0,0.0,0.0,0.0,0.0,0.0,0.0,0.0,0.0,0.0,0.0,0.0,0.0,0.0,0.0,0.0,0.0,0.0,3.5974,3.5993,3.8572,4.0903,4.2125,4.3654,4.4418,4.3959,4.4532,4.4934,4.4934,4.5163,4.5545,4.6137,4.5978,4.6101,4.6594,4.6382,4.6167,4.6038,4.6038,4.5978,4.5867,4.5978,4.6068,4.6138,4.6271,4.6482,4.6719,4.6136,4.5982,4.6118,4.5545,4.5297,4.5317,4.536,4.5399,4.54,4.5419,4.5476,4.5495,4.5513,4.5568,4.5586,4.5586,4.5586,4.5547,4.5316,4.524,4.5201,4.497,4.4913,4.4913,4.4913,4.4432,4.397,4.397,4.3335,4.2739,4.2739,4.205,4.1437,4.1389,4.0645,4.0034,3.998,3.9238,3.8648,3.8648,3.8094,0.0,3.7406,3.7368,3.7043,3.6241,3.6146,3.5835,3.5085,3.3647,3.2179,3.0787,2.9135,2.7913,2.7296,2.6815,2.6891,2.7563,2.6629,2.6146,0.0,0.0,0.0,0.0,0.0,0.0,0.0,0.0,0.0,0.0,0.0,0.0,0.0,0.0,0.0,0.0,0.0,0.0,0.0,0.0,0.0,0.0,3.7865,3.9947,4.0291,4.1609,4.3042,4.4399,4.4991,4.5297,4.5297,4.5602,4.5793,4.5793,4.6137,4.6495,4.682,4.6695,4.6698,4.692,4.6712,4.6576,4.6429,4.6429,4.6429,4.6429,4.6576,4.67,4.6832,4.6996,4.7216,0.0,4.702,4.69,4.6978,4.6156,4.5793,0.0,0.0,0.0,0.0,0.0,4.5419,4.5457,4.5495,4.5532,4.5568,4.5586,4.5586,4.5586,4.5586,4.5586,4.5586,4.5586,4.5586,4.5586,4.5586,4.522,4.4836,4.4836,4.4201,4.3605,4.3605,4.2948,4.222,4.179,4.1327,0.0,4.0468,3.9924,3.9546,3.9546,3.9141,3.8697,3.8353,3.8345,3.8051,3.726,3.6842,3.6449,3.6021,3.4424,0.0,0.0,0.0,2.9032,2.7776,2.8085,0.0,0.0,0.0,0.0,0.0,0.0,0.0,0.0,2.8008,2.8564,0.0,0.0,0.0,0.0,0.0,0.0,0.0,0.0,0.0,0.0,0.0,0.0,0.0,0.0,0.0,0.0,4.1342,4.3214,4.4036,4.415,4.4437,4.5201,4.5297,4.5335,4.543,4.608,4.6538,4.6653,4.736,4.7705,4.7524,0.0,0.0,0.0,0.0,4.648,4.6159,4.6177,4.6177,4.6159,4.6496,4.681,4.7132,4.7446,4.7751,4.8022,4.7968,4.7952,4.7895,4.7016,4.6596,4.6424,4.5602,4.5297,4.5317,4.5378,4.54,4.5419,4.5476,0.0,0.0,4.5586,4.5586,4.5586,4.5586,4.5586,4.5586,4.5586,4.5603,4.562,4.562,4.5637,4.5635,4.5635,4.5038,4.4479,4.4482,4.384,4.3027,4.2165,4.2033,4.175,4.0808,4.0471,4.0328,4.0328,4.0394,4.0153,3.9458,3.9413,3.9154,3.8325,0.0,0.0,3.6967,3.5423,3.4419,3.4334,3.2813,3.1233,2.9663,3.0447,3.095,3.1047,3.1812,3.271,3.372,3.4489,3.4932,3.4943,3.1811,3.2023,0.0,0.0,0.0,0.0,0.0,0.0,0.0,0.0,0.0,0.0,0.0,0.0,0.0,0.0,0.0,4.0692,4.2565,4.4074,4.4934,4.5048,4.5105,4.5277,4.5297,4.5545,4.6194,4.6405,4.6787,4.7513,4.7704,4.8082,4.8724,4.8237,0.0,4.8721,4.8213,4.7904,4.7847,4.7847,4.7847,4.7847,0.0,0.0,4.8435,4.906,4.9356,4.9397,4.9005,4.885,4.8774,4.7914,4.7131,4.6424,4.5602,4.5297,4.5297,4.5317,4.5341,4.54,4.5419,4.5495,4.5586,4.5605,4.5586,4.5586,4.5586,4.5586,0.0,4.5586,4.5684,4.5757,4.5757,4.5796,4.5832,4.5832,4.5716,4.5588,4.5596,4.4905,4.4234,4.4008,4.341,4.2657,4.1784,4.1027,4.0549,4.0549,4.0545,4.0501,4.0347,4.0342,4.0009,3.9174,3.8909,3.8582,3.799,3.6383,3.5156,3.4495,3.2901,3.1833,3.1491,3.2307,3.3083,3.3724,3.3907,3.4781,3.6362,3.6526,3.6981,3.7638,3.6323,3.6091,0.0,0.0,0.0,0.0,0.0,0.0,0.0,0.0,0.0,0.0,0.0,3.6241,0.0,0.0,4.159,4.3654,4.4704,4.5564,4.6424,4.6175,4.5755,4.5354,4.566,4.6061,4.6462,4.7283,4.7971,4.8411,4.8831,4.9096,4.9205,4.9041,4.8889,4.8813,4.8658,4.8458,4.8306,4.8306,4.8306,4.8306,4.8658,4.89,4.908,4.957,4.9884,5.0032,4.9797,4.9691,4.9633,4.8793,4.7933,4.7073,4.6233,4.564,4.5297,4.5297,4.5319,4.5361,4.5381,4.5438,4.5513,4.5586,4.5586,4.5603,4.5684,4.57,4.5696,4.5747,4.5796,4.5847,4.5847,4.5875,4.5899,4.5899,4.5897,4.5914,4.5898,4.5556,4.5105,4.4592,4.4221,4.3698,4.2763,4.1938,4.1221,4.0693,4.0662,4.0707,4.0707,4.0738,4.0568,4.0142,3.9735,3.9351,3.8986,3.7783,3.6871,3.6479,3.5663,3.5002,3.4575,3.5391,3.5838,3.5799,3.6226,3.6887,3.7741,3.8188,3.8624,3.9058,3.9526,3.9544,0.0,0.0,0.0,0.0,0.0,0.0,0.0,0.0,3.4101,3.7521,3.8858,4.0043,4.2087,4.3176,4.4437,4.6443,4.6748,4.6997,4.7704,4.7054,4.6271,4.5602,4.6118,4.6577,4.6748,4.8181,4.9156,4.9308,4.992,5.0051,4.9512,4.9702,4.9424,4.8623,4.8711,4.8694,4.8402,4.8402,4.8402,4.8402,4.8816,4.9145,4.9424,4.973,5.0051,5.0302,5.0302,5.0302,5.0245,4.9595,4.8831,4.799,4.7283,4.6405,4.5507,4.5354,4.5317,4.5338,4.538,4.5419,4.5457,4.5584,4.5635,4.5684,4.5794,4.5822,4.5829,4.5878,4.591,4.592,4.593,4.594,4.5969,4.5969,4.5959,4.5956,4.5933,4.5941,4.5704,4.4937,4.4928,4.4732,4.3753,4.31,4.2304,4.1087,4.0854,4.0823,4.0823,4.0868,4.0907,4.0907,4.0325,3.9878,3.9703,3.9062,3.8576,3.8402,3.8402,3.8091,3.7372,3.8033,3.8149,3.7625,3.8285,3.8732,3.8887,3.9761,4.0187,4.0221,4.1796,4.2062,2.7225,2.8732,0.0,3.3566,3.3394,3.4407,0.0,0.0,4.0272,4.3615,4.4953,4.5602,4.5889,4.6653,4.7341,4.7627,4.7665,4.7704,4.7799,4.7054,4.6481,4.6385,4.6462,4.6806,4.7589,4.8525,4.9385,5.0111,5.0245,5.0278,5.0169,4.9955,4.973,4.9646,4.908,4.8781,4.8746,4.8746,4.8746,4.8746,4.9394,4.9702,4.9757,5.0076,5.0259,5.0302,5.0302,5.0302,5.0283,5.0206,4.9691,4.8926,4.885,4.7799,4.629,4.5564,4.5338,4.5398,4.5399,4.5476,4.5596,4.5658,4.578,4.5873,4.5886,4.5878,4.5889,4.5899,4.594,4.5996,4.6057,4.6112,4.6176,4.6176,4.617,4.6151,4.6102,4.6084,4.6027,4.585,4.585,4.5608,4.4762,4.4559,4.3938,4.2267,4.1374,4.0898,4.0898,4.0898,4.0907,4.0907,4.083,4.048,3.9761,3.9606,3.9217,3.8441,3.8402,3.8363,3.8266,3.8343,3.8712,3.9412,3.9509,3.9917,4.0616,4.149,4.1927,4.1946,4.2918,4.2925,3.2887,0.0,0.0,0.0,3.8381,3.9642,4.3634,4.3463,4.3271,4.6156,4.6615,4.65,4.65,4.6806,4.7207,0.0,4.8239,4.8716,4.9194,4.8105,4.7264,4.7264,4.6806,4.6844,4.7723,4.8582,4.9423,5.0245,5.0302,5.0212,5.0025,5.0051,4.991,4.9512,4.9424,4.9302,4.908,4.908,4.908,4.9113,4.957,4.9803,4.983,5.0144,5.0302,5.0302,5.0302,5.0302,5.0302,5.0302,5.0092,4.9748,4.927,4.864,4.7857,4.65,4.5719,4.5359,4.5477,4.555,4.5618,4.5723,4.5794,4.5848,4.5936,4.5958,4.5978,4.6054,4.608,4.6115,4.6157,4.619,4.6203,4.6203,4.6164,4.6123,4.6102,4.6075,4.6027,4.6007,4.5997,4.588,4.555,4.5103,4.454,4.3821,4.2966,4.2228,4.1723,4.1665,4.1451,4.0946,4.0907,4.0752,4.0422,4.0402,4.0247,3.9878,3.9839,3.9839,3.9839,3.9839,4.0033,4.0383,4.0402,4.081,4.1665,4.2015,4.2461,4.2986,4.386,4.4073,3.5904,0.0,0.0,4.0559,4.2259,4.3768,4.4819,4.5067,4.5583,4.7436,4.7302,4.6863,4.6863,4.6863,0.0,4.8028,4.8697,4.9366,5.0187,4.8869,4.7799,4.7799,4.6825,4.65,4.736,4.8449,4.9423,5.0245,5.0302,5.0307,5.0297,5.0531,5.0533,5.0279,5.0411,5.0383,5.0131,5.0131,5.0018,4.9792,5.0117,5.0183,4.9955,5.0188,5.0302,5.0302,5.0302,5.0302,5.0302,5.0302,5.0302,5.0245,4.9652,4.9289,4.893,4.7442,4.6392,4.5686,4.5609,4.562,4.5684,4.5814,4.5848,4.5898,4.6017,4.6066,4.6075,4.6162,4.6189,4.6181,4.6196,4.6189,4.6162,4.6162,4.6138,4.6093,4.6075,4.6027,4.5997,4.5997,4.5997,4.5997,4.5997,4.5511,4.5133,4.5162,4.4627,4.3811,4.2704,4.2558,4.2209,4.1354,4.1257,4.116,4.0927,4.0907,4.0907,4.0907,4.0907,4.0907,4.0907,4.1121,4.1257,4.1257,4.149,4.1937,4.2558,4.2792,4.3238,4.3879,4.4734,4.5133,0.0,0.0,4.0635,4.2297,4.3978,4.566,4.7322,4.7685,4.7723,4.778,4.778,4.7761,4.7761,4.7761,4.8048,4.8907,4.9079,4.9366,5.0187,4.8869,4.7799,4.7799,4.6347,4.564,0.0,4.8086,4.9423,5.0245,5.0302,5.0665,5.1501,5.1563,5.1926,5.2665,5.2395,5.221,5.221,5.221,5.1831,5.1054,5.1377,5.11,5.0278,5.0302,5.0302,5.0302,5.0302,5.0302,5.0302,5.0302,5.0302,5.0302,5.0264,4.9786,4.9006,4.8238,4.7396,4.6551,4.5764,4.5684,4.5887,4.5891,4.5968,4.6102,4.6162,4.6196,4.6196,4.6196,4.6154,4.613,4.6189,4.6146,4.6102,4.6102,4.6093,4.6084,4.6017,4.5997,4.5997,4.5997,4.5997,4.5997,4.5997,4.5977,4.5998,4.6045,4.604,4.5406,4.3676,4.3471,4.3122,4.2248,4.2151,4.182,4.0966,4.0907,4.0907,4.0907,4.0907,4.0907,4.0907,4.1704,4.2151,4.2151,4.2986,4.3433,4.3471,4.4307,4.4734,4.4773,4.5589,4.5988,0.0,0.0,4.2878,4.3931,4.5451,4.6863,4.7529,4.7686,4.7686,4.7777,4.692,4.6137,4.6137,4.6137,4.6405,4.7245,4.8353,4.9366,5.0187,4.9347,4.8449,4.7876,4.7302,0.0,0.0,0.0,0.0,4.9404,4.95,5.0111,5.1525,5.1601,5.1964,5.2766,5.2692,5.2641,5.2641,5.2641,5.2507,5.2222,5.1801,5.1448,5.1142,5.0569,5.0302,5.0302,5.0302,5.0302,5.0302,5.0302,5.0302,5.0302,5.0302,5.0179,4.9925,4.9143,4.843,4.7635,4.6244,4.5819,4.5919,4.5944,4.6007,4.6027,4.6066,4.6075,4.6075,4.6075,4.6037,4.6027,4.6066,4.6037,4.6027,4.6027,4.6027,4.6027,4.6007,4.5997,4.5997,4.5997,4.5997,4.6008,4.6072,4.608,4.6091,4.6153,4.5675,4.5085,4.4499,4.3914,4.3451,4.3158,4.3139,4.3002,4.271,4.269,4.269,4.269,4.269,4.269,4.269,4.2963,4.3117,4.3062,4.3354,4.377,4.4365,4.4664,4.5106,4.5671,4.5995,4.6147,0.0,4.2946,4.4136,4.5878,4.6853,4.7517,4.7933,4.7781,4.7324,4.6546,4.5519,4.4489,4.3613,4.348,4.4074,4.5793,4.6997,4.8334,5.0054,4.9614,4.8888,4.8334,4.8258,4.8258,0.0,0.0,0.0,4.9423,4.9824,5.0588,5.1964,5.2327,5.2881,5.3702,5.3722,5.3722,5.3722,5.3722,5.3569,5.3244,5.2422,5.1888,5.1582,5.1028,5.0588,5.0302,5.0302,5.0302,5.0302,5.0302,5.0302,5.0302,5.0352,5.0421,5.0411,4.9701,4.9203,4.8623,4.6919,4.6151,4.5949,4.5986,4.5997,4.5997,4.5997,4.5997,4.5997,4.5997,4.5997,4.5997,4.5997,4.5997,4.5997,4.5997,4.6008,4.6036,4.6036,4.6044,4.6068,4.6068,4.6068,4.6084,4.6131,4.6133,4.6156,4.6198,4.5737,4.5385,4.5366,4.4878,4.4413,4.41,4.4061,4.3944,4.3632,4.3593,4.3593,4.3593,4.3593,4.3593,4.3593,4.3905,4.4048,4.3997,4.4304,4.4734,4.5309,4.53,4.5591,4.6137,4.6171,4.6209,4.32,4.3847,4.4649,4.7941,4.8099,4.7669,4.8517,4.7935,4.6537,4.4246,4.3621,4.2743,0.0,0.0,4.1342,4.4532,4.5258,4.6538,4.9786,4.9652,4.9213,0.0,0.0,0.0,0.0,0.0,0.0,5.0378,0.0,5.1926,5.2824,5.3645,5.4505,5.5365,5.5403,5.5403,5.5403,5.5403,5.4982,5.4161,5.3282,5.2442,5.1658,5.162,5.1123,5.0302,5.0302,5.0302,5.0302,5.0302,5.0302,5.0306,5.0464,5.0507,5.0471,4.9946,4.9746,4.9475,4.7785,4.6686,4.6055,4.6016,4.5997,4.5997,4.5997,4.5997,4.5997,4.5997,4.5997,4.5997,4.5997,4.5997,4.5997,4.6007,4.6044,4.6098,4.6105,4.6153,4.6202,4.6202,4.6206,4.6206,4.6206,4.6207,4.6211,4.6211,4.6261,4.628,4.6215,4.6209,4.5896,4.5057,4.4959,4.465,4.3813,4.3735,4.3735,4.3735,4.3735,4.3735,4.3735,4.4533,4.4979,4.4979,4.5776,4.6206,4.6202,4.6206,4.6206,4.6206,4.6206,4.6209,4.4104,4.5861,4.738,4.8174,4.8173,4.7938,4.7681,4.598,4.3983,4.2231,4.0437,3.8613,3.6728,0.0,0.0,4.1437,4.4723,0.0,4.9194,5.0302,0.0,0.0,0.0,5.162,5.1028,5.1505,0.0,0.0,5.1219,5.1544,5.3664,5.397,5.4505,5.5365,5.5403,5.5403,5.5403,5.5403,5.5288,5.5059,5.4199,5.332,5.2461,5.1868,5.1123,5.0302,5.0302,5.0302,5.0302,5.0302,5.0352,5.0445,5.0486,5.0644,5.0855,5.0704,5.0325,4.9691,4.8604,4.7664,4.6851,4.621,4.5997,4.5997,4.5997,4.5997,4.5997,4.5997,4.5997,4.5997,4.5997,4.5997,4.5998,4.6052,4.6084,4.6112,4.6158,4.6195,4.6202,4.6202,4.6202,4.6209,4.6209,4.6247,4.6273,4.6273,4.6287,4.6287,4.6282,4.6262,4.6184,4.5969,4.593,4.5852,4.5636,4.5616,4.5616,4.5616,4.5616,4.5616,4.5616,4.5813,4.5916,4.5877,4.6092,4.6204,4.6202,4.6204,4.6209,4.6209,4.6248,4.6262,4.5969,4.7443,4.8409,4.8381,4.806,4.7194,4.5098,4.3158,4.0981,3.8038,3.6331,0.0,0.0,0.0,0.0,0.0,0.0,0.0,4.8812,5.055,5.1429,0.0,5.2346,0.0,5.2747,5.311,5.3531,0.0,5.2679,5.252,5.4027,5.4377,5.4816,5.5384,5.5403,5.5403,5.5403,5.5403,5.5403,5.5403,5.4906,5.4218,5.3339,5.2518,5.1677,5.0856,0.0,5.0302,5.0302,5.0374,5.0442,5.0507,5.0663,5.0822,5.102,5.1062,5.0823,5.0348,4.9473,4.8599,4.7667,4.6404,4.5997,4.5997,4.5997,4.5997,4.5997,4.5997,4.5997,4.5997,4.5997,4.6018,4.6044,4.6091,4.6123,4.6144,4.62,4.6228,4.6249,4.6249,4.6249,4.6245,4.6245,4.6222,4.6211,4.6211,4.615,4.6112,4.6112,4.6176,4.6211,4.6211,4.6211,4.624,4.63,4.63,4.63,4.63,4.63,4.63,4.63,4.63,4.627,4.6245,4.6245,4.6248,4.6249,4.6248,4.6245,4.6245,4.627,4.63,4.787,4.8502,4.857,4.8567,4.7775,4.6048,4.2291,4.0302,3.7961,3.3483,0.0,0.0,2.9825,0.0,3.4846,3.7999,0.0,4.5029,4.8449,5.0474,5.1639,5.1754,5.3219,5.4231,5.4276,5.4231,5.4556,5.5301,5.4539,5.4093,5.4276,5.4795,5.5168,5.5358,5.5358,5.5358,5.5403,5.5358,5.5358,5.5403,5.5403,5.4944,5.4065,5.3206,5.2365,5.1563,0.0,0.0,5.0329,5.0466,5.0547,5.0587,5.089,5.102,5.1048,5.1146,5.1202,5.1086,5.0192,4.9318,4.8327,4.6696,4.6094,4.5997,4.5997,4.5997,4.5997,4.5997,4.6007,4.5998,4.5998,4.6052,4.6118,4.6105,4.6153,4.6191,4.621,4.6239,4.6273,4.6245,4.6245,4.6245,4.6245,4.6144,4.6064,4.6064,4.5959,4.5899,4.5878,4.5987,4.6064,4.6064,4.6064,4.6112,4.624,4.6245,4.6245,4.6245,4.6249,4.6273,4.6273,4.6296,4.63,4.63,4.63,4.63,4.63,4.63,4.63,4.63,4.63,4.63,4.751,4.8521,4.9296,4.8607,4.7259,4.5455,4.2825,3.9378,0.0,0.0,0.0,2.8935,2.7238,3.0223,0.0,3.5534,0.0,0.0,0.0,0.0,5.1849,0.0,0.0,0.0,0.0,0.0,0.0,0.0,0.0,5.4867,5.5148,5.5138,5.514,5.514,5.5168,5.5241,5.5403,5.5241,5.5241,5.5403,5.5403,5.4944,5.4065,5.3206,5.2365,5.1563,5.0804,0.0,5.0466,5.0625,5.0769,5.0925,5.0971,5.1062,5.1178,5.119,5.1202,5.1086,5.0192,4.9318,4.8425,4.7414,4.6599,4.5997,4.5997,4.5997,4.5997,4.5997,4.6046,4.6076,4.6076,4.6131,4.6183,4.6184,4.619,4.621,4.6276,4.6201,4.6098,4.5996,4.5978,4.5978,4.5978,4.594,4.593,4.593,4.591,4.5886,4.5815,4.5894,4.593,4.593,4.593,4.594,4.5978,4.5978,4.5978,4.5978,4.6064,4.6138,4.6138,4.624,4.63,4.63,4.63,4.63,4.63,4.63,4.63,4.63,4.6292,4.6308,4.7897,4.8681,4.9,4.8113,4.6951,4.4745,3.9705,0.0,0.0,0.0,0.0,2.6792,2.5979,0.0,0.0,0.0,0.0,0.0,0.0,0.0,0.0,0.0,0.0,0.0,0.0,0.0,0.0,0.0,0.0,5.496,5.5123,5.5047,5.5,5.5,5.5,5.5047,5.5151,5.5047,5.5085,5.5241,5.5241,5.4828,5.4065,5.3206,5.2394,5.1644,5.0849,0.0,5.0625,5.0786,5.0921,5.102,5.1075,5.1146,5.1202,5.1202,5.1202,5.1144,5.0717,4.9707,4.8533,4.8156,4.7116,4.5997,4.5997,4.6018,4.6044,4.6044,4.6098,4.6153,4.6153,4.6183,4.6207,4.6191,4.6165,4.6156,4.6192,4.6091,4.5978,4.591,4.5899,4.5899,4.5899,4.5875,4.5847,4.5847,4.5783,4.5733,4.5696,4.5703,4.5769,4.5835,4.5847,4.5852,4.5899,4.5899,4.5899,4.5899,4.5969,4.5996,4.5996,4.6057,4.6098,4.6098,4.6098,4.6098,4.6098,4.6098,4.6091,4.6096,4.6088,4.6103,4.7881,4.8414,4.8332,4.7416,4.629,4.3658,3.6881,3.4253,0.0,0.0,0.0,2.5406,2.5406,0.0,0.0,0.0,0.0,0.0,0.0,0.0,0.0,0.0,0.0,0.0,0.0,0.0,0.0,0.0,0.0,0.0,5.4822,5.4871,5.4871,5.4822,5.4822,5.4871,5.4901,5.4871,5.4922,5.5094,5.5094,5.4764,5.4096,5.326,5.2491,5.1817,5.0971,0.0,0.0,5.0971,5.1048,5.1048,5.1146,5.1202,5.1202,5.1202,5.1194,5.1197,5.1197,5.0072,4.8623,4.867,4.749,4.6018,4.6036,4.6076,4.6125,4.6125,4.6162,4.6195,4.6195,4.6208,4.6209,4.6187,4.6147,4.6091,4.6052,4.5949,4.5875,4.5832,4.5789,4.5744,4.5744,4.566,4.5591,4.5591,4.551,4.5419,4.5419,4.5419,4.5475,4.5574,4.5692,4.5747,4.5751,4.5808,4.584,4.584,4.5856,4.5886,4.5886,4.5889,4.5899,4.5899,4.5899,4.5899,4.5889,4.5889,4.5897,4.5883,4.5883,4.5917,4.6325,4.712,4.75,4.662,4.4657,4.1791,3.7455,0.0,0.0,0.0,2.5898,2.5406,2.5406,2.6168,0.0,0.0,0.0,0.0,0.0,0.0,0.0,0.0,0.0,0.0,0.0,0.0,0.0,0.0,0.0,0.0,5.4629,5.4791,5.4822,5.4629,5.4629,5.4711,5.4901,5.4711,5.4784,5.5094,5.5094,5.4797,5.4246,5.3382,5.2624,5.1951,5.1241,0.0,0.0,5.1134,5.119,5.119,5.1202,5.1202,5.1202,5.1202,5.119,5.1206,5.1206,5.0108,4.8688,4.8693,4.7513,4.6105,4.6158,4.6195,4.6199,4.6199,4.62,4.6191,4.6191,4.6246,4.6257,4.6131,4.6112,4.6041,4.5873,4.5822,4.5766,4.5651,4.5419,4.5245,4.5245,4.5055,4.4877,4.4877,4.4872,4.4872,4.4872,4.4872,4.4872,4.4896,4.5323,4.5512,4.5284,4.5493,4.5618,4.5618,4.5742,4.5808,4.5808,4.5863,4.5899,4.5899,4.5899,4.5908,4.5906,4.5906,4.5863,4.582,4.5803,4.5809,4.5213,4.632,4.6851,4.6477,4.45,4.1437,3.6755,0.0,0.0,2.6715,2.5727,2.5524,2.5524,2.5788,2.692,0.0,3.0584,3.2891,0.0,0.0,0.0,0.0,0.0,0.0,0.0,0.0,0.0,0.0,0.0,0.0,5.4472,5.4557,5.4538,5.4472,5.4472,5.4505,5.459,5.4704,5.4895,5.5119,5.4765,5.4284,5.3667,5.2801,5.2028,5.1373,5.1126,0.0,0.0,5.119,5.1202,5.1202,5.1201,5.1201,5.1191,5.125,5.1265,5.1269,5.1269,5.0147,4.8704,4.874,4.7588,4.6173,4.6186,4.6198,4.6207,4.6207,4.623,4.6258,4.6258,4.6218,4.6144,4.6005,4.5828,4.5659,4.5565,4.536,4.5185,4.514,4.503,4.4962,4.4962,4.4872,4.48,4.48,4.48,4.48,4.48,4.48,4.4726,4.4572,4.4896,4.5074,4.4985,4.5052,4.5118,4.5118,4.5323,4.5436,4.5436,4.5607,4.5718,4.5718,4.5718,4.5718,4.5708,4.5673,4.5623,4.5555,4.5563,4.5577,4.3847,4.5226,4.5818,4.5795,4.3733,4.0492,0.0,0.0,2.9883,2.6265,2.5577,2.5601,2.5601,2.5601,2.6236,2.815,2.8614,3.0577,3.577,0.0,0.0,0.0,0.0,0.0,0.0,0.0,0.0,0.0,0.0,0.0,0.0,5.4629,5.4565,5.4409,5.4472,5.4538,5.4538,5.4817,5.5072,5.5212,5.4565,5.3935,5.3298,5.2449,5.1702,5.1062,0.0,0.0,0.0,5.1202,5.1206,5.12,5.1198,5.1218,5.1245,5.1284,5.1304,5.1333,5.1333,5.0361,4.9079,4.8867,4.7811,4.6561,4.6307,4.623,4.6228,4.6228,4.6234,4.624,4.624,4.6144,4.6005,4.5897,4.5621,4.5395,4.5341,4.5061,4.48,4.48,4.4726,4.465,4.458,4.4501,4.4419,4.4346,4.4318,4.4318,4.4318,4.4318,4.4233,4.4065,4.428,4.4501,4.4676,4.4751,4.48,4.48,4.4985,4.5074,4.5074,4.5243,4.5342,4.5342,4.5303,4.5342,4.54,4.5342,4.5341,4.538,4.5379,4.54,4.2059,4.3613,4.4263,4.438,4.1866,3.8446,0.0,3.1729,2.862,2.6113,2.5601,2.5601,2.5601,2.5601,2.5892,2.6786,2.882,3.1579,3.5291,0.0,0.0,0.0,0.0,0.0,0.0,0.0,0.0,0.0,0.0,0.0,0.0,5.5193,5.4943,5.4424,5.4661,5.4806,5.4806,5.508,5.5306,5.5485,5.4622,5.3933,5.3365,5.2572,5.1833,0.0,0.0,0.0,0.0,5.1202,5.119,5.1203,5.1203,5.1245,5.1297,5.1297,5.1338,5.1406,5.1406,5.0814,4.995,4.9072,4.8252,4.7412,4.6554,4.63,4.63,4.63,4.6211,4.6098,4.6098,4.5996,4.5897,4.5822,4.5603,4.5359,4.5244,4.5007,4.48,4.48,4.4599,4.4327,4.4058,4.3804,4.3529,4.3268,4.3196,4.3196,4.3196,4.3196,4.3214,4.3196,4.3461,4.3823,4.4355,4.465,4.48,4.48,4.48,4.48,4.48,4.4726,4.4701,4.4701,4.465,4.4726,4.4915,4.4915,4.5026,4.5297,4.5297,4.5297,3.6512,3.8007,3.8931,3.8383,3.6652,3.4472,3.2232,3.0023,2.7925,2.6003,2.5601,2.5601,2.5601,2.5601,2.6644,2.9807,3.0912,0.0,0.0,0.0,0.0,0.0,0.0,0.0,0.0,0.0,0.0,0.0,0.0,0.0,0.0,5.5193,5.5115,5.4943,5.5026,5.5061,5.5061,5.479,5.4701,5.4722,5.3548,5.2887,5.269,5.1884,0.0,0.0,0.0,0.0,0.0,5.1211,5.1198,5.1211,5.1297,5.1359,5.1365,5.1366,5.1379,5.1391,5.1391,5.0839,4.9942,4.9034,4.8158,4.7275,4.6329,4.6091,4.6144,4.6049,4.5996,4.5959,4.5914,4.5866,4.5756,4.5472,4.5185,4.4928,4.4707,4.4438,4.4192,4.4023,4.3899,4.3791,4.3493,4.3373,4.3304,4.3196,4.3214,4.3214,4.3214,4.3214,4.3214,4.3214,4.3268,4.3461,4.3804,4.4102,4.4221,4.4181,4.4346,4.4457,4.4402,4.4546,4.4624,4.4624,4.4624,4.4631,4.4682,4.465,4.465,4.4669,4.4669,4.4669,0.0,3.4781,3.5707,3.5183,3.3857,3.2231,3.0488,2.8824,2.7262,2.5887,2.5595,2.5595,2.5595,2.5599,2.6469,2.9108,3.0304,0.0,0.0,0.0,0.0,0.0,0.0,0.0,0.0,0.0,0.0,0.0,0.0,0.0,0.0,5.55,5.5366,5.5058,5.4948,5.4901,5.4901,5.434,5.4071,5.4052,5.2887,5.2341,5.2336,5.1509,0.0,0.0,0.0,0.0,0.0,5.1226,5.1245,5.1284,5.1364,5.1406,5.14,5.1402,5.1362,5.1327,5.1327,5.094,5.0244,4.9017,4.7804,4.6716,4.6072,4.5939,4.6005,4.592,4.5813,4.5705,4.5665,4.5539,4.5361,4.5099,4.4757,4.4447,4.4299,4.3962,4.3631,4.3495,4.3461,4.3356,4.3069,4.2995,4.2975,4.2862,4.2673,4.2577,4.2577,4.24,4.2342,4.2537,4.2693,4.2884,4.3213,4.3511,4.3682,4.3634,4.3707,4.3735,4.367,4.3725,4.3831,4.399,4.3979,4.4087,4.4355,4.4438,4.4438,4.4383,4.4383,4.4383,0.0,3.3074,3.3781,3.3771,3.266,3.1125,2.9499,2.7926,0.0,2.5761,2.5605,2.5664,2.5835,2.578,2.5859,2.6339,0.0,0.0,0.0,0.0,0.0,0.0,0.0,0.0,0.0,0.0,0.0,0.0,0.0,0.0,0.0,5.5915,5.5548,5.4735,5.44,5.4262,5.4339,5.3721,5.3401,5.3401,5.2531,5.2156,5.2186,5.1373,0.0,0.0,0.0,0.0,0.0,5.1278,5.134,5.1406,5.1386,5.1398,5.139,5.1386,5.1291,5.1195,5.1195,5.1094,5.0717,4.9035,4.7295,4.5875,4.5789,4.5835,4.5889,4.5867,4.5617,4.5376,4.5358,4.5084,4.4776,4.4751,4.4346,4.3986,4.3955,4.3542,4.316,4.3123,4.3123,4.2995,4.2616,4.2577,4.2476,4.2228,4.177,4.1428,4.1428,4.1065,4.099,4.1383,4.1743,4.208,4.2519,4.2939,4.316,4.316,4.2903,4.2754,4.2772,4.2465,4.2483,4.294,4.2864,4.3196,4.3892,4.4125,4.4252,4.4252,4.4252,4.4252,2.4896,0.0,2.7523,2.6918,2.6937,2.6991,0.0,2.62,2.5854,0.0,0.0,0.0,0.0,0.0,0.0,0.0,0.0,0.0,0.0,0.0,0.0,0.0,0.0,0.0,0.0,0.0,0.0,0.0,0.0,0.0,0.0,5.5084,5.4697,5.3826,5.3097,5.3044,5.37,5.292,5.2511,5.2492,5.1672,5.1296,5.1296,5.115,0.0,0.0,0.0,0.0,5.1279,5.1355,5.1385,5.1386,5.1336,5.1297,5.1245,5.1198,5.1133,5.1042,5.1042,5.1031,5.0712,4.8935,4.7139,4.5665,4.5651,4.5742,4.5756,4.5451,4.5323,4.5204,4.4995,4.4877,4.4701,4.429,4.4087,4.3893,4.3458,4.3286,4.3032,4.2422,4.2284,4.208,4.1366,4.123,4.1248,4.1174,4.1036,4.0972,4.0972,4.0849,4.0849,4.0926,4.1019,4.1094,4.1076,4.2226,4.2865,4.2826,4.258,4.2404,4.2342,4.2279,4.2279,4.24,4.236,4.244,4.2619,4.2698,4.2718,4.2718,4.2718,4.2718,2.1773,2.4005,2.6097,2.5661,2.6186,2.6791,2.678,0.0,0.0,0.0,0.0,0.0,0.0,0.0,0.0,0.0,0.0,0.0,0.0,0.0,0.0,0.0,0.0,0.0,0.0,0.0,0.0,0.0,0.0,0.0,0.0,5.4194,5.3807,5.2917,5.2453,5.2434,5.2898,5.2047,5.1602,5.1602,5.1154,5.0981,5.1056,5.1088,5.1141,0.0,0.0,0.0,5.1307,5.1367,5.1352,5.1308,5.1271,5.1198,5.1094,5.1072,5.1004,5.0959,5.0953,5.0375,4.9459,4.8475,4.6985,4.5531,4.5495,4.551,4.5526,4.5283,4.5011,4.4757,4.4482,4.4337,4.4136,4.3721,4.3523,4.3265,4.2734,4.2519,4.2221,4.1569,4.1437,4.1303,4.0896,4.0802,4.0802,4.0802,4.0611,4.0449,4.0449,4.022,4.017,4.04,4.04,4.0383,4.0594,4.1161,4.1542,4.1603,4.1578,4.149,4.1481,4.1561,4.1709,4.1864,4.2074,4.2198,4.2198,4.2198,4.2198,4.2198,4.2198,4.2198,2.099,2.4022,2.6972,2.6442,2.7262,2.8162,2.8043,0.0,0.0,0.0,0.0,0.0,0.0,0.0,0.0,0.0,0.0,0.0,0.0,0.0,0.0,0.0,0.0,0.0,0.0,0.0,0.0,0.0,0.0,0.0,0.0,5.3304,5.2898,5.2028,5.2008,5.2028,5.2028,5.1312,5.0945,5.0945,5.0945,5.1015,5.1117,5.1122,5.1139,0.0,0.0,0.0,5.1307,5.1352,5.1304,5.1181,5.1172,5.1092,5.0984,5.0972,5.0918,5.0819,5.0662,4.9446,4.7952,4.7798,4.6704,4.5438,4.5263,4.5182,4.5118,4.5033,4.4682,4.427,4.4016,4.374,4.3461,4.3105,4.2788,4.244,4.1955,4.1569,4.1248,4.0784,4.0594,4.0528,4.0431,4.0317,4.0268,4.0268,3.9919,3.9612,3.9612,3.9259,3.9169,3.9577,3.9508,3.9664,4.0169,3.9885,3.9766,4.0052,4.0317,4.0431,4.0431,4.058,4.0884,4.1311,4.1692,4.1948,4.199,4.199,4.199,4.199,4.199,4.199,2.3201,2.5863,2.7303,2.4401,2.5953,2.8025,2.7333,0.0,0.0,0.0,0.0,0.0,0.0,0.0,0.0,0.0,0.0,0.0,0.0,0.0,0.0,0.0,0.0,0.0,0.0,0.0,0.0,0.0,0.0,0.0,0.0,5.2395,5.1989,5.1138,5.1215,5.1273,5.1273,5.1138,5.108,5.108,5.1138,5.1154,5.1179,5.1171,5.1226,0.0,0.0,5.1302,5.1294,5.1316,5.1242,5.1111,5.1049,5.0978,5.0903,5.0835,5.0718,5.0432,4.9599,4.8652,4.7687,4.6835,4.6001,4.5258,4.4962,4.4638,4.4336,4.4214,4.4117,4.3986,4.3726,4.3442,4.3087,4.2382,4.2162,4.1913,4.1139,4.0926,4.0737,4.0203,3.9698,3.9212,3.8745,3.8246,3.7905,3.7905,3.7847,3.7806,3.7806,3.7764,3.7722,3.7806,3.7806,3.7994,3.8463,3.8311,3.8383,3.886,3.9401,3.9749,3.9749,3.98,4.0037,4.0468,4.0549,4.0758,4.1088,4.1088,4.1088,4.1088,4.1088,4.1088,2.1973,2.4518,2.6455,2.4802,2.8028,3.151,0.0,0.0,0.0,0.0,0.0,0.0,0.0,0.0,0.0,0.0,0.0,0.0,0.0,0.0,0.0,0.0,0.0,0.0,0.0,0.0,0.0,0.0,0.0,0.0,0.0,0.0,5.1486,5.108,5.1119,5.1136,5.1156,5.1189,5.1189,5.1156,5.1194,5.1214,5.1264,5.1245,5.1294,5.1343,0.0,5.1299,5.1295,5.1258,5.1166,5.1034,5.1014,5.0877,5.068,5.0567,5.0197,4.9633,4.9024,4.7981,4.6858,4.632,4.5594,4.491,4.4535,4.4327,4.4128,4.3735,4.3609,4.3422,4.2886,4.2639,4.2266,4.1073,4.0799,4.0548,3.9529,3.9339,3.9199,3.8674,3.8342,3.8133,3.7879,3.7589,3.7429,3.7429,3.7429,3.7429,3.7429,3.7429,3.7429,3.7429,3.7251,3.7191,3.7445,3.7251,3.7546,3.8766,3.9115,3.9365,3.961,3.961,3.9714,3.9901,3.9901,3.9986,4.0187,4.0187,4.0303,4.0583,4.0583,4.068,2.1257,2.3517,2.5823,2.6312,0.0,3.3276,3.4225,0.0,0.0,0.0,0.0,0.0,0.0,0.0,0.0,0.0,0.0,0.0,0.0,0.0,0.0,0.0,0.0,0.0,0.0,0.0,0.0,0.0,0.0,0.0,0.0,0.0,5.1203,5.1203,5.1223,5.1217,5.1211,5.1294,5.1294,5.1211,5.1245,5.1271,5.131,5.131,5.134,5.1366,5.1317,5.1284,5.1253,5.1194,5.107,5.0908,5.0908,5.0683,5.0363,5.0034,4.951,4.8857,4.8143,4.7124,4.6076,4.5655,4.5119,4.4546,4.4106,4.3949,4.3806,4.3194,4.2921,4.2693,4.2162,4.1775,4.1181,3.9917,3.9359,3.8907,3.8116,3.7776,3.7546,3.7172,3.716,3.7055,3.6706,3.6645,3.6661,3.6661,3.6661,3.6737,3.6951,3.6966,3.6966,3.689,3.6662,3.6538,3.6585,3.6508,3.698,3.8311,3.8678,3.9023,3.9312,3.9295,3.9348,3.9454,3.9454,3.9506,3.961,3.961,3.9782,4.0121,4.0121,4.0271,2.3455,2.4881,2.6264,2.8612,0.0,0.0,3.3442,0.0,0.0,0.0,0.0,0.0,0.0,0.0,0.0,0.0,0.0,0.0,0.0,0.0,0.0,0.0,0.0,0.0,0.0,0.0,0.0,0.0,0.0,0.0,0.0,0.0,0.0,5.1206,5.1263,5.1289,5.1285,5.1366,5.1366,5.13,5.1372,5.1386,5.1386,5.1386,5.1352,5.1315,5.1285,5.1227,5.1095,5.1099,5.0924,5.0625,5.0625,5.0425,5.0021,4.9156,4.8681,4.8283,4.6506,4.5913,4.5714,4.4535,4.4277,4.4299,4.3712,4.3355,4.3051,4.2368,4.1895,4.1674,4.2003,4.1011,3.9817,3.9268,3.8147,3.7245,3.7408,3.6826,3.6338,3.6276,3.64,3.6072,3.4677,3.4455,3.4499,3.4499,3.4499,3.4795,3.5539,3.5619,3.5554,3.5394,3.5329,3.5459,3.5752,3.6259,3.6615,3.6569,3.7754,3.8448,3.8504,3.8504,3.8655,3.9023,3.9023,3.9222,3.961,3.961,3.961,3.9662,3.9662,3.9506,2.1706,2.4098,2.6547,2.7477,0.0,0.0,0.0,0.0,0.0,0.0,0.0,0.0,0.0,0.0,0.0,0.0,0.0,0.0,0.0,0.0,0.0,0.0,0.0,0.0,0.0,0.0,0.0,0.0,0.0,0.0,0.0,0.0,0.0,5.133,5.1357,5.1356,5.1351,5.1385,5.1394,5.1355,5.1398,5.1406,5.1406,5.1349,5.1307,5.1293,5.1215,5.1157,5.1083,5.0904,5.0776,5.0606,4.9848,4.9465,4.9229,4.8264,4.7413,4.6666,4.6082,4.5283,4.4463,4.4129,4.3923,4.3758,4.3267,4.2865,4.239,4.1498,4.0671,4.0082,4.0229,3.9783,3.89,3.718,3.6322,3.57,3.4955,3.4559,3.4345,3.4345,3.4389,3.4216,3.3656,3.3616,3.363,3.363,3.363,3.3713,3.4002,3.4476,3.4476,3.3837,3.3988,3.4356,3.4854,3.5464,3.5819,3.577,3.6646,3.7326,3.7786,3.7786,3.8075,3.8616,3.86,3.8711,3.8843,3.8843,3.8882,3.8903,3.8903,3.8887,2.1167,2.3502,2.6126,0.0,0.0,0.0,0.0,0.0,0.0,0.0,0.0,0.0,0.0,0.0,0.0,0.0,0.0,0.0,0.0,0.0,0.0,0.0,0.0,0.0,0.0,0.0,0.0,0.0,0.0,0.0,0.0,0.0,0.0,0.0,5.1406,5.1402,5.1403,5.1386,5.1377,5.1377,5.1346,5.1343,5.1372,5.1321,5.1273,5.1235,5.1138,5.1048,5.0957,5.0776,5.0471,5.0045,4.912,4.8523,4.8105,4.7151,4.6196,4.5357,4.5252,4.4544,4.3693,4.3679,4.3597,4.3356,4.2788,4.2342,4.1722,4.0654,3.9682,3.8776,3.8116,3.7947,3.7472,3.5698,3.4758,3.4105,3.3339,3.3003,3.2861,3.2861,3.3003,3.3073,3.2591,3.2733,3.2861,3.2861,3.2861,3.2932,3.3143,3.363,3.3685,3.2918,3.3227,3.3673,3.3962,3.4691,3.5088,3.5088,3.5514,3.615,3.7027,3.7087,3.7282,3.777,3.796,3.8017,3.7902,3.8148,3.823,3.8124,3.8124,3.8181,2.2569,2.345,0.0,0.0,0.0,0.0,0.0,0.0,0.0,0.0,0.0,0.0,0.0,0.0,0.0,0.0,0.0,0.0,0.0,0.0,0.0,0.0,0.0,0.0,0.0,0.0,0.0,0.0,0.0,0.0,0.0,0.0,0.0,0.0,5.1387,5.1387,5.1386,5.1316,5.1273,5.1273,5.12,5.1219,5.1293,5.1293,5.1235,5.1099,5.1099,5.0921,5.0701,5.0682,4.9948,4.8848,4.851,4.769,4.6595,4.5791,4.5162,4.4579,4.3789,4.3597,4.3627,4.316,4.3178,4.3231,4.2356,4.1656,4.0954,3.9985,3.9056,3.7906,3.5997,3.5394,3.528,3.528,3.3628,3.229,3.3003,3.2577,3.2074,3.2074,3.2648,3.2733,3.1259,3.1603,3.2074,3.2074,3.2074,3.2362,3.3073,3.3143,3.3017,3.269,3.3199,3.3465,3.3213,3.3894,3.4414,3.4414,3.4414,3.4957,3.6322,3.6384,3.6384,3.6384,3.7027,3.7222,3.689,3.7578,3.7711,3.7417,3.7417,3.7254,2.2003,2.4611,0.0,0.0,0.0,0.0,0.0,0.0,0.0,0.0,0.0,0.0,0.0,0.0,0.0,0.0,0.0,0.0,0.0,0.0,0.0,0.0,0.0,0.0,0.0,0.0,0.0,0.0,0.0,0.0,0.0,0.0,0.0,0.0,4.9648,4.9628,4.9567,4.9543,4.9485,4.9397,4.9381,5.0013,5.1229,5.1184,5.1138,5.1061,5.0248,4.9869,4.97,4.8662,4.7947,4.7409,4.648,4.5942,4.5531,4.4693,4.4124,4.3789,4.38,4.3493,4.3105,4.2848,4.2659,4.2422,4.1796,4.0839,3.9665,3.8341,3.7085,3.5872,3.4307,3.3435,3.3017,3.3017,3.255,3.1856,3.1119,3.0758,3.0532,3.0063,3.0203,3.0203,2.9704,2.9845,2.9986,2.9986,3.038,3.1057,3.229,3.1809,3.1763,3.2632,3.2259,3.2015,3.2362,3.2648,3.3017,3.352,3.3589,3.4177,3.5642,3.5706,3.5897,3.6384,3.643,3.643,3.6353,3.64,3.6291,3.5961,3.5961,3.6054,2.362,0.0,0.0,0.0,0.0,0.0,0.0,0.0,0.0,0.0,0.0,0.0,0.0,0.0,0.0,0.0,0.0,0.0,0.0,0.0,0.0,0.0,0.0,0.0,0.0,0.0,0.0,0.0,0.0,0.0,0.0,0.0,0.0,0.0,4.8859,4.8826,4.8716,4.8684,4.8653,4.857,4.8527,4.9071,5.0059,5.0065,5.002,4.9898,4.9086,4.8642,4.846,4.7401,4.6684,4.6127,4.5393,4.4842,4.4406,4.3906,4.3369,4.2941,4.314,4.2848,4.232,4.2226,4.2062,4.1743,4.092,3.9716,3.8412,3.7054,3.5763,3.4455,3.2876,3.2177,3.1901,3.1769,3.1489,3.0983,2.9858,2.9639,2.9561,2.916,2.9081,2.9081,2.9081,2.9081,2.9081,2.9081,2.9639,3.033,3.1132,3.096,3.0986,3.1676,3.1455,3.1281,3.1636,3.1928,3.229,3.272,3.2791,3.3269,3.4447,3.481,3.5154,3.5499,3.5612,3.5612,3.5434,3.5533,3.5484,3.5204,3.5204,3.527,0.0,0.0,0.0,0.0,0.0,0.0,0.0,0.0,0.0,0.0,0.0,0.0,0.0,0.0,0.0,0.0,0.0,0.0,0.0,0.0,0.0,0.0,0.0,0.0,0.0,0.0,0.0,0.0,0.0,0.0,0.0,0.0,0.0,4.856,4.8565,4.8487,4.837,4.8308,4.8275,0.0,4.8183,4.8125,4.8095,4.8372,4.833,4.8064,4.7712,4.7343,4.6932,4.6596,4.591,4.5013,4.4816,4.4152,4.3336,4.3336,4.2885,4.2198,4.2198,4.1888,4.1481,4.1293,4.1276,4.107,3.9716,3.8461,3.7223,3.5966,3.4787,3.3478,3.1715,3.1336,3.1336,3.093,3.038,2.9716,2.9172,2.9003,2.9003,2.8937,2.8937,2.8937,2.8937,2.8937,2.8924,2.9003,2.9484,2.9806,2.9871,3.0292,3.0533,3.0292,3.0797,3.0996,3.0833,3.1489,3.1942,3.2001,3.2001,3.229,3.3003,3.3825,3.4196,3.4128,3.4677,3.4743,3.4346,3.489,3.5073,3.4743,3.4743,3.4743,0.0,0.0,0.0,0.0,0.0,0.0,0.0,0.0,0.0,0.0,0.0,0.0,0.0,0.0,0.0,0.0,0.0,0.0,0.0,0.0,0.0,0.0,0.0,0.0,0.0,0.0,0.0,0.0,0.0,0.0,0.0,0.0,0.0,4.6756,4.6718,4.6648,4.6564,4.6538,4.6477,0.0,4.6361,4.6341,4.6385,4.7773,4.7915,4.7012,4.677,4.603,4.4965,4.4647,4.4212,4.3766,4.3433,4.3214,4.3032,4.3032,4.2655,4.2198,4.2198,4.1888,4.1331,4.0312,4.0,3.9716,3.8172,3.7093,3.6106,3.464,3.3267,3.1933,3.067,2.9986,2.9344,2.8072,2.8573,2.9172,2.8554,2.8407,2.8247,2.7696,2.7615,2.7615,2.7615,2.7615,2.7777,2.8327,2.8486,2.8633,2.8755,2.9471,2.9716,2.9184,2.9896,3.0292,3.0075,3.0228,3.057,3.1119,3.1193,3.1402,3.2074,3.2889,3.3563,3.4059,3.3991,3.3854,3.3744,3.3785,3.3716,3.3646,3.3646,3.3908,0.0,0.0,0.0,0.0,0.0,0.0,0.0,0.0,0.0,0.0,0.0,0.0,0.0,0.0,0.0,0.0,0.0,0.0,0.0,0.0,0.0,0.0,0.0,0.0,0.0,0.0,0.0,0.0,0.0,0.0,0.0,4.6141,4.6111,4.6104,4.6037,4.5979,4.5896,4.5896,4.5844,4.5757,4.5791,4.5761,4.5735,4.6504,4.6532,4.5969,4.5712,4.504,4.4154,4.3974,4.359,4.3142,4.2957,4.275,4.2555,4.248,4.2038,4.1437,4.1437,4.0949,4.0217,3.9613,3.9179,3.8734,3.7243,3.6121,3.5011,3.3293,3.2024,3.0856,2.9471,2.8743,2.7912,2.6637,2.7209,2.7706,2.6659,2.6753,2.6917,2.661,2.688,2.7231,2.7231,2.7231,2.7313,2.7708,2.8018,2.8155,2.7947,2.8493,2.8912,2.8791,2.9106,2.9443,2.9792,2.9792,2.9921,3.0152,3.0152,3.0456,3.1057,3.1355,3.1942,3.272,3.2903,3.2988,3.2917,3.3157,3.3326,3.3326,3.3326,3.3368,0.0,0.0,0.0,0.0,0.0,0.0,0.0,0.0,0.0,0.0,0.0,0.0,0.0,0.0,0.0,0.0,0.0,0.0,0.0,0.0,0.0,0.0,0.0,0.0,0.0,0.0,0.0,0.0,0.0,0.0,4.6063,4.6008,4.5983,4.5974,4.5911,4.5853,4.58,4.58,4.5776,4.57,4.575,4.5687,4.5532,4.5282,4.5156,4.517,4.4821,4.4365,4.3912,4.3849,4.3456,4.2882,4.2806,4.2537,4.2157,4.1997,4.1375,4.0625,4.0625,3.9935,3.9044,3.8974,3.8446,3.76,3.6245,3.5011,3.3758,3.2024,3.0768,2.9743,2.8303,2.7452,2.6662,2.5546,2.5724,2.5891,2.4744,2.5084,2.5579,2.5579,2.6185,2.6715,2.6715,2.6715,2.6715,2.6809,2.7371,2.7499,2.7151,2.7533,2.7947,2.8211,2.8383,2.8791,2.9534,2.9702,2.9611,2.9419,2.9341,2.9574,3.0012,2.9871,3.0088,3.0732,3.1696,3.2074,3.1856,3.2704,3.3086,3.3086,3.3157,3.3016,0.0,0.0,0.0,0.0,0.0,0.0,0.0,0.0,0.0,0.0,0.0,0.0,0.0,0.0,0.0,0.0,0.0,0.0,0.0,0.0,0.0,0.0,0.0,0.0,0.0,0.0,0.0,0.0,0.0,0.0,4.5926,4.5907,4.5907,4.5901,4.5849,4.5805,4.5795,4.5795,4.5765,4.57,4.5654,4.5495,4.5256,4.5026,4.5045,4.517,4.4662,4.4242,4.3881,4.359,4.3231,4.2844,4.2458,4.2257,4.2157,4.17,4.123,4.0754,4.0754,4.0053,3.9028,3.8278,3.7172,3.5869,3.4551,3.3213,3.1893,3.1018,2.9307,2.7716,2.7128,2.5902,2.4638,2.3694,2.3521,2.378,2.4402,2.4584,2.4659,2.4659,2.4744,2.484,2.484,2.484,2.5009,2.5454,2.5527,2.5611,2.5527,2.6185,2.6588,2.6235,2.7557,2.8542,2.8633,2.9184,2.9419,2.9419,2.9275,2.9118,2.9028,2.8949,2.8961,2.8882,3.0367,3.1119,3.1044,3.1856,3.2232,3.2232,3.2618,3.2775,0.0,0.0,0.0,0.0,0.0,0.0,0.0,0.0,0.0,0.0,0.0,0.0,0.0,0.0,0.0,0.0,0.0,0.0,0.0,0.0,0.0,0.0,0.0,0.0,0.0,0.0,0.0,0.0,0.0,4.5843,4.5843,4.5843,4.5838,4.5838,4.5781,4.5727,4.5731,4.5731,4.5648,4.5475,4.5099,4.4915,4.4857,4.4655,4.461,4.4739,4.443,4.4035,4.3623,4.3474,4.3051,4.2498,4.2297,4.1906,4.1366,4.0698,4.0118,3.9578,3.9265,3.8564,3.7764,3.7413,3.6415,3.516,3.4259,3.282,3.1349,3.0367,2.8627,2.6953,2.6389,2.4978,2.3617,2.3444,2.2843,2.2422,2.2853,2.3367,2.3887,2.4413,2.4498,2.4498,2.4498,2.4498,2.4498,2.4573,2.4935,2.502,2.4669,2.5263,2.5768,2.583,2.6483,2.7395,2.8383,2.8119,2.8279,2.9197,2.8542,2.8303,2.8657,2.8657,2.8578,2.851,2.9626,3.0228,3.0215,3.1044,3.1341,3.1267,3.1429,3.1502,0.0,0.0,0.0,0.0,0.0,0.0,0.0,0.0,0.0,0.0,0.0,0.0,0.0,0.0,0.0,0.0,0.0,0.0,0.0,0.0,0.0,0.0,0.0,0.0,0.0,0.0,0.0,0.0,0.0,4.5735,4.5735,4.577,4.577,4.577,4.5735,4.57,4.5703,4.5616,4.5455,4.5243,4.4701,4.4484,4.4557,4.4364,4.4258,4.4213,4.4114,4.3804,4.3371,4.3177,4.2716,4.2115,4.1888,4.1348,4.0594,3.9783,3.9143,3.8619,3.8035,3.7354,3.6723,3.6569,3.5612,3.4394,3.363,3.2164,3.0618,2.9614,2.7855,2.6069,2.5579,2.4125,2.2843,2.3105,2.2422,2.1741,2.1741,2.2246,2.2931,2.3627,2.381,2.381,2.381,2.381,2.3714,2.3627,2.4069,2.4327,2.3983,2.4423,2.4935,2.5421,2.5663,2.6318,2.7637,2.7139,2.7221,2.8291,2.7718,2.7661,2.8179,2.8339,2.851,2.851,2.9028,2.9316,2.9406,3.0139,3.0443,3.0291,3.038,3.038,0.0,0.0,0.0,0.0,0.0,0.0,0.0,0.0,0.0,0.0,0.0,0.0,0.0,0.0,0.0,0.0,0.0,0.0,0.0,0.0,0.0,0.0,0.0,0.0,0.0,0.0,0.0,0.0,0.0,4.5603,4.5603,4.5657,4.5709,4.5709,4.5703,4.5703,4.5709,4.5381,4.5201,4.5096,4.4751,4.4576,4.4496,4.4317,4.4042,4.3758,4.3726,4.356,4.3267,4.2559,4.218,4.1895,4.1013,4.0594,4.0302,3.9159,3.8745,3.8619,3.8035,3.7413,3.6753,3.5869,3.4655,3.3283,3.1829,3.0355,2.9081,2.8486,2.6494,2.4573,2.4584,2.3202,2.182,2.182,2.1731,2.1741,2.1741,2.1741,2.182,2.182,2.182,2.182,2.182,2.182,2.1909,2.2185,2.2274,2.2539,2.3416,2.359,2.3851,2.454,2.5348,2.5735,2.5652,2.6141,2.6472,2.6284,2.6823,2.7267,2.7267,2.8087,2.851,2.851,2.8339,2.8339,2.8578,2.916,2.9447,2.9447,2.9691,2.9781,0.0,0.0,0.0,0.0,0.0,0.0,0.0,0.0,0.0,0.0,0.0,0.0,0.0,0.0,0.0,0.0,0.0,0.0,0.0,0.0,0.0,0.0,0.0,0.0,0.0,0.0,0.0,0.0,0.0,0.0,4.5657,4.5706,4.5687,4.5709,4.569,4.5603,4.5362,4.5096,4.4849,4.465,4.4346,4.4121,4.3923,4.3942,4.3612,4.3051,4.2904,4.2659,4.2444,4.2162,4.1639,4.0938,4.0625,4.0019,3.9212,3.8414,3.779,3.7247,3.6676,3.593,3.5145,3.4868,3.3794,3.2434,3.1476,3.0203,2.8846,2.7637,2.5913,2.4317,2.379,2.2677,2.1741,2.1741,2.1741,2.1553,2.0898,2.1275,2.1741,2.1741,2.1741,2.1741,2.1741,2.1562,2.1472,2.1365,2.1624,2.1891,2.2157,2.296,2.359,2.3851,2.4519,2.5094,2.5495,2.5073,2.5147,2.6025,2.6235,2.6588,2.7185,2.8018,2.8431,2.8339,2.8259,2.8259,2.8339,2.8407,2.8315,2.8211,2.8211,2.8462,0.0,0.0,0.0,0.0,0.0,0.0,0.0,0.0,0.0,0.0,0.0,0.0,0.0,0.0,0.0,0.0,0.0,0.0,0.0,0.0,0.0,0.0,0.0,0.0,0.0,0.0,0.0,0.0,0.0,0.0,4.5676,4.5671,4.5671,4.5676,4.5586,4.5438,4.5243,4.4849,4.4599,4.4438,4.406,4.3763,4.3597,4.3513,4.3232,4.275,4.2342,4.208,4.1871,4.1595,4.0886,3.9985,3.98,3.9176,3.8189,3.7573,3.6995,3.6461,3.5816,3.5073,3.4245,3.4041,3.3129,3.1928,3.0807,2.9833,2.8755,2.6964,2.5495,2.4317,2.3357,2.2325,2.1562,2.1463,2.1186,2.0817,2.0167,2.0817,2.1374,2.0718,2.1087,2.1365,2.1006,2.1105,2.1195,2.0916,2.1177,2.1347,2.1356,2.2246,2.296,2.3416,2.3937,2.4348,2.4914,2.4251,2.4155,2.5041,2.5231,2.5746,2.667,2.7499,2.8007,2.8179,2.8018,2.7926,2.7926,2.7857,2.7696,2.7522,2.7441,2.7603,0.0,0.0,0.0,0.0,0.0,0.0,0.0,0.0,0.0,0.0,0.0,0.0,0.0,0.0,0.0,0.0,0.0,0.0,0.0,0.0,0.0,0.0,0.0,0.0,0.0,0.0,0.0,0.0,0.0,4.5547,4.5547,4.5586,4.5586,4.5568,4.5322,4.5222,4.5263,4.4682,4.4411,4.4465,4.3868,4.3579,4.3545,4.3105,4.2882,4.2806,4.2175,4.1796,4.1561,4.072,3.9918,3.9149,3.8674,3.8051,3.731,3.6662,3.6368,3.6321,3.5668,3.492,3.4177,3.3422,3.2648,3.1709,2.9679,2.9081,2.8597,2.6389,2.5158,2.4231,2.327,2.2246,2.1302,2.0997,2.0175,1.9438,1.9438,2.0374,2.0736,1.8764,1.9786,2.0628,1.9712,2.0357,2.0907,2.0744,2.0654,2.0826,2.1266,2.1356,2.1891,2.3319,2.3503,2.358,2.3754,2.3754,2.358,2.3135,2.3983,2.4914,2.5746,2.64,2.7232,2.8087,2.7684,2.7522,2.7522,2.7522,2.7522,2.7522,2.7301,2.7278,1.5079,0.0,0.0,0.0,0.0,0.0,0.0,0.0,0.0,0.0,0.0,0.0,0.0,0.0,0.0,0.0,0.0,0.0,0.0,0.0,0.0,0.0,0.0,0.0,0.0,0.0,0.0,0.0,4.4335,4.4662,4.4662,4.5074,4.5222,4.503,4.4962,4.4825,4.465,4.4493,4.4213,4.3836,4.3679,4.3355,4.2958,4.2902,4.2537,4.1864,4.1375,4.092,4.048,4.0334,3.9578,3.8509,3.839,3.7648,3.6662,3.6492,3.6133,3.5653,3.489,3.4124,3.3353,3.2648,3.1882,3.1022,2.9549,2.8834,2.8096,2.5568,2.4402,2.3627,2.2255,2.1651,2.1114,2.0175,1.9712,1.9063,1.7662,1.8025,1.8588,1.8218,1.9055,1.9803,1.953,2.0184,2.0736,2.0744,2.0564,2.0473,2.0555,2.1087,2.1535,2.198,2.2696,2.3144,2.3057,2.3416,2.3406,2.3135,2.3983,2.4488,2.4553,2.5975,2.6823,2.6764,2.7267,2.7441,2.7301,2.7301,2.7301,2.7301,2.6869,2.6693,0.0,0.0,0.0,0.0,0.0,0.0,0.0,0.0,0.0,0.0,0.0,0.0,0.0,0.0,0.0,0.0,0.0,0.0,0.0,0.0,0.0,0.0,0.0,0.0,0.0,0.0,0.0,4.2795,4.3254,4.3522,4.3522,4.4145,4.4471,4.4289,4.4531,4.4546,4.4383,4.4202,4.3899,4.3597,4.332,4.294,4.24,4.232,4.1906,4.1157,4.0703,4.0201,3.9595,3.9439,3.8799,3.7879,3.7648,3.689,3.6022,3.6022,3.5574,3.4905,3.4461,3.3616,3.2648,3.2146,3.1368,3.0355,2.9328,2.853,2.7533,2.5062,2.3531,2.2403,2.1374,2.1122,2.0744,1.953,1.888,1.8133,1.6539,1.6257,1.6351,1.6546,1.8041,1.9063,1.8696,1.9629,2.0564,2.0564,2.0382,2.0201,2.0011,2.0365,2.0718,2.0808,2.1704,2.2413,2.2422,2.3135,2.3329,2.2969,2.3474,2.381,2.3963,2.4882,2.5473,2.5568,2.5997,2.6279,2.6385,2.6891,2.7056,2.688,2.6279,2.5946,1.8433,1.9395,0.0,0.0,0.0,0.0,2.3614,2.4021,0.0,0.0,0.0,0.0,0.0,0.0,0.0,0.0,0.0,0.0,0.0,0.0,0.0,0.0,0.0,0.0,0.0,4.1506,4.2022,4.2117,4.2212,4.2284,4.2356,4.3014,4.3407,4.3383,4.3853,4.4121,4.4168,4.3706,4.3471,4.3477,4.2903,4.2382,4.1937,4.1587,4.1157,4.0707,4.0153,3.9543,3.8983,3.8358,3.7764,3.7251,3.6662,3.6022,3.5504,3.5424,3.4905,3.4245,3.4095,3.3199,3.2001,3.1636,3.0758,2.9793,2.8858,2.7959,2.6789,2.4457,2.2482,2.0907,2.0744,2.0645,2.0184,1.8972,1.7855,1.6828,1.5792,1.486,1.4298,1.4598,1.6835,1.8326,1.7483,1.898,2.0292,2.0201,2.0201,2.0011,1.9554,1.9546,1.9546,1.9712,2.0709,2.1427,2.1863,2.2862,2.3242,2.2803,2.2794,2.3047,2.3627,2.3541,2.3877,2.4617,2.4563,2.4765,2.52,2.6467,2.688,2.6362,2.5527,2.52,2.0391,2.1441,2.2745,0.0,0.0,0.0,0.0,2.1152,0.0,0.0,0.0,0.0,0.0,0.0,0.0,0.0,0.0,0.0,0.0,0.0,0.0,0.0,0.0,0.0,0.0,3.9231,3.961,4.0274,4.0975,4.1567,4.2052,4.2241,4.2205,4.1997,4.2108,4.2333,4.2797,4.2687,4.2732,4.2884,4.2364,4.1955,4.1604,4.1157,4.0642,4.0103,3.9527,3.8945,3.8374,3.7235,3.6723,3.66,3.643,3.6022,3.5424,3.4758,3.4461,3.4095,3.2777,3.2218,3.1856,3.0139,2.9614,2.9213,2.7626,2.6449,2.5083,2.2804,2.1606,2.0907,2.0744,2.0085,1.9155,1.7855,1.6626,1.5501,1.4765,1.4106,1.3732,1.4022,1.5988,1.7576,1.7296,1.898,2.0192,1.9828,1.9737,1.9554,1.9004,1.892,1.9004,1.9004,2.0266,2.1078,2.1168,2.2255,2.2891,2.2803,2.2618,2.2441,2.2432,2.3115,2.3454,2.3434,2.4498,2.5105,2.52,2.6196,2.6196,2.5454,2.5285,2.5031,0.0,0.0,2.3705,2.3343,0.0,0.0,0.0,0.0,0.0,0.0,0.0,0.0,0.0,0.0,0.0,0.0,0.0,0.0,0.0,0.0,0.0,0.0,0.0,0.0,0.0,3.7422,3.7986,3.877,3.9263,3.9789,4.052,4.0969,4.1101,4.0811,4.12,4.1483,4.1592,4.1476,4.1506,4.1751,4.1387,4.1025,4.0767,4.0497,3.9935,3.9139,3.8854,3.8189,3.7294,3.6662,3.618,3.5752,3.5449,3.5124,3.4691,3.3891,3.3394,3.2918,3.2001,3.1516,3.1158,2.9471,2.8834,2.8493,2.7069,2.5462,2.3654,2.1676,2.0718,2.0184,1.9828,1.908,1.8141,1.7023,1.5981,1.4943,1.4106,1.3732,1.3539,1.3642,1.5051,1.6264,1.6648,1.8342,1.9463,1.9279,1.9188,1.9004,1.855,1.8458,1.8365,1.8079,1.953,2.0439,2.0439,2.1802,2.253,2.2451,2.2353,2.2185,2.1919,2.2255,2.2334,2.205,2.3183,2.3897,2.4003,2.4914,2.5253,2.52,2.4871,2.4625,0.0,0.0,0.0,0.0,0.0,2.432,0.0,0.0,0.0,2.4157,0.0,0.0,0.0,0.0,0.0,0.0,0.0,0.0,0.0,0.0,0.0,0.0,0.0,0.0,0.0,3.5367,3.6278,3.7559,3.7198,3.745,3.873,3.9425,3.9753,3.97,4.0312,4.0569,4.036,4.0149,4.0137,4.0371,4.0026,3.9865,3.9783,3.9581,3.9023,3.8278,3.7994,3.731,3.6368,3.6243,3.5672,3.492,3.4461,3.4163,3.3891,3.3031,3.2335,3.1723,3.1368,3.0872,3.0216,2.8858,2.7959,2.7116,2.5902,2.4286,2.2394,2.0709,1.982,1.9371,1.892,1.8164,1.7412,1.6473,1.552,1.4573,1.3727,1.3443,1.3346,1.3443,1.4196,1.5045,1.6001,1.7512,1.8635,1.8643,1.8643,1.8458,1.7986,1.79,1.7714,1.7333,1.8796,1.9803,1.9803,2.1347,2.2264,2.2097,2.2017,2.183,2.1651,2.1472,2.1195,2.0997,2.1872,2.2413,2.2803,2.3637,2.4327,2.5031,2.4454,2.4196,0.0,0.0,0.0,0.0,2.7073,0.0,0.0,0.0,2.4194,2.2292,0.0,0.0,0.0,0.0,0.0,0.0,0.0,0.0,0.0,0.0,0.0,0.0,0.0,0.0,0.0,0.0,3.3584,3.6593,3.4641,3.4565,3.7514,3.7613,3.7875,3.8556,3.8666,3.8715,3.8754,3.8734,3.8775,3.8851,3.834,3.8404,3.9005,3.7985,3.7806,3.8222,3.6951,3.643,3.6368,3.5638,3.4839,3.4177,3.4245,3.4177,3.3934,3.2434,3.1856,3.1649,3.0659,2.9819,2.9081,2.7718,2.6091,2.4337,2.2746,2.1863,2.115,1.9455,1.892,1.892,1.8827,1.8079,1.7138,1.6379,1.5242,1.4202,1.3636,1.3152,1.2958,1.3147,1.3624,1.4472,1.5906,1.7124,1.7878,1.8172,1.8179,1.7994,1.7426,1.7254,1.7073,1.7066,1.8527,1.953,1.953,2.1177,2.2097,2.2097,2.175,2.1482,2.1401,2.1195,2.0997,2.0997,2.1516,2.2148,2.2803,2.3319,2.3851,2.4282,2.4206,2.411,0.0,0.0,0.0,0.0,0.0,0.0,0.0,0.0,2.3784,0.0,0.0,0.0,0.0,0.0,0.0,0.0,0.0,0.0,0.0,0.0,0.0,0.0,0.0,0.0,0.0,0.0,0.0,0.0,0.0,3.2368,3.5034,3.5957,3.6708,3.7461,3.7643,3.7703,3.7553,3.7299,3.729,3.7513,3.6888,3.6887,3.7314,3.654,3.6276,3.6444,3.5936,3.5407,3.4912,3.5118,3.4341,3.3031,3.3283,3.3003,3.2263,3.122,3.0797,3.0722,3.0152,2.9521,2.8609,2.6812,2.5168,2.3667,2.1961,2.1427,2.0889,1.8904,1.8365,1.8365,1.7986,1.7138,1.6197,1.5324,1.4184,1.3141,1.2365,1.1975,1.1878,1.1975,1.2657,1.3522,1.4663,1.5812,1.6763,1.7347,1.734,1.7145,1.6958,1.6777,1.6784,1.6784,1.8334,1.9338,1.9338,2.0907,2.183,2.166,2.1374,2.1105,2.1024,2.0925,2.0645,2.0184,2.0357,2.0709,2.1159,2.1882,2.2501,2.294,2.3657,2.3851,2.7399,0.0,0.0,0.0,0.0,0.0,0.0,0.0,0.0,0.0,0.0,0.0,0.0,0.0,0.0,0.0,0.0,0.0,0.0,0.0,0.0,0.0,0.0,0.0,0.0,0.0,0.0,0.0,0.0,0.0,3.2871,3.4069,3.5195,3.6466,3.6737,3.677,3.6539,3.619,3.6031,3.5964,3.553,3.5444,3.5599,3.511,3.4883,3.4941,3.4607,3.4154,3.3607,3.4028,3.3322,3.2033,3.2218,3.1636,3.067,3.0279,3.0075,3.0075,2.9779,2.904,2.7799,2.5735,2.4413,2.3396,2.1587,2.0962,2.043,1.8257,1.7707,1.7613,1.7239,1.6581,1.5825,1.4848,1.38,1.2748,1.178,1.1389,1.1194,1.1194,1.1975,1.2948,1.3715,1.4867,1.592,1.6784,1.6683,1.6588,1.6588,1.6494,1.6494,1.6494,1.7777,1.8788,1.8972,2.0357,2.1195,2.1212,2.1015,2.0826,2.0564,2.0473,2.0192,1.9646,1.9463,1.9546,1.9894,2.0881,2.1507,2.2041,2.3212,2.358,0.0,0.0,0.0,2.6904,0.0,0.0,0.0,0.0,2.5151,0.0,0.0,0.0,0.0,0.0,0.0,2.0939,0.0,0.0,0.0,0.0,0.0,0.0,0.0,0.0,0.0,0.0,0.0,0.0,0.0,0.0,3.1631,3.176,3.2891,3.5636,3.5759,3.5734,3.5661,3.5616,3.5131,3.4183,3.4183,3.4166,3.4125,3.3696,3.3741,3.4178,3.2708,3.2507,3.303,3.2013,3.1446,3.1254,3.1254,3.0519,2.9496,2.9908,3.0075,2.9998,2.9586,2.8199,2.6235,2.4413,2.3667,2.3135,2.0926,2.0133,1.9521,1.7232,1.6676,1.6676,1.6588,1.6588,1.6393,1.5534,1.4573,1.3619,1.2851,1.1878,1.1194,1.1194,1.1975,1.2948,1.3715,1.4765,1.5724,1.6487,1.6588,1.6588,1.6588,1.6407,1.6224,1.6224,1.6864,1.7699,1.8334,1.9347,2.0175,2.0654,2.0744,2.0564,2.0292,1.992,1.9637,1.9637,1.9096,1.918,1.9894,2.0881,2.1507,2.2031,2.3038,2.3416,0.0,0.0,2.9876,2.7372,0.0,0.0,0.0,0.0,0.0,0.0,0.0,0.0,0.0,0.0,2.1809,2.1569,2.0662,0.0,0.0,0.0,0.0,0.0,0.0,0.0,0.0,0.0,0.0,0.0,2.3785,0.0,0.0,2.9809,3.1705,3.3563,3.4397,3.495,3.5311,3.4736,3.4202,3.3767,3.3093,3.2804,3.2746,3.2213,3.205,3.2035,3.1536,3.104,3.0635,3.1281,3.069,2.9567,3.0452,3.0165,2.9197,2.9509,2.9521,2.9365,2.8621,2.7371,2.588,2.4659,2.356,2.2422,2.0331,1.9604,1.8956,1.6936,1.6204,1.6116,1.6116,1.592,1.5527,1.4669,1.3998,1.3221,1.1482,1.09,1.0703,1.0703,1.1477,1.2543,1.3511,1.4484,1.5452,1.6218,1.6211,1.6116,1.6116,1.5927,1.5737,1.5737,1.6379,1.7109,1.8041,1.953,2.0555,2.0654,2.0283,1.992,1.9828,1.9371,1.8912,1.8635,1.845,1.8265,1.8149,1.9155,2.0059,2.0863,2.1695,2.2334,2.9868,3.0073,0.0,2.7992,2.7511,0.0,2.4424,0.0,0.0,0.0,0.0,0.0,0.0,0.0,0.0,2.1978,2.0707,0.0,0.0,0.0,0.0,0.0,0.0,0.0,0.0,0.0,2.1591,2.1539,0.0,0.0,0.0,0.0,2.9994,3.1907,3.2966,3.3777,3.4261,3.3691,3.3255,3.3008,3.2321,3.1777,3.1261,3.0999,3.0635,3.02,2.9917,2.9481,2.9005,2.9614,2.9365,2.8572,2.9429,2.9476,2.904,2.9197,2.9118,2.8724,2.7545,2.6461,2.5378,2.4135,2.3125,2.19,1.9886,1.9047,1.8395,1.6372,1.5635,1.5553,1.5553,1.5452,1.5159,1.449,1.3806,1.3028,1.1673,1.0993,1.0703,1.0703,1.158,1.2446,1.3221,1.4292,1.5172,1.575,1.5648,1.5553,1.5553,1.5452,1.5356,1.5356,1.5724,1.6553,1.777,1.9347,2.0283,2.0283,1.9646,1.9279,1.9279,1.8827,1.8365,1.8087,1.7893,1.7613,1.7326,1.8241,1.8972,1.9604,2.0692,2.1516]},{"header":{"parameterUnit":"m.s-1","parameterCategory":1,"la1":30.6,"la2":29.2853,"lo1":-89.7004,"lo2":-87.6739,"dy":0.0162,"dx":0.0183,"nx":112,"ny":82,"refTime":"2024-08-15T06:00:00:Z","depth":0,"parameterNumber":3,"parameterNumberName":"V-component_of_WINDS"},"data":[0.0,0.0,0.0,0.0,0.0,0.0,0.0,0.0,0.0,0.0,0.0,0.0,0.0,0.0,0.0,0.0,0.0,0.0,0.0,0.0,0.0,0.0,0.0,0.0,0.0,0.0,0.0,0.0,0.0,0.0,0.0,0.0,0.0,0.0,0.0,0.0,0.0,0.0,0.0,0.0,0.0,0.0,0.0,0.0,0.0,0.0,0.0,0.0,0.0,0.0,0.0,0.0,0.0,0.0,0.0,0.0,0.0,0.0,0.0,0.0,0.0,0.0,0.0,0.0,0.0,0.0,0.0,0.0,0.0,0.0,0.0,0.0,0.0,0.0,0.0,0.0,0.0,0.0,0.0,0.0,0.0,0.0,0.0,0.0,0.0,0.0,0.0,0.0,0.0,0.0,0.0,0.4541,0.5119,0.549,0.5645,0.5091,0.4683,0.4687,0.0,0.0,0.0,0.0,0.0,0.0,0.0,0.0,0.0,0.0,0.0,0.0,0.0,0.0,0.0,0.0,0.0,0.0,0.0,0.0,0.0,0.0,0.0,0.0,0.0,0.0,0.0,0.0,0.0,0.0,0.0,0.0,0.0,0.0,0.0,0.0,0.0,0.0,0.0,0.0,0.0,0.0,0.0,0.0,0.0,0.0,0.0,0.0,0.0,0.0,0.0,0.0,0.0,0.0,0.0,0.0,0.0,0.0,0.0,0.0,0.0,0.0,0.0,0.0,0.0,0.0,0.0,0.0,0.0,0.0,0.0,0.0,0.0,0.0,0.0,0.0,0.0,0.0,0.0,0.0,0.0,0.0,0.0,0.0,0.0,0.0,0.0,0.0,0.0,0.0,0.0,0.0,0.0,0.0,0.0,0.0,0.0,0.0,0.0,0.0,0.0,0.0,0.0,0.0,0.3976,0.5108,0.5432,0.5614,0.5776,0.5449,0.5218,0.5058,0.0,0.0,0.0,0.0,0.0,0.0,0.0,0.0,0.0,0.0,0.0,0.0,0.0,0.0,0.0,0.0,0.0,0.0,0.0,0.0,0.0,0.0,0.0,0.0,0.0,0.0,0.0,0.0,0.0,0.0,0.0,0.0,0.0,0.0,0.0,0.0,0.0,0.0,0.0,0.0,0.0,0.0,0.0,0.0,0.0,0.0,0.0,0.0,0.0,0.0,0.0,0.0,0.0,0.0,0.0,0.0,0.0,0.0,0.0,0.0,0.0,0.0,0.0,0.0,0.0,0.0,0.0,0.0,0.0,0.0,0.0,0.0,0.0,0.0,0.0,0.0,0.0,0.0,0.0,0.0,0.0,0.0,0.0,0.0,0.0,0.0,0.0,0.0,0.0,0.0,0.0,0.0,0.0,0.0,0.0,0.0,0.0,0.0,0.0,0.0,0.0,0.0,0.0,0.3931,0.4481,0.5382,0.5473,0.555,0.5772,0.5424,0.5163,0.4965,0.3868,0.0,0.0,0.0,0.0,0.0,0.0,0.0,0.0,0.0,0.0,0.0,0.0,0.0,0.0,0.0,0.0,0.0,0.0,0.0,0.0,0.0,0.0,0.0,0.0,0.0,0.0,0.0,0.0,0.0,0.0,0.0,0.0,0.0,0.0,0.0,0.0,0.0,0.0,0.0,0.0,0.0,0.0,0.0,0.0,0.0,0.0,0.0,0.0,0.0,0.0,0.0,0.0,0.0,0.0,0.0,0.0,0.0,0.0,0.0,0.0,0.0,0.0,0.0,0.0,0.0,0.0,0.0,0.0,0.0,0.0,0.0,0.0,0.0,0.0,0.0,0.0,0.0,0.0,0.0,0.0,0.0,0.0,0.0,0.0,0.0,0.0,0.0,0.0,0.0,0.0,0.0,0.0,0.0,0.0,0.0,0.0,0.0,0.0,0.0,0.0,0.0,0.0,0.448,0.4819,0.5467,0.5497,0.554,0.5719,0.5332,0.4987,0.4801,0.3909,0.0,0.0,0.0,0.0,0.0,0.0,0.0,0.0,0.0,0.0,0.0,0.0,0.0,0.0,0.0,0.0,0.0,0.0,0.0,0.0,0.0,0.0,0.0,0.0,0.0,0.0,0.0,0.0,0.0,0.0,0.0,0.0,0.0,0.0,0.0,0.0,0.0,0.0,0.0,0.0,0.0,0.0,0.0,0.0,0.0,0.0,0.0,0.0,0.0,0.0,0.0,0.0,0.0,0.0,0.0,0.0,0.0,0.0,0.0,0.0,0.0,0.0,0.0,0.0,0.0,0.0,0.0,0.0,0.0,0.0,0.0,0.0,0.0,0.0,0.0,0.0,0.0,0.0,0.0,0.0,0.0,0.0,0.0,0.0,0.0,0.0,0.0,0.0,0.0,0.0,0.0,0.0,0.0,0.0,0.0,0.0,0.0,0.0,0.0,0.0,0.0,0.0,0.4541,0.5013,0.5342,0.5495,0.562,0.5631,0.5247,0.4969,0.4786,0.3765,0.0,0.0,0.0,0.0,0.0,0.0,0.0,0.0,0.0,0.0,0.0,0.0,0.0,0.0,0.0,0.0,0.0,0.0,0.0,0.0,0.0,0.0,0.0,0.0,0.0,0.0,0.0,0.0,0.0,0.0,0.0,0.0,0.0,0.0,0.0,0.0,0.0,0.0,0.0,0.0,0.0,0.0,0.0,0.0,0.0,0.0,0.0,0.0,0.0,0.0,0.0,0.0,0.0,0.0,0.0,0.0,0.0,0.0,0.0,0.0,0.0,0.0,0.0,0.0,0.0,0.0,0.0,0.0,0.0,0.0,0.0,0.0,0.0,0.0,0.0,0.0,0.0,0.0,0.0,0.0,0.0,0.0,0.0,0.0,0.0,0.0,0.0,0.0,0.0,0.0,0.0,0.0,0.0,0.0,0.0,0.0,0.0,0.0,0.0,0.0,0.0,0.0,0.4379,0.4823,0.0,0.5488,0.5683,0.5752,0.5528,0.5233,0.484,0.0,0.0,0.0,0.0,0.0,0.0,0.0,0.0,0.0,0.0,0.0,0.0,0.0,0.0,0.0,0.0,0.0,0.0,0.0,0.0,0.0,0.0,0.0,0.0,0.0,0.0,0.0,0.0,0.0,0.0,0.0,0.0,0.0,0.0,0.0,0.0,0.0,0.0,0.0,0.0,0.0,0.0,0.0,0.0,0.0,0.0,0.0,0.0,0.0,0.0,0.0,0.0,0.0,0.0,0.0,0.0,0.0,0.0,0.0,0.0,0.0,0.0,0.0,0.0,0.0,0.0,0.0,0.0,0.0,0.0,0.0,0.0,0.0,0.0,0.0,0.0,0.0,0.0,0.0,0.0,0.0,0.0,0.0,0.0,0.0,0.0,0.0,0.0,0.0,0.0,0.0,0.0,0.0,0.0,0.0,0.0,0.0,0.0,0.0,0.0,0.0,0.0,0.3917,0.4365,0.4862,0.0,0.5554,0.5683,0.5888,0.5613,0.5226,0.4745,0.0,0.0,0.0,0.0,0.0,0.0,0.0,0.0,0.0,0.0,0.0,0.0,0.0,0.0,0.0,0.0,0.0,0.0,0.0,0.0,0.0,0.0,0.0,0.0,0.0,0.0,0.0,0.0,0.0,0.0,0.0,0.0,0.0,0.0,0.0,0.0,0.0,0.0,0.0,0.0,0.0,0.0,0.0,0.0,0.0,0.0,0.0,0.0,0.0,0.0,0.0,0.0,0.0,0.0,0.0,0.0,0.0,0.0,0.0,0.0,0.0,0.0,0.0,0.0,0.0,0.0,0.0,0.0,0.0,0.0,0.0,0.0,0.0,0.0,0.0,0.0,0.0,0.0,0.0,0.0,0.0,0.0,0.0,0.0,0.0,0.0,0.0,0.0,0.0,0.0,0.0,0.0,0.0,0.0,0.0,0.0,0.0,0.0,0.0,0.0,0.0,0.0,0.3941,0.4548,0.5092,0.5519,0.5617,0.5683,0.5888,0.5344,0.4873,0.0,0.0,0.0,0.0,0.0,0.0,0.0,0.0,0.0,0.0,0.0,0.0,0.0,0.0,0.0,0.0,0.0,0.0,0.0,0.0,0.0,0.0,0.0,0.0,0.0,0.0,0.0,0.0,0.0,0.0,0.0,0.0,0.0,0.0,0.0,0.0,0.0,0.0,0.0,0.0,0.0,0.0,0.0,0.0,0.0,0.0,0.0,0.0,0.0,0.0,0.0,0.0,0.0,0.0,0.0,0.0,0.0,0.0,0.0,0.0,0.0,0.0,0.0,0.0,0.0,0.0,0.0,0.0,0.0,0.0,0.0,0.0,0.0,0.0,0.0,0.0,0.0,0.0,0.0,0.0,0.0,0.0,0.0,0.0,0.0,0.0,0.0,0.0,0.0,0.0,0.0,0.0,0.0,0.0,0.0,0.0,0.0,0.0,0.0,0.0,0.0,0.0,0.0,0.3941,0.4548,0.5092,0.5519,0.5752,0.5885,0.6083,0.5805,0.535,0.4745,0.0,0.0,0.0,0.0,0.0,0.0,0.0,0.0,0.0,0.0,0.0,0.0,0.0,0.0,0.0,0.0,0.0,0.0,0.0,0.0,0.0,0.0,0.0,0.0,0.0,0.0,0.0,0.0,0.0,0.0,0.0,0.0,0.0,0.0,0.0,0.0,0.0,0.0,0.0,0.0,0.0,0.0,0.0,0.0,0.0,0.0,0.0,0.0,0.0,0.0,0.0,0.0,0.0,0.0,0.0,0.0,0.0,0.0,0.0,0.0,0.0,0.0,0.0,0.0,0.0,0.0,0.0,0.0,0.0,0.0,0.0,0.0,0.0,0.0,0.0,0.0,0.0,0.0,0.0,0.0,0.0,0.0,0.0,0.0,0.0,0.0,0.0,0.0,0.0,0.0,0.0,0.0,0.0,0.0,0.0,0.0,0.0,0.0,0.0,0.0,0.0,0.0,0.3941,0.4601,0.5216,0.5654,0.5885,0.6083,0.628,0.6029,0.564,0.506,0.0,0.0,0.0,0.0,0.0,0.0,0.0,0.0,0.0,0.0,0.0,0.0,0.0,0.0,0.0,0.0,0.0,0.0,0.0,0.0,0.0,0.0,0.0,0.0,0.0,0.0,0.0,0.0,0.0,0.0,0.0,0.0,0.0,0.0,0.0,0.0,0.0,0.0,0.0,0.0,0.0,0.0,0.0,0.0,0.0,0.0,0.0,0.0,0.0,0.0,0.0,0.0,0.0,0.0,0.0,0.0,0.0,0.0,0.0,0.0,0.0,0.0,0.0,0.0,0.0,0.0,0.0,0.0,0.0,0.0,0.0,0.0,0.0,0.0,0.0,0.0,0.0,0.0,0.0,0.0,0.0,0.0,0.0,0.0,0.0,0.0,0.0,0.0,0.0,0.0,0.0,0.0,0.0,0.0,0.0,0.0,0.0,0.0,0.0,0.0,0.0,0.0,0.3961,0.4717,0.5399,0.5855,0.6083,0.628,0.6416,0.6107,0.575,0.5321,0.0,0.0,0.0,0.0,0.0,0.0,0.0,0.0,0.0,0.0,0.0,0.0,0.0,0.0,0.0,0.0,0.0,0.0,0.0,0.0,0.0,0.0,0.0,0.0,0.0,0.0,0.0,0.0,0.0,0.0,0.0,0.0,0.0,0.0,0.0,0.0,0.0,0.0,0.0,0.0,0.0,0.0,0.0,0.0,0.0,0.0,0.0,0.0,0.0,0.0,0.0,0.0,0.0,0.0,0.0,0.0,0.0,0.0,0.0,0.0,0.4236,0.0,0.0,0.0,0.0,0.0,0.0,0.0,0.0,0.0,0.0,0.0,0.0,0.0,0.0,0.0,0.0,0.0,0.0,0.0,0.0,0.0,0.0,0.0,0.0,0.0,0.0,0.0,0.0,0.0,0.0,0.0,0.0,0.0,0.0,0.0,0.0,0.0,0.0,0.0,0.0,0.0,0.4198,0.4841,0.5399,0.5855,0.6083,0.628,0.6416,0.6217,0.588,0.5329,0.0,0.0,0.0,0.0,0.0,0.0,0.0,0.0,0.0,0.0,0.0,0.0,0.0,0.0,0.0,0.0,0.0,0.0,0.0,0.0,0.0,0.0,0.0,0.0,0.0,0.0,0.0,0.0,0.0,0.0,0.0,0.0,0.0,0.0,0.0,0.0,0.0,0.0,0.0,0.0,0.0,0.0,0.0,0.0,0.0,0.0,0.0,0.0,0.0,0.0,0.0,0.0,0.0,0.0,0.0,0.0,0.0,0.0,0.0,0.0,0.0,0.4769,0.0,0.0,0.0,0.0,0.0,0.0,0.0,0.0,0.0,0.0,0.0,0.0,0.0,0.0,0.0,0.0,0.0,0.0,0.0,0.0,0.0,0.0,0.0,0.0,0.0,0.0,0.0,0.0,0.0,0.0,0.0,0.0,0.0,0.0,0.0,0.0,0.0,0.0,0.0,0.0,0.447,0.5151,0.5675,0.5994,0.6214,0.635,0.642,0.625,0.6088,0.575,0.5234,0.0,0.0,0.0,0.0,0.0,0.0,0.0,0.0,0.0,0.0,0.0,0.0,0.0,0.0,0.0,0.0,0.0,0.0,0.0,0.0,0.0,0.0,0.0,0.0,0.0,0.0,0.0,0.0,0.0,0.0,0.0,0.0,0.0,0.0,0.0,0.0,0.0,0.0,0.0,0.0,0.0,0.0,0.0,0.0,0.0,0.0,0.0,0.0,0.0,0.0,0.0,0.0,0.0,0.6891,0.708,0.724,0.727,0.7204,0.7144,0.6381,0.5991,0.583,0.0,0.0,0.0,0.0,0.0,0.0,0.0,0.0,0.0,0.0,0.0,0.0,0.0,0.0,0.0,0.0,0.0,0.0,0.0,0.0,0.0,0.0,0.0,0.0,0.0,0.5498,0.5274,0.0,0.0,0.0,0.0,0.0,0.0,0.0,0.0,0.0,0.0,0.0,0.0,0.4798,0.5521,0.6008,0.6242,0.6398,0.6453,0.642,0.6278,0.6244,0.6211,0.5649,0.5157,0.0,0.0,0.0,0.0,0.0,0.0,0.0,0.0,0.0,0.0,0.0,0.0,0.0,0.0,0.0,0.0,0.0,0.0,0.0,0.0,0.0,0.0,0.0,0.0,0.0,0.0,0.0,0.0,0.0,0.0,0.0,0.0,0.4334,0.4374,0.0,0.0,0.0,0.0,0.0,0.0,0.0,0.0,0.0,0.0,0.0,0.0,0.0,0.6595,0.6851,0.7472,0.7652,0.7396,0.8066,0.8294,0.8023,0.817,0.8253,0.8176,0.8091,0.0,0.6259,0.6166,0.0,0.0,0.0,0.0,0.0,0.0,0.0,0.0,0.0,0.0,0.0,0.0,0.0,0.0,0.0,0.0,0.0,0.0,0.0,0.0,0.0,0.0,0.5104,0.5731,0.6044,0.6067,0.0,0.5138,0.4504,0.4113,0.3785,0.0,0.0,0.0,0.0,0.0,0.0,0.0,0.5361,0.5888,0.6246,0.6355,0.6519,0.6595,0.6432,0.6396,0.6314,0.6219,0.6121,0.5787,0.5245,0.493,0.0,0.0,0.0,0.0,0.0,0.0,0.0,0.0,0.0,0.0,0.0,0.0,0.0,0.0,0.0,0.0,0.0,0.0,0.0,0.0,0.0,0.0,0.0,0.0,0.0,0.0,0.0,0.0,0.0,0.4447,0.5119,0.4971,0.5338,0.5361,0.0,0.0,0.0,0.0,0.0,0.0,0.0,0.0,0.0,0.7374,0.7576,0.7716,0.7978,0.8484,0.8661,0.8591,0.8897,0.9056,0.8989,0.9064,0.9007,0.8813,0.9007,0.8509,0.7544,0.7274,0.6791,0.6194,0.0,0.0,0.0,0.0,0.5528,0.5521,0.6071,0.6095,0.0,0.5884,0.0,0.0,0.0,0.0,0.0,0.0,0.0,0.0,0.0,0.0,0.0,0.6408,0.6522,0.6512,0.6532,0.6091,0.5532,0.0,0.4714,0.4481,0.4038,0.0,0.0,0.0,0.0,0.0,0.6061,0.6419,0.6676,0.6756,0.6745,0.6652,0.6583,0.6477,0.6384,0.6302,0.6264,0.6104,0.5807,0.5356,0.4758,0.0,0.0,0.0,0.0,0.0,0.0,0.0,0.0,0.0,0.0,0.0,0.0,0.0,0.0,0.0,0.0,0.0,0.0,0.0,0.0,0.0,0.0,0.0,0.0,0.0,0.0,0.0,0.0,0.5113,0.5754,0.5575,0.6107,0.6152,0.0,0.0,0.0,0.0,0.0,0.0,0.7277,0.7468,0.7813,0.8337,0.8491,0.8889,0.9385,0.9533,0.9858,1.028,1.028,1.0166,1.0015,1.0015,0.9723,0.9331,0.9529,0.9355,0.8802,0.8121,0.7587,0.7206,0.6852,0.6492,0.6234,0.6491,0.6471,0.6396,0.6993,0.698,0.6709,0.6749,0.0,0.602,0.5647,0.0,0.0,0.0,0.0,0.5911,0.6325,0.643,0.6525,0.6895,0.6895,0.6844,0.6959,0.6776,0.64,0.0,0.5624,0.5432,0.4859,0.0,0.0,0.0,0.0,0.6189,0.6563,0.6911,0.7021,0.7021,0.6899,0.6781,0.67,0.657,0.6469,0.642,0.629,0.6256,0.6211,0.5726,0.5101,0.4401,0.0,0.0,0.0,0.0,0.0,0.0,0.0,0.0,0.0,0.0,0.0,0.0,0.0,0.0,0.0,0.0,0.0,0.0,0.0,0.0,0.0,0.0,0.0,0.0,0.0,0.0,0.0,0.0,0.0,0.6191,0.6883,0.0,0.0,0.0,0.0,0.6958,0.7458,0.7845,0.8203,0.8398,0.8743,0.9271,0.9295,0.9865,1.1025,1.1137,1.1536,1.2517,1.2517,1.2037,1.1077,1.1077,1.0596,0.9628,0.9628,0.9624,0.9485,0.8733,0.8026,0.7464,0.7042,0.68,0.6685,0.6848,0.6983,0.7109,0.7295,0.7346,0.735,0.7495,0.7238,0.6841,0.6671,0.6427,0.0,0.0,0.6325,0.6502,0.6814,0.6895,0.6936,0.7092,0.7126,0.7122,0.7129,0.701,0.681,0.0,0.6228,0.6061,0.6153,0.0,0.6032,0.6298,0.6392,0.6579,0.6911,0.7098,0.7212,0.7212,0.7204,0.7062,0.6725,0.6688,0.6607,0.6428,0.6412,0.6327,0.6215,0.5965,0.5693,0.5222,0.4348,0.0,0.0,0.0,0.0,0.0,0.0,0.0,0.0,0.0,0.0,0.0,0.0,0.0,0.0,0.0,0.0,0.0,0.0,0.0,0.0,0.0,0.0,0.0,0.0,0.0,0.0,0.0,0.0,0.7001,0.7703,0.0,0.7175,0.7594,0.7882,0.7817,0.8203,0.8597,0.8958,0.9039,0.9214,0.9518,0.9531,0.9755,1.0207,1.0207,1.0306,1.0694,1.0694,1.0502,1.0207,1.0886,1.0592,0.9628,1.0301,1.0207,0.9517,0.91,0.8787,0.8577,0.823,0.7923,0.7625,0.7587,0.7614,0.7594,0.7746,0.7736,0.7648,0.7611,0.7492,0.735,0.7295,0.7204,0.7122,0.7122,0.716,0.7224,0.7333,0.7288,0.7227,0.7278,0.7214,0.7139,0.7139,0.7099,0.7034,0.71,0.6951,0.6709,0.6727,0.6744,0.6779,0.6805,0.6845,0.7025,0.7273,0.735,0.7391,0.7391,0.7293,0.7175,0.7049,0.6818,0.6607,0.6428,0.6306,0.6164,0.5986,0.5807,0.5354,0.4663,0.4154,0.3429,0.0,0.0,0.0,0.0,0.0,0.0,0.0,0.0,0.0,0.0,0.0,0.0,0.0,0.0,0.0,0.0,0.0,0.0,0.0,0.0,0.0,0.0,0.0,0.0,0.0,0.0,0.7533,0.7646,0.8304,0.8511,0.7906,0.8333,0.8649,0.8649,0.8926,0.9198,0.9433,0.9445,0.9693,1.0109,1.0109,1.0502,1.1184,1.1184,1.1375,1.1663,1.138,1.0988,1.0694,1.1077,1.0592,0.9628,1.0306,1.0306,0.9628,0.943,0.9335,0.9331,0.8928,0.8663,0.8394,0.8199,0.8072,0.8,0.8004,0.7974,0.7872,0.778,0.7746,0.774,0.7685,0.7672,0.7662,0.7614,0.76,0.76,0.76,0.7522,0.7448,0.7448,0.7329,0.7217,0.7217,0.718,0.7323,0.7507,0.7375,0.7289,0.7316,0.7391,0.7469,0.735,0.7411,0.7512,0.7569,0.7577,0.7553,0.7488,0.7378,0.7289,0.7228,0.6944,0.6696,0.6522,0.6153,0.5903,0.5793,0.5502,0.5147,0.4564,0.4063,0.3281,0.2289,0.0,0.0,0.0,0.0,0.0,0.0,0.0,0.0,0.0,0.0,0.0,0.0,0.0,0.0,0.0,0.0,0.0,0.0,0.0,0.0,0.0,0.0,0.0,0.6733,0.7488,0.8044,0.8052,0.8682,0.8978,0.8633,0.9064,0.9364,0.9364,0.9527,0.9628,0.9636,0.9636,1.0122,1.1194,1.1292,1.2262,1.4226,1.4322,1.4796,1.5757,1.47,1.3732,1.2651,1.1678,1.0708,0.9644,0.964,0.9636,0.9636,0.9628,0.9628,0.9529,0.9023,0.8825,0.8825,0.8528,0.8432,0.8333,0.8137,0.8038,0.8038,0.8038,0.8038,0.8011,0.7865,0.7818,0.779,0.7651,0.7614,0.7614,0.7614,0.7611,0.7607,0.7607,0.7489,0.738,0.738,0.7444,0.7514,0.7514,0.7552,0.7695,0.7874,0.7979,0.802,0.802,0.8016,0.0,0.7789,0.7768,0.7695,0.7512,0.7492,0.7423,0.7174,0.7062,0.6875,0.6627,0.5879,0.5494,0.549,0.5135,0.4973,0.498,0.4069,0.3192,0.2401,0.0,0.0,0.0,0.0,0.0,0.0,0.0,0.0,0.0,0.0,0.0,0.0,0.0,0.0,0.0,0.0,0.0,0.0,0.0,0.0,0.0,0.0,0.7646,0.765,0.8199,0.8694,0.8954,0.9279,0.9441,0.9344,0.9466,0.9551,0.9551,0.96,0.9681,0.9807,1.0615,1.1281,1.1725,1.2537,1.3238,1.3746,1.3746,1.3947,1.4242,1.3947,1.3646,1.3339,1.2941,1.2238,1.1216,1.097,1.051,0.9803,0.9681,0.9628,0.9529,0.9229,0.9133,0.9031,0.8829,0.8531,0.8432,0.8333,0.8137,0.8038,0.8038,0.8038,0.8031,0.7991,0.7977,0.797,0.7929,0.7919,0.7919,0.7919,0.7834,0.7753,0.7753,0.7641,0.7536,0.7536,0.7509,0.7493,0.7858,0.7901,0.7872,0.8043,0.8162,0.8215,0.8215,0.8097,0.0,0.7951,0.7943,0.7874,0.7703,0.7683,0.7454,0.682,0.654,0.6109,0.5359,0.4941,0.4671,0.4568,0.4487,0.4259,0.3996,0.3329,0.2921,0.0,0.0,0.0,0.0,0.0,0.0,0.0,0.0,0.0,0.0,0.0,0.0,0.0,0.0,0.0,0.0,0.0,0.0,0.0,0.0,0.0,0.0,0.8048,0.8491,0.8564,0.8844,0.9149,0.9437,0.9563,0.9628,0.9628,0.9693,0.9734,0.9734,0.9807,1.0095,1.0702,1.1318,1.2186,1.3233,1.3948,1.4462,1.4862,1.4862,1.4862,1.4862,1.4462,1.4055,1.3539,1.3033,1.2211,0.0,1.0964,1.0612,0.9985,0.9811,0.9734,0.0,0.0,0.0,0.0,0.0,0.8829,0.8528,0.8432,0.8336,0.8137,0.8038,0.8038,0.8038,0.8038,0.8038,0.8038,0.8038,0.8038,0.8038,0.8038,0.7974,0.7906,0.7906,0.7794,0.7689,0.7689,0.7476,0.7444,0.784,0.766,0.0,0.7683,0.8123,0.8406,0.8406,0.8052,0.7785,0.7716,0.7453,0.7224,0.699,0.6995,0.6756,0.627,0.5992,0.0,0.0,0.0,0.4209,0.4027,0.4072,0.0,0.0,0.0,0.0,0.0,0.0,0.0,0.0,0.1468,0.131,0.0,0.0,0.0,0.0,0.0,0.0,0.0,0.0,0.0,0.0,0.0,0.0,0.0,0.0,0.0,0.0,0.8787,0.9185,0.936,0.9384,0.9445,0.9608,0.9628,0.9636,0.9657,0.9795,0.9892,0.9916,1.0067,1.0685,1.1629,0.0,0.0,0.0,0.0,1.5891,1.68,1.6807,1.6807,1.68,1.5783,1.4759,1.3626,1.2491,1.1354,1.0427,1.0305,1.0193,1.018,0.9994,0.9904,0.9868,0.9693,0.9628,0.9529,0.9335,0.9031,0.8726,0.8531,0.0,0.0,0.8038,0.8038,0.8038,0.8038,0.8038,0.8038,0.8038,0.7939,0.7839,0.7839,0.7739,0.7637,0.7637,0.7537,0.7443,0.7544,0.7238,0.7007,0.753,0.7034,0.6706,0.7012,0.7775,0.8388,0.8388,0.776,0.7351,0.7135,0.6595,0.6114,0.5984,0.0,0.0,0.569,0.5452,0.5298,0.5208,0.4539,0.3973,0.3774,0.3806,0.3869,0.3881,0.3906,0.3799,0.3544,0.3321,0.2979,0.2597,0.2015,0.1748,0.0,0.0,0.0,0.0,0.0,0.0,0.0,0.0,0.0,0.0,0.0,0.0,0.0,0.0,0.0,0.8649,0.9047,0.9368,0.9551,0.9575,0.9587,0.9624,0.9628,0.9681,0.9819,0.9864,0.9945,1.0099,1.014,1.033,1.069,1.2475,0.0,1.4316,1.6132,1.7199,1.7415,1.7415,1.7415,1.7415,0.0,0.0,1.5388,1.326,1.2192,1.1859,1.0864,1.0383,1.0367,1.0184,1.0018,0.9868,0.9693,0.9628,0.9628,0.9529,0.9225,0.8825,0.8726,0.8432,0.8038,0.8041,0.8038,0.8038,0.8038,0.8038,0.0,0.8038,0.7338,0.6736,0.6736,0.6029,0.5425,0.5425,0.5411,0.5497,0.5902,0.5912,0.5922,0.6675,0.6584,0.647,0.6618,0.6774,0.6786,0.6786,0.6694,0.6596,0.6571,0.648,0.6337,0.6117,0.6163,0.5852,0.517,0.4952,0.455,0.4006,0.3676,0.3557,0.3449,0.3538,0.3623,0.3693,0.3639,0.3732,0.3822,0.3758,0.3724,0.3624,0.246,0.1734,0.0,0.0,0.0,0.0,0.0,0.0,0.0,0.0,0.0,0.0,0.0,0.7703,0.0,0.0,0.884,0.9279,0.9502,0.9685,0.9868,0.9815,0.9726,0.964,0.9705,0.9791,0.9876,1.005,1.0197,1.029,1.0379,1.0997,1.2154,1.2797,1.4019,1.5743,1.6399,1.7041,1.7582,1.7582,1.7582,1.7582,1.6399,1.5535,1.4888,1.3166,1.2091,1.1551,1.0812,1.0562,1.055,1.0371,1.0188,1.0006,0.9827,0.9701,0.9628,0.9628,0.9426,0.9126,0.8924,0.8627,0.8333,0.8038,0.8038,0.7939,0.7338,0.7238,0.7135,0.6531,0.6029,0.5629,0.5629,0.5227,0.4824,0.4824,0.5027,0.5231,0.5534,0.5594,0.5738,0.6466,0.6018,0.5656,0.601,0.5707,0.561,0.6263,0.6077,0.5902,0.5902,0.5544,0.5341,0.5285,0.5231,0.5006,0.4614,0.4472,0.4201,0.3834,0.3748,0.3679,0.3634,0.372,0.3767,0.3763,0.3808,0.3877,0.3967,0.4014,0.3974,0.3761,0.3111,0.2592,0.0,0.0,0.0,0.0,0.0,0.0,0.0,0.0,0.7248,0.7975,0.826,0.8511,0.8946,0.9177,0.9445,0.9872,0.9937,0.9989,1.014,1.0002,0.9835,0.9693,0.9803,0.99,0.9937,1.0241,1.0448,1.0481,1.0611,1.1555,1.3383,1.2738,1.3706,1.6505,1.618,1.6293,1.7259,1.7259,1.7259,1.7259,1.5861,1.4674,1.3706,1.263,1.1555,1.0692,1.0692,1.0692,1.068,1.0542,1.0379,1.0201,1.005,0.9864,0.9673,0.964,0.9529,0.943,0.9027,0.8726,0.8528,0.7935,0.7637,0.7338,0.6334,0.6134,0.5932,0.5024,0.4724,0.4624,0.4524,0.4423,0.4325,0.4325,0.4628,0.5033,0.5233,0.5336,0.5511,0.6116,0.5417,0.4899,0.5372,0.4911,0.482,0.5866,0.556,0.5193,0.5193,0.4656,0.43,0.43,0.4238,0.4191,0.4173,0.4106,0.4055,0.4036,0.4036,0.4004,0.3928,0.3997,0.401,0.3955,0.4024,0.4071,0.4087,0.4179,0.4047,0.3696,0.3841,0.3495,0.6978,0.6567,0.0,0.7135,0.7098,0.7313,0.0,0.0,0.856,0.9271,0.9555,0.9693,0.9754,0.9916,1.0063,1.0123,1.0132,1.014,1.016,1.0002,0.988,0.986,0.9876,0.9949,1.0115,1.0314,1.0497,1.0651,1.068,1.0802,1.1122,1.1878,1.263,1.2955,1.4888,1.5968,1.6074,1.6074,1.6074,1.6074,1.3814,1.2738,1.2521,1.1446,1.0798,1.0692,1.0692,1.0692,1.0688,1.0672,1.0562,1.04,1.0383,1.016,0.9839,0.9685,0.943,0.9236,0.9133,0.8531,0.763,0.7129,0.6434,0.5734,0.5127,0.5024,0.4924,0.4824,0.4423,0.4024,0.3524,0.3022,0.2622,0.2622,0.2723,0.3025,0.3932,0.4133,0.4331,0.492,0.492,0.4794,0.4803,0.4683,0.4618,0.4629,0.4531,0.4389,0.4389,0.4389,0.43,0.43,0.4291,0.4255,0.4179,0.4163,0.4122,0.404,0.4036,0.4032,0.4022,0.403,0.4069,0.4142,0.4153,0.4195,0.4269,0.4361,0.4314,0.4316,0.4416,0.3944,0.7668,0.0,0.0,0.0,0.8158,0.8426,0.9275,0.9238,0.9198,0.9811,0.9908,0.9884,0.9884,0.9949,1.0034,0.0,1.0253,1.0355,1.0456,1.0225,1.0046,1.0046,0.9949,0.9957,1.0144,1.0327,1.0505,1.068,1.0692,1.1017,1.1664,1.1555,1.1982,1.3383,1.3706,1.4137,1.4888,1.4888,1.4888,1.4781,1.3166,1.2417,1.2309,1.1232,1.0692,1.0692,1.0692,1.0692,1.0692,1.0692,1.0647,1.0574,1.0473,1.0339,1.0172,0.9884,0.9614,0.9331,0.8737,0.8237,0.7736,0.6833,0.6334,0.5934,0.5031,0.483,0.463,0.4029,0.3728,0.3528,0.3228,0.3027,0.2826,0.2826,0.3127,0.3428,0.3932,0.4234,0.4533,0.4734,0.4834,0.4822,0.4787,0.4741,0.4681,0.4606,0.4516,0.4438,0.4385,0.4379,0.4357,0.4304,0.43,0.4283,0.4249,0.4246,0.423,0.4191,0.4187,0.4187,0.4187,0.4187,0.4208,0.4244,0.4246,0.4289,0.4379,0.4416,0.4463,0.4518,0.461,0.4244,0.7878,0.0,0.0,0.8621,0.8982,0.9303,0.9527,0.9579,0.9689,1.0083,1.0054,0.9961,0.9961,0.9961,0.0,1.0209,1.0351,1.0493,1.0668,1.0387,1.016,1.016,0.9953,0.9884,1.0067,1.0298,1.0505,1.068,1.0692,1.1038,1.1959,1.1202,1.155,1.3237,1.2803,1.2913,1.3785,1.3785,1.3754,1.3692,1.2612,1.1932,1.1878,1.1126,1.0692,1.0692,1.0692,1.0692,1.0692,1.0692,1.0692,1.068,1.0554,1.0477,1.0289,0.9868,0.9544,0.9191,0.835,0.7839,0.7338,0.6337,0.5934,0.5534,0.4634,0.4334,0.4234,0.343,0.3331,0.3432,0.323,0.3331,0.343,0.343,0.3732,0.4033,0.4234,0.4533,0.4834,0.4834,0.4834,0.4834,0.4834,0.4783,0.4644,0.4349,0.4199,0.4315,0.4394,0.4473,0.4436,0.4346,0.4336,0.4326,0.4302,0.43,0.43,0.43,0.43,0.43,0.43,0.4322,0.4336,0.4336,0.4361,0.4408,0.4473,0.4498,0.4545,0.4612,0.4702,0.4445,0.0,0.0,0.8637,0.8991,0.9348,0.9705,1.0059,1.0136,1.0144,1.0156,1.0156,1.0152,1.0152,1.0152,1.0213,1.0396,1.0432,1.0493,1.0668,1.0387,1.016,1.016,0.9851,0.9701,0.0,1.0221,1.0505,1.068,1.0692,1.0769,1.1064,1.096,1.1037,1.1315,1.2337,1.3017,1.3017,1.3017,1.2923,1.2729,1.1625,1.0978,1.0802,1.0692,1.0692,1.0692,1.0692,1.0692,1.0692,1.0692,1.0692,1.0692,1.0684,1.0582,1.0305,0.9376,0.8891,0.8733,0.8482,0.7338,0.5939,0.5432,0.473,0.3932,0.343,0.323,0.323,0.323,0.3531,0.3833,0.3331,0.3632,0.3932,0.3932,0.4033,0.4133,0.4634,0.4834,0.4834,0.4834,0.4834,0.4834,0.4834,0.4832,0.4429,0.3422,0.3219,0.3574,0.4494,0.4569,0.4532,0.444,0.443,0.4395,0.4306,0.43,0.43,0.43,0.43,0.43,0.43,0.4383,0.443,0.443,0.4518,0.4565,0.4569,0.4657,0.4702,0.4706,0.4792,0.4529,0.0,0.0,0.9801,1.0446,1.0807,1.1035,1.0755,1.0681,1.0681,1.0264,0.9973,0.9807,0.9807,0.9807,0.9864,1.0042,1.0278,1.0493,1.0668,1.0489,1.0298,1.0176,1.0054,0.0,0.0,0.0,0.0,1.0501,1.0521,1.0651,1.0952,1.0968,1.1045,1.1216,1.1561,1.1791,1.1791,1.1791,1.1761,1.1697,1.1247,1.0936,1.0871,1.0749,1.0692,1.0692,1.0692,1.0692,1.0692,1.0692,1.0692,1.0692,1.0692,1.0323,0.9704,0.9219,0.8213,0.7119,0.6911,0.6439,0.5842,0.5133,0.4734,0.4533,0.4334,0.4234,0.4234,0.4234,0.4433,0.4533,0.4334,0.4433,0.4533,0.4533,0.4533,0.4533,0.4734,0.4834,0.4834,0.4834,0.4834,0.4531,0.3828,0.3728,0.3324,0.2318,0.2094,0.2166,0.2527,0.2494,0.2372,0.2356,0.2355,0.2348,0.2332,0.2331,0.2331,0.2331,0.2331,0.2331,0.2331,0.2346,0.2732,0.3484,0.3507,0.3926,0.4663,0.4006,0.3649,0.3695,0.3015,0.2418,0.0,1.0113,1.0596,1.112,1.1573,1.1737,1.1176,1.1141,1.1034,1.0319,0.9987,0.9761,0.9469,0.9341,0.9368,0.9734,0.9989,1.0274,1.0639,1.0546,1.0391,1.0274,1.0257,1.0257,0.0,0.0,0.0,1.0505,1.059,1.0753,1.1045,1.1122,1.124,1.1415,1.1419,1.1419,1.1419,1.1419,1.1386,1.1317,1.1143,1.1029,1.0964,1.0846,1.0753,1.0692,1.0692,1.0692,1.0692,1.0692,1.0692,1.0692,1.0359,0.9915,0.9343,0.854,0.7463,0.6401,0.6177,0.5871,0.5438,0.4935,0.4834,0.4834,0.4834,0.4834,0.4834,0.4834,0.4834,0.4834,0.4834,0.4834,0.4834,0.4834,0.4531,0.423,0.423,0.3927,0.3626,0.3626,0.3626,0.3425,0.272,0.2317,0.1813,0.1109,0.0699,0.0693,0.1485,0.1469,0.1357,0.1347,0.1346,0.1343,0.1333,0.1332,0.1332,0.1332,0.1332,0.1332,0.1332,0.1341,0.1731,0.2402,0.2516,0.2834,0.3566,0.287,0.2589,0.262,0.1915,0.1412,0.9973,1.0628,1.1132,1.1399,1.1659,1.1775,1.1424,1.1508,1.1388,1.0215,0.9971,0.9868,0.0,0.0,0.8787,0.9466,0.962,0.9892,1.0582,1.0554,1.0461,0.0,0.0,0.0,0.0,0.0,0.0,1.0708,0.0,1.1037,1.1228,1.1403,1.1585,1.1768,1.1776,1.1776,1.1776,1.1776,1.1687,1.1512,1.1325,1.1147,1.098,1.0972,1.0867,1.0692,1.0692,1.0692,1.0692,1.0692,1.0692,1.0578,0.9695,0.9361,0.9013,0.7242,0.6549,0.6514,0.6185,0.5526,0.4841,0.4836,0.4834,0.4834,0.4834,0.4834,0.4834,0.4834,0.4834,0.4834,0.4834,0.4834,0.4834,0.4734,0.3927,0.3224,0.3123,0.2318,0.1613,0.1613,0.1513,0.1513,0.1513,0.0605,-0.0101,-0.0101,-0.0908,-0.0909,0.121,0.1412,0.1402,0.1377,0.1374,0.1267,0.1147,0.1145,0.1145,0.1145,0.1145,0.1145,0.1145,0.1263,0.1374,0.1374,0.1499,0.1513,0.1613,0.1513,0.1513,0.1513,0.1513,0.1412,1.0894,1.1754,1.2585,1.3021,1.3246,1.3069,1.2442,1.1998,1.1375,1.0334,0.9522,0.8826,0.8395,0.0,0.0,0.8808,0.9506,0.0,1.0456,1.0692,0.0,0.0,0.0,1.0972,1.0846,1.0948,0.0,0.0,1.0887,1.0956,1.1407,1.1472,1.1585,1.1768,1.1776,1.1776,1.1776,1.1776,1.1752,1.1703,1.152,1.1334,1.1151,1.1025,1.0867,1.0692,1.0692,1.0692,1.0692,1.0692,1.0359,0.9691,0.9471,0.8589,0.7374,0.6901,0.6179,0.5552,0.543,0.522,0.4924,0.4857,0.4834,0.4834,0.4834,0.4834,0.4834,0.4834,0.4834,0.4834,0.4834,0.4834,0.4632,0.3827,0.3425,0.3022,0.2217,0.1815,0.1613,0.1613,0.0907,0.0403,0.0403,-0.0504,-0.1212,-0.1212,-0.1414,-0.1414,-0.0808,-0.0808,-0.0806,-0.0802,-0.0802,-0.08,-0.0896,-0.0896,-0.0896,-0.0896,-0.0896,-0.0896,-0.0896,-0.08,-0.0401,0.04,0.0402,0.0806,0.1613,0.0806,0.0403,0.0403,-0.0404,-0.0808,1.1568,1.227,1.2971,1.3077,1.3215,1.2977,1.1663,1.1363,1.0885,0.9308,0.8555,0.0,0.0,0.0,0.0,0.0,0.0,0.0,1.0375,1.0745,1.0932,0.0,1.1126,0.0,1.1212,1.1289,1.1378,0.0,1.1438,1.1523,1.1484,1.1807,1.1902,1.1772,1.1776,1.1776,1.1776,1.1776,1.1776,1.1776,1.1671,1.1524,1.1338,1.1163,1.0984,1.081,0.0,1.0692,1.0692,1.0249,0.9805,0.9361,0.8478,0.7595,0.6604,0.627,0.5791,0.5292,0.52,0.5108,0.501,0.4877,0.4834,0.4834,0.4834,0.4834,0.4834,0.4834,0.4834,0.4834,0.4834,0.4431,0.3927,0.3324,0.2518,0.1611,0.1008,0.0504,0.0202,0.0202,-0.0303,-0.0706,-0.0706,-0.1614,-0.2321,-0.2321,-0.2722,-0.3022,-0.3022,-0.2622,-0.2321,-0.2321,-0.2321,-0.212,-0.1617,-0.1617,-0.1617,-0.1617,-0.1617,-0.1617,-0.1617,-0.1617,-0.1313,-0.0706,-0.0706,-0.0404,0.0202,-0.0404,-0.0706,-0.0706,-0.1313,-0.1617,1.1935,1.2543,1.2901,1.2447,1.2467,1.2123,1.0251,1.0236,1.0083,0.8116,0.0,0.0,0.6954,0.0,0.7407,0.8077,0.0,0.9571,1.0298,1.0729,1.0976,1.1001,1.1433,1.1651,1.1537,1.1651,1.1721,1.1881,1.2341,1.2364,1.1537,1.2273,1.2483,1.1893,1.1893,1.1893,1.1776,1.1893,1.1893,1.1776,1.1776,1.1679,1.1492,1.1309,1.1131,1.096,0.0,0.0,1.0468,0.9581,0.914,0.892,0.7265,0.6604,0.6381,0.5714,0.5382,0.5369,0.5275,0.5184,0.5079,0.4908,0.4845,0.4834,0.4834,0.4834,0.4834,0.4834,0.4734,0.4632,0.4632,0.3827,0.2922,0.282,0.1309,-0.0,-0.0202,-0.1009,-0.1818,-0.2019,-0.2019,-0.2019,-0.2019,-0.2822,-0.3423,-0.3423,-0.4223,-0.4824,-0.5024,-0.4124,-0.3423,-0.3423,-0.3423,-0.3022,-0.212,-0.2019,-0.2019,-0.2019,-0.1918,-0.1818,-0.1818,-0.1718,-0.1617,-0.1617,-0.1617,-0.1617,-0.1617,-0.1617,-0.1617,-0.1617,-0.1617,-0.1617,1.1846,1.2548,1.3209,1.2911,1.2663,1.2073,1.0777,0.9909,0.0,0.0,0.0,0.6813,0.6351,0.67,0.0,0.7553,0.0,0.0,0.0,0.0,1.1021,0.0,0.0,0.0,0.0,0.0,0.0,0.0,0.0,1.2919,1.1848,1.235,1.2603,1.2603,1.2483,1.2247,1.1776,1.2247,1.2247,1.1776,1.1776,1.1679,1.1492,1.1309,1.1131,1.096,0.999,0.0,0.9581,0.8585,0.7814,0.7157,0.6824,0.627,0.5605,0.5493,0.5382,0.5369,0.5275,0.5184,0.509,0.4983,0.4898,0.4834,0.4834,0.4834,0.4834,0.4834,0.413,0.3525,0.3525,0.272,0.1613,0.0806,0.0302,-0.0202,-0.1111,-0.2118,-0.3224,-0.4024,-0.4225,-0.4225,-0.4225,-0.4423,-0.4524,-0.4524,-0.4724,-0.5127,-0.6032,-0.5229,-0.4524,-0.4524,-0.4524,-0.4423,-0.4225,-0.4225,-0.4225,-0.4225,-0.3423,-0.2923,-0.2923,-0.212,-0.1617,-0.1617,-0.1617,-0.1617,-0.1617,-0.1617,-0.1617,-0.1617,-0.1819,-0.1921,1.1499,1.1912,1.2331,1.2331,1.2142,1.1468,0.9808,0.0,0.0,0.0,0.0,0.5268,0.505,0.0,0.0,0.0,0.0,0.0,0.0,0.0,0.0,0.0,0.0,0.0,0.0,0.0,0.0,0.0,0.0,1.3449,1.2853,1.3089,1.3204,1.3204,1.3204,1.3089,1.2733,1.3089,1.2844,1.2247,1.2247,1.203,1.1492,1.1309,1.0898,1.0273,0.9654,0.0,0.8585,0.7703,0.7043,0.6604,0.6158,0.5714,0.5382,0.5382,0.5382,0.5375,0.5331,0.5224,0.4994,0.4425,0.4433,0.4834,0.4834,0.4431,0.3927,0.3927,0.3224,0.2318,0.2318,0.1613,0.0605,0.0101,-0.0806,-0.1813,-0.232,-0.3324,-0.4225,-0.4724,-0.4824,-0.4824,-0.4824,-0.5227,-0.5629,-0.5629,-0.6129,-0.6631,-0.7135,-0.683,-0.6229,-0.5729,-0.5629,-0.5427,-0.4824,-0.4824,-0.4824,-0.4824,-0.4325,-0.4024,-0.4024,-0.3524,-0.3224,-0.3224,-0.3224,-0.3224,-0.3224,-0.3224,-0.3324,-0.3527,-0.3627,-0.3426,1.1054,1.1177,1.127,1.1493,1.1327,1.0582,0.8515,0.7829,0.0,0.0,0.0,0.4024,0.4024,0.0,0.0,0.0,0.0,0.0,0.0,0.0,0.0,0.0,0.0,0.0,0.0,0.0,0.0,0.0,0.0,0.0,1.3923,1.3808,1.3808,1.3923,1.3923,1.3808,1.3688,1.3808,1.3439,1.2719,1.2719,1.2141,1.1252,1.0957,1.0322,0.9253,0.8988,0.0,0.0,0.6824,0.6381,0.6381,0.5714,0.5382,0.5382,0.5382,0.5268,0.5043,0.5043,0.4711,0.4254,0.3403,0.3738,0.4431,0.423,0.3525,0.2821,0.2821,0.2116,0.121,0.121,0.0504,-0.0403,-0.0605,-0.2015,-0.3324,-0.3827,-0.4526,-0.5227,-0.5425,-0.5622,-0.5819,-0.5819,-0.6722,-0.7425,-0.7425,-0.8127,-0.8726,-0.8726,-0.8726,-0.8326,-0.7524,-0.7033,-0.6531,-0.5922,-0.5625,-0.5527,-0.5527,-0.5225,-0.5127,-0.5127,-0.4924,-0.4824,-0.4824,-0.4824,-0.4824,-0.4924,-0.4924,-0.5027,-0.5329,-0.5329,-0.5029,1.0589,1.0878,1.0966,1.087,1.0515,0.9648,0.762,0.0,0.0,0.0,0.416,0.4024,0.4024,0.4203,0.0,0.0,0.0,0.0,0.0,0.0,0.0,0.0,0.0,0.0,0.0,0.0,0.0,0.0,0.0,0.0,1.451,1.4043,1.3923,1.451,1.451,1.4277,1.3688,1.4277,1.3913,1.2719,1.2719,1.1898,1.0299,1.0135,0.9398,0.8344,0.743,0.0,0.0,0.5826,0.5493,0.5493,0.5382,0.5382,0.5382,0.5382,0.4704,0.3805,0.3805,0.2955,0.2019,0.1913,0.249,0.3123,0.2217,0.1815,0.1714,0.1714,0.1008,0.0101,0.0101,-0.0605,-0.1716,-0.272,-0.3022,-0.3725,-0.5734,-0.6134,-0.6534,-0.7537,-0.852,-0.9205,-0.9205,-1.0092,-1.0774,-1.0774,-1.0877,-1.0877,-1.0877,-1.0877,-1.0877,-1.0779,-0.9015,-0.823,-0.911,-0.8226,-0.7736,-0.7736,-0.6836,-0.6234,-0.6234,-0.5327,-0.4824,-0.4824,-0.4824,-0.4926,-0.5129,-0.5129,-0.5327,-0.5525,-0.5827,-0.5929,0.992,1.0163,1.0387,1.0623,1.0069,0.8997,0.7729,0.0,0.0,0.3993,0.3444,0.319,0.319,0.3281,0.3664,0.0,0.4913,0.5209,0.0,0.0,0.0,0.0,0.0,0.0,0.0,0.0,0.0,0.0,0.0,0.0,1.5235,1.5002,1.4997,1.5235,1.5235,1.5116,1.4883,1.4147,1.3306,1.2346,1.1391,1.0306,0.9101,0.8954,0.8357,0.7334,0.6844,0.0,0.0,0.5493,0.5382,0.5382,0.4592,0.4367,0.4254,0.3471,0.2911,0.2463,0.2463,0.2189,0.1594,0.0957,0.0935,0.131,0.1512,0.1109,0.0605,0.0605,-0.0101,-0.1009,-0.1009,-0.1715,-0.2822,-0.3924,-0.512,-0.6315,-0.7217,-0.8407,-0.9399,-0.9801,-1.0293,-1.0587,-1.0587,-1.0877,-1.117,-1.117,-1.117,-1.117,-1.117,-1.117,-1.1463,-1.2047,-1.0779,-1.0096,-1.0489,-1.0194,-0.9899,-0.9899,-0.8913,-0.8319,-0.8319,-0.7325,-0.6731,-0.6731,-0.6731,-0.6731,-0.6933,-0.703,-0.7226,-0.7521,-0.7829,-0.7627,0.902,0.9201,0.9426,0.963,0.8898,0.7871,0.0,0.0,0.4466,0.34,0.2914,0.2691,0.2691,0.2691,0.2989,0.3894,0.3958,0.4161,0.5107,0.0,0.0,0.0,0.0,0.0,0.0,0.0,0.0,0.0,0.0,0.0,0.0,1.451,1.4748,1.5601,1.5235,1.4997,1.4997,1.354,1.2462,1.1736,1.0606,0.9389,0.8203,0.8073,0.7381,0.627,0.0,0.0,0.0,0.5382,0.5156,0.4817,0.3917,0.3357,0.291,0.2127,0.1567,0.1232,0.1232,0.0989,0.0535,-0.0213,-0.0417,-0.0406,0.0404,0.0101,-0.0504,-0.0504,-0.1211,-0.212,-0.212,-0.2822,-0.3924,-0.5027,-0.6716,-0.8107,-0.8403,-0.9887,-1.117,-1.117,-1.1463,-1.1755,-1.1945,-1.2237,-1.2528,-1.2716,-1.2813,-1.2813,-1.2813,-1.2813,-1.3102,-1.3788,-1.3011,-1.2237,-1.1658,-1.1365,-1.117,-1.117,-1.0489,-1.0096,-1.0096,-0.941,-0.9019,-0.9019,-0.9114,-0.9019,-0.8825,-0.9019,-0.9122,-0.9027,-0.9232,-0.9031,0.789,0.8083,0.8004,0.7327,0.6725,0.6089,0.0,0.4389,0.3768,0.286,0.2691,0.2691,0.2691,0.2691,0.2721,0.2815,0.4179,0.5002,0.4255,0.0,0.0,0.0,0.0,0.0,0.0,0.0,0.0,0.0,0.0,0.0,0.0,1.1732,1.2937,1.5477,1.4391,1.3665,1.3665,1.2337,1.1378,1.0785,1.0617,0.951,0.7619,0.7506,0.6709,0.0,0.0,0.0,0.0,0.5382,0.4704,0.358,0.358,0.291,0.1791,0.1791,0.1008,0.0,0.0,-0.0776,-0.1744,-0.1714,-0.1685,-0.1656,-0.1626,-0.1617,-0.1617,-0.1617,-0.2321,-0.3224,-0.3224,-0.4024,-0.5027,-0.6134,-0.7223,-0.8305,-0.9308,-1.0391,-1.117,-1.117,-1.195,-1.292,-1.368,-1.4657,-1.5629,-1.6393,-1.6581,-1.6581,-1.6581,-1.6581,-1.6588,-1.6581,-1.5818,-1.4663,-1.2823,-1.1755,-1.117,-1.117,-1.117,-1.117,-1.117,-1.1463,-1.156,-1.156,-1.1755,-1.1463,-1.0783,-1.0783,-1.0395,-0.9628,-0.9628,-0.9628,0.652,0.6702,0.6865,0.6595,0.5805,0.5075,0.4602,0.3886,0.3182,0.279,0.2691,0.2691,0.2691,0.2691,0.2859,0.3396,0.3864,0.0,0.0,0.0,0.0,0.0,0.0,0.0,0.0,0.0,0.0,0.0,0.0,0.0,0.0,1.1732,1.2093,1.2937,1.2577,1.2333,1.2333,1.0774,0.9768,0.9649,0.8122,0.708,0.647,0.6141,0.0,0.0,0.0,0.0,0.0,0.448,0.3917,0.3469,0.1791,0.0896,0.0448,-0.0336,-0.0897,-0.1234,-0.1234,-0.1442,-0.1962,-0.257,-0.284,-0.2891,-0.3545,-0.3324,-0.2822,-0.3624,-0.4024,-0.4425,-0.5231,-0.5632,-0.6329,-0.812,-0.9399,-1.0476,-1.1458,-1.2533,-1.3511,-1.3986,-1.437,-1.4758,-1.5615,-1.6001,-1.6298,-1.6581,-1.6588,-1.6588,-1.6588,-1.6588,-1.6588,-1.6588,-1.6393,-1.5818,-1.4657,-1.38,-1.3414,-1.3613,-1.2926,-1.2538,-1.2732,-1.2145,-1.1853,-1.1853,-1.1853,-1.175,-1.1556,-1.1755,-1.1755,-1.176,-1.176,-1.176,0.0,0.5509,0.5655,0.5337,0.4683,0.4172,0.3946,0.322,0.2565,0.2379,0.2352,0.2352,0.2352,0.2521,0.284,0.3316,0.352,0.0,0.0,0.0,0.0,0.0,0.0,0.0,0.0,0.0,0.0,0.0,0.0,0.0,0.0,1.0286,1.0261,1.0204,1.0681,1.092,1.092,0.9337,0.8443,0.844,0.708,0.6427,0.631,0.5983,0.0,0.0,0.0,0.0,0.0,0.3807,0.291,0.2127,0.056,-0.0224,-0.0785,-0.157,-0.213,-0.2465,-0.2465,-0.2781,-0.3293,-0.375,-0.3972,-0.4087,-0.5046,-0.4626,-0.3924,-0.4624,-0.5422,-0.6119,-0.6825,-0.7621,-0.851,-0.9895,-1.1263,-1.2431,-1.3017,-1.4178,-1.5343,-1.5724,-1.5818,-1.6103,-1.6857,-1.7044,-1.7145,-1.7426,-1.7785,-1.7963,-1.7963,-1.8326,-1.8411,-1.8056,-1.7684,-1.7217,-1.6372,-1.5622,-1.5255,-1.5452,-1.4943,-1.474,-1.493,-1.4524,-1.4136,-1.3765,-1.3866,-1.3584,-1.2823,-1.2533,-1.2533,-1.2727,-1.2727,-1.2727,0.0,0.4354,0.4372,0.3624,0.3361,0.3203,0.297,0.2382,0.0,0.1745,0.1734,0.1738,0.1807,0.2255,0.2661,0.2768,0.0,0.0,0.0,0.0,0.0,0.0,0.0,0.0,0.0,0.0,0.0,0.0,0.0,0.0,0.0,0.7858,0.7807,0.7693,0.886,0.9446,0.9459,0.8149,0.7505,0.7505,0.7383,0.7098,0.687,0.6763,0.0,0.0,0.0,0.0,0.0,0.3024,0.1681,-0.0,-0.0112,-0.0897,-0.1907,-0.2019,-0.28,-0.3692,-0.3692,-0.447,-0.5331,-0.5262,-0.518,-0.5227,-0.6232,-0.5729,-0.4924,-0.5125,-0.6614,-0.8103,-0.8202,-0.9686,-1.1268,-1.1365,-1.2716,-1.3974,-1.407,-1.5419,-1.6676,-1.677,-1.677,-1.7044,-1.787,-1.7963,-1.8249,-1.8912,-1.9812,-2.043,-2.043,-2.115,-2.1338,-2.052,-1.9687,-1.8956,-1.8048,-1.7131,-1.6676,-1.6676,-1.7117,-1.7382,-1.739,-1.8025,-1.8033,-1.7023,-1.7318,-1.6473,-1.458,-1.3596,-1.3108,-1.3108,-1.3108,-1.3108,0.1796,0.0,0.2711,0.2,0.2002,0.2065,0.0,0.1258,0.1129,0.0,0.0,0.0,0.0,0.0,0.0,0.0,0.0,0.0,0.0,0.0,0.0,0.0,0.0,0.0,0.0,0.0,0.0,0.0,0.0,0.0,0.0,0.7741,0.7687,0.7565,0.7699,0.7927,0.8026,0.7555,0.738,0.7377,0.7032,0.6753,0.6753,0.6507,0.0,0.0,0.0,0.0,0.2239,0.1121,0.0448,-0.0112,-0.1793,-0.2688,-0.3246,-0.3917,-0.4474,-0.5027,-0.5027,-0.5139,-0.5554,-0.6117,-0.673,-0.7335,-0.7537,-0.6836,-0.6329,-0.8014,-0.881,-0.9402,-1.0181,-1.0774,-1.156,-1.2909,-1.3584,-1.4262,-1.571,-1.6292,-1.6951,-1.8226,-1.8495,-1.8956,-2.0512,-2.0782,-2.0791,-2.0979,-2.1248,-2.1329,-2.1329,-2.1606,-2.1606,-2.1418,-2.1239,-2.1051,-2.1042,-1.858,-1.721,-1.7412,-1.7855,-1.8218,-1.8411,-1.8603,-1.8603,-1.8326,-1.8419,-1.8234,-1.7762,-1.7468,-1.7368,-1.7368,-1.7368,-1.7368,0.0428,0.0943,0.1368,0.1064,0.1143,0.117,0.0935,0.0,0.0,0.0,0.0,0.0,0.0,0.0,0.0,0.0,0.0,0.0,0.0,0.0,0.0,0.0,0.0,0.0,0.0,0.0,0.0,0.0,0.0,0.0,0.0,0.7616,0.7562,0.7437,0.7372,0.7369,0.7434,0.7315,0.7252,0.7252,0.7075,0.6599,0.5817,0.5708,0.4812,0.0,0.0,0.0,0.1456,-0.0224,-0.1233,-0.2016,-0.3136,-0.3917,-0.447,-0.4918,-0.5586,-0.6144,-0.6031,-0.6409,-0.7061,-0.7569,-0.7968,-0.8233,-0.8432,-0.8127,-0.7925,-0.9213,-1.0288,-1.1263,-1.2231,-1.2818,-1.3494,-1.4841,-1.5412,-1.6069,-1.7483,-1.8048,-1.8688,-2.0051,-2.0322,-2.0593,-2.1516,-2.1695,-2.1695,-2.1695,-2.205,-2.2306,-2.2306,-2.2755,-2.2843,-2.2394,-2.2394,-2.2385,-2.2041,-2.0747,-1.9926,-1.9844,-1.9943,-2.0124,-2.0232,-2.0158,-1.9894,-1.9521,-1.9063,-1.8788,-1.8788,-1.8788,-1.8788,-1.8788,-1.8788,-1.8788,-0.0504,-0.0262,0.0118,0.0404,0.0416,0.0369,0.0489,0.0,0.0,0.0,0.0,0.0,0.0,0.0,0.0,0.0,0.0,0.0,0.0,0.0,0.0,0.0,0.0,0.0,0.0,0.0,0.0,0.0,0.0,0.0,0.0,0.7491,0.7434,0.7312,0.7309,0.7312,0.7312,0.7211,0.716,0.716,0.716,0.649,0.526,0.481,0.3913,0.0,0.0,0.0,0.0448,-0.1233,-0.2913,-0.4365,-0.4477,-0.492,-0.5584,-0.5695,-0.6478,-0.7482,-0.7346,-0.8053,-0.8996,-0.9183,-0.8973,-0.873,-0.9312,-0.9604,-0.9899,-1.019,-1.1556,-1.3113,-1.3878,-1.4848,-1.5818,-1.6763,-1.7505,-1.8234,-1.9231,-2.0051,-2.0791,-2.1686,-2.2041,-2.212,-2.2296,-2.2463,-2.2551,-2.2551,-2.3163,-2.3684,-2.3684,-2.4413,-2.4594,-2.378,-2.3856,-2.3597,-2.2726,-2.326,-2.3424,-2.2892,-2.2463,-2.2296,-2.2296,-2.2148,-2.1624,-2.0709,-1.9886,-1.9338,-1.9247,-1.9247,-1.9247,-1.9247,-1.9247,-1.9247,-0.1013,-0.1355,-0.1491,-0.0799,-0.0453,-0.0367,-0.0775,0.0,0.0,0.0,0.0,0.0,0.0,0.0,0.0,0.0,0.0,0.0,0.0,0.0,0.0,0.0,0.0,0.0,0.0,0.0,0.0,0.0,0.0,0.0,0.0,0.7364,0.7307,0.7187,0.7198,0.7206,0.7206,0.7187,0.7179,0.7179,0.7187,0.7075,0.6738,0.4252,0.2909,0.0,0.0,0.0784,-0.2352,-0.2689,-0.3583,-0.4921,-0.5704,-0.6146,-0.6589,-0.7371,-0.826,-0.912,-0.9641,-0.9898,-1.0028,-1.0276,-0.9883,-0.962,-1.0587,-1.1648,-1.2608,-1.3097,-1.3488,-1.3974,-1.4949,-1.5812,-1.6756,-1.8319,-1.8772,-1.9322,-2.0962,-2.1418,-2.1774,-2.2746,-2.3501,-2.4265,-2.5041,-2.5797,-2.6295,-2.6295,-2.6378,-2.6472,-2.6472,-2.6565,-2.6659,-2.6472,-2.6472,-2.6235,-2.5579,-2.5841,-2.5768,-2.5115,-2.4145,-2.3531,-2.3531,-2.3444,-2.3115,-2.2432,-2.2246,-2.19,-2.1275,-2.1275,-2.1275,-2.1275,-2.1275,-2.1275,-0.1296,-0.1607,-0.1908,-0.2006,-0.2083,-0.2134,0.0,0.0,0.0,0.0,0.0,0.0,0.0,0.0,0.0,0.0,0.0,0.0,0.0,0.0,0.0,0.0,0.0,0.0,0.0,0.0,0.0,0.0,0.0,0.0,0.0,0.0,0.7236,0.7179,0.7184,0.6619,0.5264,0.6512,0.6512,0.5264,0.5268,0.527,0.5162,0.3808,0.2352,0.0672,0.0,-0.224,-0.3924,-0.4823,-0.5717,-0.6492,-0.6943,-0.749,-0.8254,-0.9144,-0.953,-0.9873,-1.0868,-1.0967,-1.071,-1.1121,-1.1051,-1.0886,-1.2037,-1.2711,-1.3386,-1.474,-1.5229,-1.5697,-1.7001,-1.7662,-1.8488,-2.0703,-2.1239,-2.1673,-2.3517,-2.3872,-2.4139,-2.5115,-2.5619,-2.5964,-2.64,-2.6812,-2.7069,-2.7069,-2.7069,-2.7069,-2.7069,-2.7069,-2.7069,-2.7069,-2.7313,-2.7395,-2.708,-2.7313,-2.6905,-2.5295,-2.468,-2.4241,-2.38,-2.38,-2.3627,-2.3387,-2.3387,-2.3202,-2.2853,-2.2853,-2.2687,-2.2264,-2.2264,-2.2087,-0.1486,-0.1644,-0.1976,-0.2649,0.0,-0.3277,-0.3597,0.0,0.0,0.0,0.0,0.0,0.0,0.0,0.0,0.0,0.0,0.0,0.0,0.0,0.0,0.0,0.0,0.0,0.0,0.0,0.0,0.0,0.0,0.0,0.0,0.0,0.64,0.64,0.6857,0.6289,0.448,0.6298,0.6298,0.448,0.3246,0.2799,0.2801,0.2801,0.0896,-0.2467,-0.4377,-0.5164,-0.5274,-0.6626,-0.7519,-0.8063,-0.8063,-0.8823,-0.9904,-1.0635,-1.075,-1.072,-1.1892,-1.1859,-1.1381,-1.2233,-1.2195,-1.2145,-1.359,-1.3962,-1.4339,-1.6257,-1.7124,-1.7684,-1.8772,-1.948,-2.0532,-2.2814,-2.3649,-2.4312,-2.571,-2.6206,-2.6535,-2.7256,-2.7371,-2.7545,-2.7912,-2.7992,-2.8004,-2.8004,-2.8004,-2.7936,-2.7718,-2.773,-2.773,-2.7799,-2.8131,-2.8291,-2.8199,-2.8267,-2.7614,-2.5841,-2.5359,-2.4861,-2.4327,-2.4317,-2.4231,-2.4059,-2.4059,-2.3973,-2.38,-2.38,-2.3551,-2.3047,-2.3047,-2.2784,-0.1692,-0.174,-0.1837,-0.2126,0.0,0.0,-0.4403,0.0,0.0,0.0,0.0,0.0,0.0,0.0,0.0,0.0,0.0,0.0,0.0,0.0,0.0,0.0,0.0,0.0,0.0,0.0,0.0,0.0,0.0,0.0,0.0,0.0,0.0,0.3805,0.6067,0.7094,0.698,0.7105,0.7105,0.6868,0.2355,0.0224,0.0224,0.0224,-0.2354,-0.6756,-0.698,-0.6972,-0.7067,-0.7182,-0.7838,-0.8813,-0.8813,-0.9688,-1.0975,-1.1349,-1.1912,-1.2375,-1.2897,-1.2625,-1.2463,-1.3722,-1.3431,-1.3017,-1.5051,-1.5994,-1.6633,-1.8203,-1.9314,-1.9877,-1.9031,-2.0783,-2.2988,-2.4063,-2.5489,-2.6689,-2.693,-2.7624,-2.8136,-2.8215,-2.8311,-2.8821,-3.0277,-3.0618,-3.0657,-3.0657,-3.0657,-3.038,-2.9689,-2.9624,-2.9702,-2.9831,-2.9908,-2.9754,-2.9341,-2.8585,-2.8096,-2.8187,-2.6682,-2.5812,-2.5728,-2.5728,-2.5464,-2.4861,-2.4861,-2.4509,-2.38,-2.38,-2.38,-2.3714,-2.3714,-2.3973,-0.1756,-0.2214,-0.2849,-0.3313,0.0,0.0,0.0,0.0,0.0,0.0,0.0,0.0,0.0,0.0,0.0,0.0,0.0,0.0,0.0,0.0,0.0,0.0,0.0,0.0,0.0,0.0,0.0,0.0,0.0,0.0,0.0,0.0,0.0,0.1344,0.2242,0.4155,0.7217,0.427,0.2693,0.2691,0.0897,0.0,-0.0112,-0.3141,-0.5506,-0.7209,-0.7198,-0.719,-0.7293,-0.7835,-0.8269,-0.8696,-0.9689,-1.0401,-1.1027,-1.1476,-1.2151,-1.2832,-1.2672,-1.3199,-1.4019,-1.4232,-1.4484,-1.4854,-1.6285,-1.721,-1.8103,-1.9793,-2.1398,-2.2562,-2.2299,-2.3085,-2.4544,-2.7013,-2.8124,-2.8909,-2.9986,-3.0441,-3.0654,-3.0654,-3.0693,-3.0944,-3.1523,-3.1623,-3.1636,-3.1636,-3.1636,-3.1576,-3.1294,-3.0771,-3.0771,-3.1415,-3.1281,-3.0934,-3.0432,-2.9626,-2.9135,-2.9225,-2.8119,-2.7244,-2.6704,-2.6704,-2.629,-2.5559,-2.5549,-2.538,-2.5105,-2.5105,-2.5009,-2.4904,-2.4904,-2.4893,-0.2271,-0.2834,-0.3556,0.0,0.0,0.0,0.0,0.0,0.0,0.0,0.0,0.0,0.0,0.0,0.0,0.0,0.0,0.0,0.0,0.0,0.0,0.0,0.0,0.0,0.0,0.0,0.0,0.0,0.0,0.0,0.0,0.0,0.0,0.0,0.0,0.157,0.495,0.0112,-0.2243,-0.2243,-0.1457,-0.1569,-0.2355,-0.5734,-0.7206,-0.7201,-0.7187,-0.7402,-0.7616,-0.8269,-0.8786,-0.9388,-1.089,-1.1649,-1.1882,-1.2304,-1.3137,-1.3975,-1.3512,-1.4152,-1.5045,-1.5146,-1.5439,-1.6103,-1.7505,-1.8411,-1.9455,-2.1389,-2.3142,-2.4703,-2.571,-2.5959,-2.6606,-2.9036,-3.0215,-3.0979,-3.1915,-3.229,-3.2434,-3.2434,-3.229,-3.2218,-3.2733,-3.2591,-3.2434,-3.2434,-3.2434,-3.2362,-3.2146,-3.1636,-3.1549,-3.2349,-3.2087,-3.1676,-3.1394,-3.0558,-3.0101,-3.0101,-2.9537,-2.8755,-2.7649,-2.7568,-2.7336,-2.6693,-2.6456,-2.6373,-2.6539,-2.6218,-2.603,-2.608,-2.608,-2.5997,-0.3323,-0.3505,0.0,0.0,0.0,0.0,0.0,0.0,0.0,0.0,0.0,0.0,0.0,0.0,0.0,0.0,0.0,0.0,0.0,0.0,0.0,0.0,0.0,0.0,0.0,0.0,0.0,0.0,0.0,0.0,0.0,0.0,0.0,0.0,0.0,-0.0,-0.0112,-0.4828,-0.7206,-0.7206,-0.4817,-0.4819,-0.7209,-0.7209,-0.7201,-0.7182,-0.7182,-0.7724,-0.8484,-0.8481,-0.9483,-1.0941,-1.2433,-1.345,-1.4134,-1.3891,-1.4783,-1.6115,-1.583,-1.5439,-1.5235,-1.6567,-1.6466,-1.6271,-1.8527,-1.9869,-2.098,-2.2853,-2.4405,-2.6052,-2.8633,-2.9437,-2.9603,-2.9603,-3.1496,-3.3003,-3.229,-3.272,-3.3213,-3.3213,-3.2648,-3.2591,-3.4113,-3.3742,-3.3213,-3.3213,-3.3213,-3.2932,-3.2218,-3.2146,-3.2304,-3.269,-3.22,-3.1896,-3.2074,-3.1468,-3.0986,-3.0986,-3.0986,-3.0254,-2.8505,-2.8426,-2.8426,-2.8426,-2.7649,-2.7418,-2.7799,-2.6928,-2.6775,-2.7185,-2.7185,-2.7441,-0.3534,-0.4395,0.0,0.0,0.0,0.0,0.0,0.0,0.0,0.0,0.0,0.0,0.0,0.0,0.0,0.0,0.0,0.0,0.0,0.0,0.0,0.0,0.0,0.0,0.0,0.0,0.0,0.0,0.0,0.0,0.0,0.0,0.0,0.0,0.0,-0.1408,-0.4445,-0.5973,-0.6735,-0.6942,-0.6173,-0.5477,-0.4707,-0.6398,-0.7187,-0.7176,-0.7734,-0.801,-0.8429,-1.0233,-1.1622,-1.2703,-1.3768,-1.4265,-1.4465,-1.4199,-1.4871,-1.583,-1.4975,-1.5615,-1.6655,-1.7095,-1.7561,-1.8226,-1.9712,-2.1373,-2.3132,-2.5018,-2.6944,-2.879,-3.0755,-3.1729,-3.2164,-3.2164,-3.2692,-3.3422,-3.4109,-3.4461,-3.4662,-3.5044,-3.4898,-3.4898,-3.54,-3.5255,-3.5109,-3.5109,-3.4795,-3.4192,-3.3003,-3.352,-3.3618,-3.2775,-3.3115,-3.3297,-3.2932,-3.2648,-3.2304,-3.1809,-3.1736,-3.1044,-2.9381,-2.9303,-2.9069,-2.8426,-2.8335,-2.8335,-2.8402,-2.8311,-2.8481,-2.8991,-2.8991,-2.8937,-0.4591,0.0,0.0,0.0,0.0,0.0,0.0,0.0,0.0,0.0,0.0,0.0,0.0,0.0,0.0,0.0,0.0,0.0,0.0,0.0,0.0,0.0,0.0,0.0,0.0,0.0,0.0,0.0,0.0,0.0,0.0,0.0,0.0,0.0,-0.2561,-0.3414,-0.512,-0.6085,-0.6621,-0.6934,-0.682,-0.6134,-0.5041,-0.6369,-0.7141,-0.7569,-0.8655,-0.9345,-0.9859,-1.2038,-1.3276,-1.3993,-1.464,-1.5004,-1.5074,-1.4904,-1.5785,-1.6915,-1.6344,-1.7095,-1.8511,-1.858,-1.8948,-1.9687,-2.1302,-2.3162,-2.4945,-2.6921,-2.8831,-3.0618,-3.2307,-3.3031,-3.3325,-3.3478,-3.3768,-3.4259,-3.527,-3.5479,-3.5544,-3.5849,-3.5913,-3.5913,-3.5913,-3.5913,-3.5913,-3.5913,-3.5479,-3.489,-3.4124,-3.4385,-3.4414,-3.3673,-3.3879,-3.3988,-3.363,-3.3353,-3.3003,-3.2577,-3.2506,-3.1988,-3.0745,-3.0393,-3.0024,-2.9524,-2.9356,-2.9356,-2.9601,-2.9422,-2.9512,-2.9935,-2.9935,-2.9858,0.0,0.0,0.0,0.0,0.0,0.0,0.0,0.0,0.0,0.0,0.0,0.0,0.0,0.0,0.0,0.0,0.0,0.0,0.0,0.0,0.0,0.0,0.0,0.0,0.0,0.0,0.0,0.0,0.0,0.0,0.0,0.0,0.0,-0.6285,-0.6394,-0.5417,-0.3488,-0.5611,-0.6785,0.0,-0.6879,-0.6871,-0.7081,-0.6798,-0.7223,-0.8151,-0.9815,-1.1039,-1.2138,-1.3582,-1.4365,-1.4734,-1.5322,-1.5744,-1.5988,-1.5988,-1.7109,-1.8788,-1.8788,-1.9422,-2.0232,-2.0701,-2.0692,-2.0926,-2.3278,-2.4977,-2.6551,-2.8609,-3.024,-3.1769,-3.3421,-3.3751,-3.3751,-3.4201,-3.4795,-3.5415,-3.5864,-3.5976,-3.5976,-3.6054,-3.6054,-3.6054,-3.6054,-3.6054,-3.6039,-3.5976,-3.5608,-3.5365,-3.5285,-3.5001,-3.4817,-3.5001,-3.4505,-3.4274,-3.4394,-3.3768,-3.3367,-3.3283,-3.3283,-3.3003,-3.229,-3.1542,-3.1198,-3.1272,-3.0545,-3.0469,-3.1061,-3.033,-3.0088,-3.0469,-3.0469,-3.0469,0.0,0.0,0.0,0.0,0.0,0.0,0.0,0.0,0.0,0.0,0.0,0.0,0.0,0.0,0.0,0.0,0.0,0.0,0.0,0.0,0.0,0.0,0.0,0.0,0.0,0.0,0.0,0.0,0.0,0.0,0.0,0.0,0.0,-0.6363,-0.6358,-0.6141,-0.5717,-0.623,-0.6532,0.0,-0.6516,-0.6513,-0.6622,-0.6714,-0.7482,-0.8819,-0.9835,-1.1157,-1.2681,-1.3757,-1.4793,-1.5606,-1.6564,-1.6914,-1.6951,-1.6951,-1.7777,-1.8788,-1.8788,-1.9422,-2.0494,-2.223,-2.2746,-2.3162,-2.5626,-2.7198,-2.8464,-3.0112,-3.1707,-3.3213,-3.4514,-3.5109,-3.5597,-3.6584,-3.6244,-3.5864,-3.6383,-3.6523,-3.6646,-3.7089,-3.715,-3.715,-3.715,-3.715,-3.7029,-3.6585,-3.6461,-3.6321,-3.615,-3.5593,-3.5415,-3.5879,-3.5314,-3.5001,-3.5213,-3.5082,-3.4706,-3.4109,-3.4041,-3.3822,-3.3213,-3.2461,-3.185,-3.1347,-3.1421,-3.1569,-3.1743,-3.1643,-3.1716,-3.179,-3.179,-3.1482,0.0,0.0,0.0,0.0,0.0,0.0,0.0,0.0,0.0,0.0,0.0,0.0,0.0,0.0,0.0,0.0,0.0,0.0,0.0,0.0,0.0,0.0,0.0,0.0,0.0,0.0,0.0,0.0,0.0,0.0,0.0,-0.3935,-0.556,-0.6377,-0.6573,-0.6564,-0.645,-0.645,-0.6545,-0.6736,-0.6639,-0.6839,-0.7141,-0.7886,-0.8624,-0.9562,-1.0553,-1.1963,-1.3499,-1.4076,-1.5222,-1.656,-1.7138,-1.7598,-1.8064,-1.8141,-1.9047,-2.0322,-2.0322,-2.1203,-2.2522,-2.3567,-2.4245,-2.4914,-2.7059,-2.8476,-2.977,-3.1594,-3.3017,-3.4269,-3.5593,-3.6134,-3.6706,-3.769,-3.7279,-3.6935,-3.7722,-3.7679,-3.7562,-3.7828,-3.7685,-3.748,-3.748,-3.748,-3.7421,-3.7105,-3.6846,-3.6693,-3.6753,-3.6306,-3.6024,-3.6196,-3.5943,-3.5718,-3.5504,-3.5504,-3.5344,-3.4993,-3.4993,-3.4728,-3.4192,-3.3919,-3.3367,-3.2577,-3.2475,-3.2417,-3.2489,-3.23,-3.2182,-3.2182,-3.2182,-3.2082,0.0,0.0,0.0,0.0,0.0,0.0,0.0,0.0,0.0,0.0,0.0,0.0,0.0,0.0,0.0,0.0,0.0,0.0,0.0,0.0,0.0,0.0,0.0,0.0,0.0,0.0,0.0,0.0,0.0,0.0,-0.3929,-0.4329,-0.5138,-0.6461,-0.6759,-0.6751,-0.6437,-0.6437,-0.6739,-0.7238,-0.7042,-0.7441,-0.8336,-0.9316,-0.9908,-1.0117,-1.1487,-1.2931,-1.4268,-1.4459,-1.5602,-1.7326,-1.7512,-1.8056,-1.888,-1.9139,-2.0404,-2.1943,-2.1943,-2.3173,-2.4754,-2.4829,-2.5568,-2.6696,-2.8445,-2.977,-3.1069,-3.3017,-3.4321,-3.529,-3.6554,-3.71,-3.7552,-3.8414,-3.8318,-3.8206,-3.9028,-3.881,-3.8463,-3.8463,-3.81,-3.7801,-3.7801,-3.7801,-3.7801,-3.7759,-3.7329,-3.7163,-3.737,-3.704,-3.6753,-3.66,-3.6492,-3.6196,-3.5668,-3.5554,-3.5604,-3.5688,-3.5752,-3.5559,-3.5139,-3.5285,-3.5073,-3.4432,-3.3547,-3.3213,-3.3422,-3.2704,-3.2372,-3.2372,-3.23,-3.2444,0.0,0.0,0.0,0.0,0.0,0.0,0.0,0.0,0.0,0.0,0.0,0.0,0.0,0.0,0.0,0.0,0.0,0.0,0.0,0.0,0.0,0.0,0.0,0.0,0.0,0.0,0.0,0.0,0.0,0.0,-0.6659,-0.6656,-0.6656,-0.6962,-0.6648,-0.6539,-0.6742,-0.6742,-0.6942,-0.7238,-0.764,-0.8535,-0.9723,-1.0395,-1.04,-1.0117,-1.1863,-1.321,-1.4364,-1.5222,-1.6271,-1.7419,-1.8241,-1.8703,-1.888,-1.9778,-2.0782,-2.1784,-2.1784,-2.3008,-2.4744,-2.5819,-2.7256,-2.8917,-3.0568,-3.1933,-3.317,-3.4148,-3.5552,-3.6781,-3.7338,-3.8222,-3.9049,-3.9629,-3.9732,-3.9577,-3.9242,-3.9152,-3.9082,-3.9082,-3.9028,-3.899,-3.899,-3.899,-3.8882,-3.8639,-3.8567,-3.8511,-3.8567,-3.81,-3.7796,-3.7994,-3.7071,-3.6368,-3.6321,-3.5879,-3.5688,-3.5688,-3.5831,-3.5958,-3.6006,-3.607,-3.6085,-3.6148,-3.478,-3.4109,-3.4177,-3.3422,-3.3087,-3.3087,-3.2761,-3.2632,0.0,0.0,0.0,0.0,0.0,0.0,0.0,0.0,0.0,0.0,0.0,0.0,0.0,0.0,0.0,0.0,0.0,0.0,0.0,0.0,0.0,0.0,0.0,0.0,0.0,0.0,0.0,0.0,0.0,-0.6954,-0.6954,-0.6954,-0.6851,-0.6851,-0.6842,-0.6936,-0.7039,-0.7039,-0.7434,-0.8326,-0.9895,-1.0783,-1.1184,-1.1965,-1.2058,-1.157,-1.2635,-1.3884,-1.5127,-1.5609,-1.6741,-1.8149,-1.8611,-1.943,-2.0512,-2.164,-2.2698,-2.3664,-2.418,-2.5284,-2.6565,-2.7058,-2.8323,-2.9897,-3.0983,-3.2393,-3.3765,-3.478,-3.6151,-3.744,-3.7863,-3.8832,-3.9697,-3.98,-4.017,-4.0451,-4.0187,-3.9868,-3.9558,-3.9259,-3.9206,-3.9206,-3.9206,-3.9206,-3.9206,-3.9135,-3.8952,-3.8898,-3.9098,-3.8717,-3.8383,-3.8294,-3.7822,-3.7191,-3.6492,-3.6646,-3.6523,-3.5894,-3.6368,-3.6554,-3.6352,-3.6352,-3.6414,-3.6492,-3.5464,-3.4927,-3.4912,-3.4177,-3.3905,-3.3973,-3.3851,-3.3782,0.0,0.0,0.0,0.0,0.0,0.0,0.0,0.0,0.0,0.0,0.0,0.0,0.0,0.0,0.0,0.0,0.0,0.0,0.0,0.0,0.0,0.0,0.0,0.0,0.0,0.0,0.0,0.0,0.0,-0.7141,-0.7141,-0.7045,-0.7045,-0.7045,-0.7141,-0.7238,-0.7341,-0.7633,-0.8322,-0.941,-1.156,-1.2441,-1.2252,-1.3141,-1.3426,-1.3307,-1.3698,-1.4657,-1.5893,-1.6358,-1.7475,-1.8972,-1.9422,-2.0503,-2.2041,-2.3317,-2.4341,-2.5199,-2.6141,-2.7139,-2.8051,-2.8187,-2.9356,-3.0833,-3.1636,-3.3017,-3.4455,-3.5449,-3.6798,-3.8108,-3.8463,-3.9368,-4.017,-4.002,-4.0451,-4.0888,-4.0888,-4.0549,-4.012,-3.9714,-3.9627,-3.9627,-3.9627,-3.9627,-3.9662,-3.9714,-3.947,-3.9312,-3.9523,-3.9276,-3.8952,-3.859,-3.8407,-3.7937,-3.7011,-3.7354,-3.7294,-3.6538,-3.6951,-3.7042,-3.6723,-3.66,-3.6492,-3.6492,-3.6006,-3.5721,-3.5672,-3.4978,-3.4714,-3.4846,-3.4795,-3.4795,0.0,0.0,0.0,0.0,0.0,0.0,0.0,0.0,0.0,0.0,0.0,0.0,0.0,0.0,0.0,0.0,0.0,0.0,0.0,0.0,0.0,0.0,0.0,0.0,0.0,0.0,0.0,0.0,0.0,-0.7939,-0.7939,-0.7743,-0.7547,-0.7547,-0.7341,-0.7341,-0.7547,-0.8821,-0.9608,-0.9998,-1.1365,-1.2257,-1.2759,-1.3232,-1.3992,-1.4854,-1.4949,-1.5425,-1.6285,-1.7956,-1.878,-1.9314,-2.1123,-2.2041,-2.257,-2.4351,-2.5041,-2.5199,-2.6141,-2.7058,-2.7947,-2.8917,-3.0392,-3.2001,-3.3394,-3.4765,-3.5913,-3.6461,-3.7838,-3.9135,-3.9152,-3.9986,-4.0823,-4.0823,-4.0871,-4.0888,-4.0888,-4.0888,-4.0823,-4.0823,-4.0823,-4.0823,-4.0823,-4.0823,-4.0776,-4.0648,-4.06,-4.0453,-3.9952,-3.9849,-3.9694,-3.9272,-3.8662,-3.8334,-3.839,-3.8035,-3.7806,-3.7889,-3.7605,-3.7358,-3.7358,-3.6769,-3.6492,-3.6492,-3.66,-3.66,-3.6414,-3.5849,-3.5563,-3.5563,-3.5385,-3.5335,0.0,0.0,0.0,0.0,0.0,0.0,0.0,0.0,0.0,0.0,0.0,0.0,0.0,0.0,0.0,0.0,0.0,0.0,0.0,0.0,0.0,0.0,0.0,0.0,0.0,0.0,0.0,0.0,0.0,0.0,-0.7743,-0.7444,-0.7441,-0.7547,-0.7543,-0.7939,-0.892,-0.9998,-1.0974,-1.1755,-1.2926,-1.3806,-1.4484,-1.449,-1.5337,-1.6741,-1.7008,-1.7561,-1.8126,-1.8772,-1.9861,-2.1311,-2.1943,-2.2989,-2.4265,-2.5546,-2.6461,-2.7186,-2.8016,-2.8966,-2.9884,-3.0177,-3.1375,-3.2861,-3.3754,-3.4898,-3.6102,-3.7011,-3.8238,-3.9295,-3.9594,-4.0286,-4.0888,-4.0888,-4.0888,-4.0965,-4.1237,-4.1088,-4.0888,-4.0888,-4.0888,-4.0888,-4.0888,-4.0982,-4.1029,-4.1041,-4.0884,-4.0741,-4.0597,-4.0171,-3.9849,-3.9694,-3.9239,-3.8827,-3.8518,-3.8794,-3.8723,-3.8044,-3.7994,-3.7796,-3.7417,-3.6846,-3.6554,-3.66,-3.6662,-3.6662,-3.66,-3.6523,-3.6569,-3.66,-3.66,-3.643,0.0,0.0,0.0,0.0,0.0,0.0,0.0,0.0,0.0,0.0,0.0,0.0,0.0,0.0,0.0,0.0,0.0,0.0,0.0,0.0,0.0,0.0,0.0,0.0,0.0,0.0,0.0,0.0,0.0,0.0,-0.7746,-0.754,-0.754,-0.7746,-0.8038,-0.8627,-0.941,-1.0974,-1.195,-1.2533,-1.3998,-1.4962,-1.5439,-1.573,-1.6487,-1.7598,-1.8411,-1.8956,-1.9413,-1.9951,-2.1284,-2.2969,-2.3327,-2.4361,-2.588,-2.6801,-2.7626,-2.8359,-2.9263,-3.0088,-3.097,-3.1193,-3.2132,-3.3353,-3.4365,-3.524,-3.615,-3.7456,-3.8518,-3.9295,-3.9851,-4.0483,-4.0982,-4.1012,-4.1134,-4.13,-4.1578,-4.13,-4.1059,-4.1328,-4.1163,-4.1041,-4.1226,-4.1198,-4.1152,-4.1272,-4.1117,-4.1007,-4.1024,-4.0549,-4.0171,-3.9952,-3.9642,-3.9345,-3.892,-3.9382,-3.9418,-3.8745,-3.8668,-3.8351,-3.7738,-3.7163,-3.6831,-3.6723,-3.6846,-3.6892,-3.6892,-3.6968,-3.7089,-3.7194,-3.7254,-3.7134,0.0,0.0,0.0,0.0,0.0,0.0,0.0,0.0,0.0,0.0,0.0,0.0,0.0,0.0,0.0,0.0,0.0,0.0,0.0,0.0,0.0,0.0,0.0,0.0,0.0,0.0,0.0,0.0,0.0,-0.8031,-0.8031,-0.8038,-0.8038,-0.8137,-0.9118,-0.9509,-0.9312,-1.1556,-1.263,-1.2436,-1.4465,-1.5432,-1.5527,-1.6763,-1.7326,-1.7512,-1.8888,-1.9712,-2.0158,-2.1765,-2.3047,-2.4108,-2.5115,-2.6152,-2.7232,-2.8131,-2.8542,-2.8633,-2.9534,-3.0355,-3.1044,-3.1856,-3.2648,-3.3561,-3.537,-3.5913,-3.6275,-3.7863,-3.8739,-3.9348,-3.9902,-4.0549,-4.114,-4.1209,-4.1596,-4.1924,-4.1924,-4.1542,-4.1363,-4.2144,-4.1717,-4.1373,-4.1796,-4.1507,-4.1255,-4.138,-4.1426,-4.1318,-4.1071,-4.1024,-4.0741,-3.9986,-3.9901,-3.9833,-3.9729,-3.9729,-3.9833,-4.007,-3.9523,-3.892,-3.8351,-3.7879,-3.731,-3.6769,-3.7074,-3.7194,-3.7194,-3.7194,-3.7194,-3.7194,-3.7405,-3.7373,-0.5788,0.0,0.0,0.0,0.0,0.0,0.0,0.0,0.0,0.0,0.0,0.0,0.0,0.0,0.0,0.0,0.0,0.0,0.0,0.0,0.0,0.0,0.0,0.0,0.0,0.0,0.0,0.0,-0.7818,-0.7875,-0.7875,-0.8659,-0.9509,-1.0293,-1.0587,-1.1072,-1.1755,-1.2339,-1.3307,-1.4561,-1.5146,-1.5994,-1.703,-1.7225,-1.8056,-1.9521,-2.0404,-2.1302,-2.2208,-2.2473,-2.3664,-2.5368,-2.5652,-2.673,-2.8131,-2.8383,-2.887,-2.9521,-3.033,-3.1132,-3.1928,-3.2648,-3.3451,-3.4303,-3.5529,-3.6087,-3.6615,-3.8446,-3.9242,-3.9714,-4.0566,-4.0935,-4.1215,-4.1596,-4.1796,-4.2074,-4.2639,-4.2465,-4.2244,-4.2404,-4.2056,-4.1753,-4.1881,-4.1613,-4.1363,-4.138,-4.1471,-4.1515,-4.1453,-4.1163,-4.0931,-4.0693,-4.032,-4.0087,-4.0138,-3.9952,-3.9935,-4.007,-3.9523,-3.9189,-3.9102,-3.8149,-3.7605,-3.7695,-3.7358,-3.7254,-3.7405,-3.7405,-3.7405,-3.7405,-3.7669,-3.777,0.0,0.0,0.0,0.0,0.0,0.0,0.0,0.0,0.0,0.0,0.0,0.0,0.0,0.0,0.0,0.0,0.0,0.0,0.0,0.0,0.0,0.0,0.0,0.0,0.0,0.0,0.0,-0.8804,-0.88,-0.8855,-0.8855,-0.9686,-1.0369,-1.1042,-1.1516,-1.2145,-1.2727,-1.3409,-1.437,-1.5439,-1.6089,-1.7023,-1.8326,-1.8511,-1.943,-2.097,-2.1756,-2.2629,-2.3674,-2.3932,-2.4957,-2.64,-2.673,-2.7799,-2.904,-2.904,-2.9586,-3.0343,-3.0758,-3.1623,-3.2648,-3.3143,-3.3934,-3.492,-3.5737,-3.6352,-3.704,-3.8778,-3.9749,-4.0417,-4.1059,-4.1233,-4.138,-4.1881,-4.2157,-4.2462,-4.3087,-4.3194,-4.3159,-4.3105,-4.2501,-4.2074,-4.2239,-4.1856,-4.1471,-4.1471,-4.156,-4.1648,-4.1719,-4.1525,-4.1328,-4.1283,-4.0819,-4.0434,-4.0451,-4.007,-4.0003,-4.0188,-3.985,-3.9627,-3.9489,-3.887,-3.8486,-3.8446,-3.8181,-3.8059,-3.8033,-3.77,-3.7583,-3.7685,-3.8059,-3.8286,-0.7401,-0.7836,0.0,0.0,0.0,0.0,-0.9541,-0.9523,0.0,0.0,0.0,0.0,0.0,0.0,0.0,0.0,0.0,0.0,0.0,0.0,0.0,0.0,0.0,0.0,0.0,-1.0253,-1.0283,-1.0306,-1.0329,-1.0445,-1.056,-1.0824,-1.1024,-1.1119,-1.2161,-1.286,-1.2978,-1.4518,-1.5501,-1.5717,-1.7117,-1.8319,-1.9222,-2.0059,-2.097,-2.1872,-2.2833,-2.376,-2.4596,-2.563,-2.6565,-2.7313,-2.8131,-2.904,-2.9792,-2.9856,-3.0343,-3.097,-3.1106,-3.206,-3.3283,-3.363,-3.4461,-3.535,-3.6117,-3.6768,-3.7557,-3.9139,-4.0351,-4.1255,-4.138,-4.1408,-4.1613,-4.2115,-4.258,-4.2996,-4.3387,-4.3777,-4.4005,-4.3947,-4.3014,-4.24,-4.2734,-4.2133,-4.1604,-4.1648,-4.1648,-4.1719,-4.1934,-4.1917,-4.1917,-4.1796,-4.1311,-4.0943,-4.0689,-4.0204,-4.0054,-4.0305,-4.0288,-4.0121,-3.9714,-3.9765,-3.9542,-3.9016,-3.9119,-3.9061,-3.8805,-3.7976,-3.7685,-3.8001,-3.8567,-3.8805,-0.8238,-0.8663,-0.919,0.0,0.0,0.0,0.0,-0.8439,0.0,0.0,0.0,0.0,0.0,0.0,0.0,0.0,0.0,0.0,0.0,0.0,0.0,0.0,0.0,0.0,0.0,-0.9691,-0.9784,-0.9948,-1.0121,-1.0653,-1.1563,-1.1615,-1.2102,-1.294,-1.3176,-1.3755,-1.4528,-1.4907,-1.5765,-1.7217,-1.8311,-1.9231,-2.0068,-2.097,-2.1952,-2.2921,-2.375,-2.4692,-2.5641,-2.7302,-2.8051,-2.8211,-2.8462,-2.904,-2.9856,-3.0482,-3.0758,-3.1106,-3.2492,-3.3073,-3.3422,-3.4978,-3.5449,-3.5755,-3.6995,-3.7774,-3.8625,-4.0102,-4.0849,-4.1255,-4.138,-4.164,-4.2032,-4.258,-4.3032,-4.3471,-4.3809,-4.4067,-4.4226,-4.4135,-4.3336,-4.2696,-4.281,-4.2133,-4.1631,-4.1805,-4.1849,-4.1934,-4.2187,-4.2246,-4.2187,-4.2187,-4.1552,-4.1146,-4.11,-4.0566,-4.0255,-4.0305,-4.0387,-4.0485,-4.0468,-4.0037,-3.9817,-3.9783,-3.9206,-3.8843,-3.8805,-3.8116,-3.8116,-3.8639,-3.875,-3.8914,0.0,0.0,-0.9577,-0.9431,0.0,0.0,0.0,0.0,0.0,0.0,0.0,0.0,0.0,0.0,0.0,0.0,0.0,0.0,0.0,0.0,0.0,0.0,0.0,0.0,0.0,-1.0642,-1.0803,-1.1117,-1.1166,-1.1598,-1.2292,-1.2428,-1.2861,-1.3754,-1.3885,-1.4385,-1.5241,-1.561,-1.6664,-1.8154,-1.897,-2.0231,-2.1676,-2.2217,-2.3173,-2.4457,-2.4872,-2.588,-2.7221,-2.8131,-2.8779,-2.9341,-2.9614,-2.9999,-3.0558,-3.1328,-3.1829,-3.2349,-3.3283,-3.3796,-3.4153,-3.5593,-3.6087,-3.6306,-3.7429,-3.8469,-3.9562,-4.0767,-4.1328,-4.1613,-4.1805,-4.211,-4.248,-4.294,-4.3318,-4.3707,-4.4067,-4.4226,-4.4285,-4.4274,-4.3712,-4.3212,-4.3087,-4.2436,-4.1977,-4.2061,-4.2103,-4.2187,-4.2409,-4.245,-4.249,-4.2591,-4.1881,-4.1445,-4.1445,-4.0789,-4.0436,-4.0502,-4.0534,-4.0648,-4.0793,-4.0566,-4.05,-4.0611,-3.9952,-3.9575,-3.9556,-3.892,-3.8701,-3.8805,-3.904,-3.9218,0.0,0.0,0.0,0.0,0.0,-0.9826,0.0,0.0,0.0,-0.976,0.0,0.0,0.0,0.0,0.0,0.0,0.0,0.0,0.0,0.0,0.0,0.0,0.0,0.0,0.0,-1.1492,-1.1787,-1.2204,-1.2176,-1.2349,-1.2771,-1.3096,-1.3591,-1.4156,-1.4474,-1.4967,-1.5898,-1.6528,-1.7556,-1.8933,-1.9739,-2.1085,-2.2969,-2.3315,-2.4385,-2.5819,-2.6235,-2.7232,-2.8542,-2.87,-2.9406,-3.0355,-3.0758,-3.1031,-3.1328,-3.2177,-3.2904,-3.3575,-3.3934,-3.4438,-3.5067,-3.6117,-3.6768,-3.7322,-3.8222,-3.9246,-4.04,-4.1311,-4.1788,-4.2019,-4.2246,-4.2534,-4.2826,-4.3196,-4.3526,-4.3873,-4.4207,-4.4314,-4.4344,-4.4314,-4.4017,-4.3693,-4.3373,-4.2806,-4.2351,-4.2369,-4.2369,-4.245,-4.2631,-4.2688,-4.2765,-4.29,-4.2216,-4.1753,-4.1753,-4.1007,-4.0583,-4.0697,-4.0762,-4.084,-4.0935,-4.1029,-4.1152,-4.1209,-4.0707,-4.0434,-4.0305,-3.9731,-3.9312,-3.8914,-3.9325,-3.9484,0.0,0.0,0.0,0.0,-1.0938,0.0,0.0,0.0,-0.9775,-0.9007,0.0,0.0,0.0,0.0,0.0,0.0,0.0,0.0,0.0,0.0,0.0,0.0,0.0,0.0,0.0,0.0,-1.0912,-1.189,-1.1759,-1.2155,-1.3192,-1.3783,-1.4255,-1.4608,-1.4649,-1.5544,-1.7254,-1.7347,-1.8287,-2.0117,-2.1034,-2.1839,-2.2519,-2.4199,-2.5261,-2.5902,-2.7718,-2.8462,-2.8542,-2.9509,-3.0419,-3.1044,-3.097,-3.1044,-3.1368,-3.2861,-3.3422,-3.3644,-3.4654,-3.5379,-3.5913,-3.6951,-3.8141,-3.9329,-4.0203,-4.0689,-4.1065,-4.1959,-4.2246,-4.2246,-4.2287,-4.2591,-4.2957,-4.3232,-4.3646,-4.4036,-4.4255,-4.4401,-4.4458,-4.4383,-4.4218,-4.3886,-4.3408,-4.2921,-4.2634,-4.2552,-4.257,-4.2649,-4.2862,-4.2974,-4.3067,-4.3049,-4.2356,-4.1881,-4.1881,-4.1117,-4.0697,-4.0697,-4.0905,-4.1047,-4.1111,-4.1152,-4.1209,-4.1209,-4.0896,-4.058,-4.0305,-3.9986,-3.9694,-3.9432,-3.9501,-3.9537,0.0,0.0,0.0,0.0,0.0,0.0,0.0,0.0,-1.0589,0.0,0.0,0.0,0.0,0.0,0.0,0.0,0.0,0.0,0.0,0.0,0.0,0.0,0.0,0.0,0.0,0.0,0.0,0.0,0.0,-1.1861,-1.3099,-1.3803,-1.446,-1.4945,-1.5688,-1.659,-1.7811,-1.8293,-1.9308,-2.0794,-2.1729,-2.2604,-2.3544,-2.4763,-2.5995,-2.7091,-2.7825,-2.8929,-3.0215,-3.0126,-3.0921,-3.2177,-3.2001,-3.229,-3.2975,-3.407,-3.4505,-3.4572,-3.5148,-3.5653,-3.629,-3.7589,-3.8756,-3.9781,-4.0659,-4.0943,-4.122,-4.221,-4.249,-4.249,-4.2631,-4.2957,-4.3321,-4.3575,-4.398,-4.4364,-4.4587,-4.4693,-4.4719,-4.4693,-4.4505,-4.4229,-4.3823,-4.3442,-4.3105,-4.2936,-4.2918,-4.2975,-4.305,-4.3142,-4.316,-4.316,-4.2418,-4.1948,-4.1948,-4.1255,-4.084,-4.0953,-4.1059,-4.1198,-4.1261,-4.129,-4.1408,-4.1613,-4.1507,-4.1311,-4.1082,-4.0724,-4.0385,-4.0137,-3.9764,-3.9694,-1.163,0.0,0.0,0.0,0.0,0.0,0.0,0.0,0.0,0.0,0.0,0.0,0.0,0.0,0.0,0.0,0.0,0.0,0.0,0.0,0.0,0.0,0.0,0.0,0.0,0.0,0.0,0.0,0.0,0.0,-1.3114,-1.3851,-1.4758,-1.5761,-1.6645,-1.7637,-1.8718,-1.9344,-2.0282,-2.1716,-2.2309,-2.3238,-2.4581,-2.5276,-2.6406,-2.7669,-2.8024,-2.93,-3.1203,-3.0773,-3.1621,-3.3171,-3.3073,-3.363,-3.4514,-3.4986,-3.5213,-3.5213,-3.5489,-3.6022,-3.689,-3.8334,-3.9259,-3.9918,-4.0814,-4.1139,-4.1428,-4.2494,-4.2747,-4.2786,-4.2938,-4.3196,-4.3479,-4.374,-4.4102,-4.4458,-4.4745,-4.4846,-4.4895,-4.4895,-4.4693,-4.4421,-4.417,-4.3795,-4.3444,-4.316,-4.3178,-4.3214,-4.3214,-4.3251,-4.3251,-4.3251,-4.2655,-4.2198,-4.2115,-4.1507,-4.1152,-4.1186,-4.1244,-4.1318,-4.1471,-4.1515,-4.1631,-4.1892,-4.1977,-4.1917,-4.1709,-4.1202,-4.0879,-4.0594,-4.0003,-3.9833,0.0,0.0,0.0,-1.1144,0.0,0.0,0.0,0.0,-1.1595,0.0,0.0,0.0,0.0,0.0,0.0,-1.0043,0.0,0.0,0.0,0.0,0.0,0.0,0.0,0.0,0.0,0.0,0.0,0.0,0.0,0.0,-1.3508,-1.414,-1.5425,-1.7381,-1.7441,-1.8404,-2.0382,-2.0459,-2.1318,-2.2948,-2.2948,-2.3702,-2.5136,-2.5739,-2.648,-2.7186,-2.8938,-2.9918,-3.0533,-3.1459,-3.2706,-3.3959,-3.3959,-3.4647,-3.5623,-3.5329,-3.5213,-3.5279,-3.5574,-3.6585,-3.7994,-3.9259,-3.9781,-4.007,-4.107,-4.1508,-4.1864,-4.292,-4.316,-4.316,-4.3214,-4.3214,-4.3268,-4.3563,-4.3873,-4.4199,-4.4449,-4.4719,-4.4895,-4.4895,-4.4693,-4.4421,-4.417,-4.3809,-4.3495,-4.3232,-4.3214,-4.3214,-4.3214,-4.3305,-4.3394,-4.3394,-4.3087,-4.2729,-4.2418,-4.1966,-4.1596,-4.1426,-4.138,-4.1471,-4.1604,-4.1762,-4.1874,-4.1874,-4.2145,-4.2086,-4.1709,-4.1202,-4.0879,-4.0577,-4.0104,-3.9952,0.0,0.0,-1.5059,-1.3647,0.0,0.0,0.0,0.0,0.0,0.0,0.0,0.0,0.0,0.0,-1.0755,-1.0578,-1.0077,0.0,0.0,0.0,0.0,0.0,0.0,0.0,0.0,0.0,0.0,0.0,-1.0965,0.0,0.0,-1.5106,-1.6417,-1.7752,-1.8676,-1.9774,-2.0904,-2.1811,-2.2638,-2.3316,-2.4264,-2.4945,-2.5469,-2.6202,-2.7132,-2.8342,-2.8897,-3.0106,-3.1724,-3.1832,-3.2911,-3.4466,-3.442,-3.5008,-3.5894,-3.5638,-3.5653,-3.5782,-3.6305,-3.716,-3.8189,-3.9082,-3.9799,-4.0451,-4.1455,-4.1803,-4.208,-4.2995,-4.3339,-4.3393,-4.3393,-4.3444,-4.3545,-4.3841,-4.406,-4.4279,-4.4802,-4.4967,-4.5014,-4.5014,-4.4783,-4.4476,-4.4192,-4.3923,-4.3634,-4.3376,-4.3358,-4.3393,-4.3393,-4.3463,-4.3532,-4.3532,-4.3232,-4.2885,-4.2501,-4.1881,-4.1453,-4.1426,-4.1587,-4.1762,-4.1805,-4.2019,-4.2228,-4.2351,-4.2432,-4.2512,-4.2498,-4.2032,-4.1587,-4.1168,-4.0802,-4.05,-1.5965,-1.6244,0.0,-1.5041,-1.4782,0.0,-1.3748,0.0,0.0,0.0,0.0,0.0,0.0,0.0,0.0,-1.1625,-1.0895,0.0,0.0,0.0,0.0,0.0,0.0,0.0,0.0,0.0,-1.0126,-1.0505,0.0,0.0,0.0,0.0,-1.6712,-1.8052,-1.9613,-2.08,-2.1722,-2.3047,-2.394,-2.4313,-2.5252,-2.5963,-2.6582,-2.6947,-2.7827,-2.9037,-2.9272,-3.0395,-3.2072,-3.2177,-3.3191,-3.4816,-3.4763,-3.5284,-3.6022,-3.5894,-3.5958,-3.6274,-3.7055,-3.779,-3.8525,-3.9385,-4.0054,-4.0758,-4.1692,-4.2038,-4.2306,-4.3213,-4.3548,-4.3618,-4.3618,-4.3634,-4.3716,-4.3942,-4.4121,-4.4336,-4.4732,-4.4924,-4.5014,-4.5014,-4.4777,-4.4503,-4.4279,-4.3986,-4.3753,-4.3569,-4.3584,-4.3618,-4.3618,-4.3634,-4.3667,-4.3667,-4.3495,-4.3123,-4.2637,-4.1966,-4.1587,-4.1587,-4.1892,-4.2061,-4.2061,-4.2287,-4.249,-4.2609,-4.267,-4.2786,-4.2882,-4.2458,-4.2115,-4.1803,-4.1276,-4.0896]}]]